[[{"header":{"parameterUnit":"m.s-1","parameterCategory":1,"la1":30.6,"la2":29.2853,"lo1":-89.7004,"lo2":-87.6739,"dx":0.0162,"dy":0.0183,"nx":112,"ny":82,"refTime":"2023-01-20T06:00:00:Z","depth":0,"parameterNumber":2,"parameterNumberName":"U-component_of_WINDS"},"data":[0.0,0.0,0.0,0.0,0.0,0.0,0.0,0.0,0.0,0.0,0.0,0.0,0.0,0.0,0.0,0.0,0.0,0.0,0.0,0.0,0.0,0.0,0.0,0.0,0.0,0.0,0.0,0.0,0.0,0.0,0.0,0.0,0.0,0.0,0.0,0.0,0.0,0.0,0.0,0.0,0.0,0.0,0.0,0.0,0.0,0.0,0.0,0.0,0.0,0.0,0.0,0.0,0.0,0.0,0.0,0.0,0.0,0.0,0.0,0.0,0.0,0.0,0.0,0.0,0.0,0.0,0.0,0.0,0.0,0.0,0.0,0.0,0.0,0.0,0.0,0.0,0.0,0.0,0.0,0.0,0.0,0.0,0.0,0.0,0.0,0.0,0.0,0.0,0.0,0.0,0.0,1.6138,1.5545,1.4921,1.4477,1.4355,1.4212,1.388,0.0,0.0,0.0,0.0,0.0,0.0,0.0,0.0,0.0,0.0,0.0,0.0,0.0,0.0,0.0,0.0,0.0,0.0,0.0,0.0,0.0,0.0,0.0,0.0,0.0,0.0,0.0,0.0,0.0,0.0,0.0,0.0,0.0,0.0,0.0,0.0,0.0,0.0,0.0,0.0,0.0,0.0,0.0,0.0,0.0,0.0,0.0,0.0,0.0,0.0,0.0,0.0,0.0,0.0,0.0,0.0,0.0,0.0,0.0,0.0,0.0,0.0,0.0,0.0,0.0,0.0,0.0,0.0,0.0,0.0,0.0,0.0,0.0,0.0,0.0,0.0,0.0,0.0,0.0,0.0,0.0,0.0,0.0,0.0,0.0,0.0,0.0,0.0,0.0,0.0,0.0,0.0,0.0,0.0,0.0,0.0,0.0,0.0,0.0,0.0,0.0,0.0,0.0,0.0,1.6049,1.5604,1.5638,1.547,1.5001,1.4982,1.4734,1.4156,0.0,0.0,0.0,0.0,0.0,0.0,0.0,0.0,0.0,0.0,0.0,0.0,0.0,0.0,0.0,0.0,0.0,0.0,0.0,0.0,0.0,0.0,0.0,0.0,0.0,0.0,0.0,0.0,0.0,0.0,0.0,0.0,0.0,0.0,0.0,0.0,0.0,0.0,0.0,0.0,0.0,0.0,0.0,0.0,0.0,0.0,0.0,0.0,0.0,0.0,0.0,0.0,0.0,0.0,0.0,0.0,0.0,0.0,0.0,0.0,0.0,0.0,0.0,0.0,0.0,0.0,0.0,0.0,0.0,0.0,0.0,0.0,0.0,0.0,0.0,0.0,0.0,0.0,0.0,0.0,0.0,0.0,0.0,0.0,0.0,0.0,0.0,0.0,0.0,0.0,0.0,0.0,0.0,0.0,0.0,0.0,0.0,0.0,0.0,0.0,0.0,0.0,0.0,1.6067,1.5339,1.4744,1.4949,1.4956,1.4443,1.4518,1.4436,1.3978,1.3743,0.0,0.0,0.0,0.0,0.0,0.0,0.0,0.0,0.0,0.0,0.0,0.0,0.0,0.0,0.0,0.0,0.0,0.0,0.0,0.0,0.0,0.0,0.0,0.0,0.0,0.0,0.0,0.0,0.0,0.0,0.0,0.0,0.0,0.0,0.0,0.0,0.0,0.0,0.0,0.0,0.0,0.0,0.0,0.0,0.0,0.0,0.0,0.0,0.0,0.0,0.0,0.0,0.0,0.0,0.0,0.0,0.0,0.0,0.0,0.0,0.0,0.0,0.0,0.0,0.0,0.0,0.0,0.0,0.0,0.0,0.0,0.0,0.0,0.0,0.0,0.0,0.0,0.0,0.0,0.0,0.0,0.0,0.0,0.0,0.0,0.0,0.0,0.0,0.0,0.0,0.0,0.0,0.0,0.0,0.0,0.0,0.0,0.0,0.0,0.0,0.0,0.0,1.5079,1.5048,1.4379,1.455,1.4544,1.4102,1.4198,1.4205,1.4021,1.3479,0.0,0.0,0.0,0.0,0.0,0.0,0.0,0.0,0.0,0.0,0.0,0.0,0.0,0.0,0.0,0.0,0.0,0.0,0.0,0.0,0.0,0.0,0.0,0.0,0.0,0.0,0.0,0.0,0.0,0.0,0.0,0.0,0.0,0.0,0.0,0.0,0.0,0.0,0.0,0.0,0.0,0.0,0.0,0.0,0.0,0.0,0.0,0.0,0.0,0.0,0.0,0.0,0.0,0.0,0.0,0.0,0.0,0.0,0.0,0.0,0.0,0.0,0.0,0.0,0.0,0.0,0.0,0.0,0.0,0.0,0.0,0.0,0.0,0.0,0.0,0.0,0.0,0.0,0.0,0.0,0.0,0.0,0.0,0.0,0.0,0.0,0.0,0.0,0.0,0.0,0.0,0.0,0.0,0.0,0.0,0.0,0.0,0.0,0.0,0.0,0.0,0.0,1.5863,1.5873,1.5026,1.495,1.495,1.4937,1.4635,1.4581,1.4883,1.3143,0.0,0.0,0.0,0.0,0.0,0.0,0.0,0.0,0.0,0.0,0.0,0.0,0.0,0.0,0.0,0.0,0.0,0.0,0.0,0.0,0.0,0.0,0.0,0.0,0.0,0.0,0.0,0.0,0.0,0.0,0.0,0.0,0.0,0.0,0.0,0.0,0.0,0.0,0.0,0.0,0.0,0.0,0.0,0.0,0.0,0.0,0.0,0.0,0.0,0.0,0.0,0.0,0.0,0.0,0.0,0.0,0.0,0.0,0.0,0.0,0.0,0.0,0.0,0.0,0.0,0.0,0.0,0.0,0.0,0.0,0.0,0.0,0.0,0.0,0.0,0.0,0.0,0.0,0.0,0.0,0.0,0.0,0.0,0.0,0.0,0.0,0.0,0.0,0.0,0.0,0.0,0.0,0.0,0.0,0.0,0.0,0.0,0.0,0.0,0.0,0.0,0.0,1.5222,1.5284,0.0,1.4683,1.4763,1.4995,1.4723,1.434,1.38,0.0,0.0,0.0,0.0,0.0,0.0,0.0,0.0,0.0,0.0,0.0,0.0,0.0,0.0,0.0,0.0,0.0,0.0,0.0,0.0,0.0,0.0,0.0,0.0,0.0,0.0,0.0,0.0,0.0,0.0,0.0,0.0,0.0,0.0,0.0,0.0,0.0,0.0,0.0,0.0,0.0,0.0,0.0,0.0,0.0,0.0,0.0,0.0,0.0,0.0,0.0,0.0,0.0,0.0,0.0,0.0,0.0,0.0,0.0,0.0,0.0,0.0,0.0,0.0,0.0,0.0,0.0,0.0,0.0,0.0,0.0,0.0,0.0,0.0,0.0,0.0,0.0,0.0,0.0,0.0,0.0,0.0,0.0,0.0,0.0,0.0,0.0,0.0,0.0,0.0,0.0,0.0,0.0,0.0,0.0,0.0,0.0,0.0,0.0,0.0,0.0,0.0,1.4816,1.4897,1.4928,0.0,1.4656,1.471,1.4816,1.4359,1.3758,1.3052,0.0,0.0,0.0,0.0,0.0,0.0,0.0,0.0,0.0,0.0,0.0,0.0,0.0,0.0,0.0,0.0,0.0,0.0,0.0,0.0,0.0,0.0,0.0,0.0,0.0,0.0,0.0,0.0,0.0,0.0,0.0,0.0,0.0,0.0,0.0,0.0,0.0,0.0,0.0,0.0,0.0,0.0,0.0,0.0,0.0,0.0,0.0,0.0,0.0,0.0,0.0,0.0,0.0,0.0,0.0,0.0,0.0,0.0,0.0,0.0,0.0,0.0,0.0,0.0,0.0,0.0,0.0,0.0,0.0,0.0,0.0,0.0,0.0,0.0,0.0,0.0,0.0,0.0,0.0,0.0,0.0,0.0,0.0,0.0,0.0,0.0,0.0,0.0,0.0,0.0,0.0,0.0,0.0,0.0,0.0,0.0,0.0,0.0,0.0,0.0,0.0,0.0,1.5364,1.5196,1.5008,1.5008,1.5008,1.4843,1.4549,1.3592,1.2984,0.0,0.0,0.0,0.0,0.0,0.0,0.0,0.0,0.0,0.0,0.0,0.0,0.0,0.0,0.0,0.0,0.0,0.0,0.0,0.0,0.0,0.0,0.0,0.0,0.0,0.0,0.0,0.0,0.0,0.0,0.0,0.0,0.0,0.0,0.0,0.0,0.0,0.0,0.0,0.0,0.0,0.0,0.0,0.0,0.0,0.0,0.0,0.0,0.0,0.0,0.0,0.0,0.0,0.0,0.0,0.0,0.0,0.0,0.0,0.0,0.0,0.0,0.0,0.0,0.0,0.0,0.0,0.0,0.0,0.0,0.0,0.0,0.0,0.0,0.0,0.0,0.0,0.0,0.0,0.0,0.0,0.0,0.0,0.0,0.0,0.0,0.0,0.0,0.0,0.0,0.0,0.0,0.0,0.0,0.0,0.0,0.0,0.0,0.0,0.0,0.0,0.0,0.0,1.5364,1.5196,1.5089,1.5244,1.5271,1.5231,1.515,1.4006,1.2917,1.2009,0.0,0.0,0.0,0.0,0.0,0.0,0.0,0.0,0.0,0.0,0.0,0.0,0.0,0.0,0.0,0.0,0.0,0.0,0.0,0.0,0.0,0.0,0.0,0.0,0.0,0.0,0.0,0.0,0.0,0.0,0.0,0.0,0.0,0.0,0.0,0.0,0.0,0.0,0.0,0.0,0.0,0.0,0.0,0.0,0.0,0.0,0.0,0.0,0.0,0.0,0.0,0.0,0.0,0.0,0.0,0.0,0.0,0.0,0.0,0.0,0.0,0.0,0.0,0.0,0.0,0.0,0.0,0.0,0.0,0.0,0.0,0.0,0.0,0.0,0.0,0.0,0.0,0.0,0.0,0.0,0.0,0.0,0.0,0.0,0.0,0.0,0.0,0.0,0.0,0.0,0.0,0.0,0.0,0.0,0.0,0.0,0.0,0.0,0.0,0.0,0.0,0.0,1.5538,1.5324,1.5244,1.5538,1.5191,1.4905,1.479,1.3402,1.203,1.0944,0.0,0.0,0.0,0.0,0.0,0.0,0.0,0.0,0.0,0.0,0.0,0.0,0.0,0.0,0.0,0.0,0.0,0.0,0.0,0.0,0.0,0.0,0.0,0.0,0.0,0.0,0.0,0.0,0.0,0.0,0.0,0.0,0.0,0.0,0.0,0.0,0.0,0.0,0.0,0.0,0.0,0.0,0.0,0.0,0.0,0.0,0.0,0.0,0.0,0.0,0.0,0.0,0.0,0.0,0.0,0.0,0.0,0.0,0.0,0.0,0.0,0.0,0.0,0.0,0.0,0.0,0.0,0.0,0.0,0.0,0.0,0.0,0.0,0.0,0.0,0.0,0.0,0.0,0.0,0.0,0.0,0.0,0.0,0.0,0.0,0.0,0.0,0.0,0.0,0.0,0.0,0.0,0.0,0.0,0.0,0.0,0.0,0.0,0.0,0.0,0.0,0.0,1.5832,1.5524,1.5411,1.5681,1.4773,1.4076,1.3743,1.2117,1.0794,0.9971,0.0,0.0,0.0,0.0,0.0,0.0,0.0,0.0,0.0,0.0,0.0,0.0,0.0,0.0,0.0,0.0,0.0,0.0,0.0,0.0,0.0,0.0,0.0,0.0,0.0,0.0,0.0,0.0,0.0,0.0,0.0,0.0,0.0,0.0,0.0,0.0,0.0,0.0,0.0,0.0,0.0,0.0,0.0,0.0,0.0,0.0,0.0,0.0,0.0,0.0,0.0,0.0,0.0,0.0,0.0,0.0,0.0,0.0,0.0,0.0,1.7187,0.0,0.0,0.0,0.0,0.0,0.0,0.0,0.0,0.0,0.0,0.0,0.0,0.0,0.0,0.0,0.0,0.0,0.0,0.0,0.0,0.0,0.0,0.0,0.0,0.0,0.0,0.0,0.0,0.0,0.0,0.0,0.0,0.0,0.0,0.0,0.0,0.0,0.0,0.0,0.0,0.0,1.6112,1.5134,1.4569,1.5109,1.4021,1.3166,1.2855,1.1628,1.0697,1.0257,0.9364,0.0,0.0,0.0,0.0,0.0,0.0,0.0,0.0,0.0,0.0,0.0,0.0,0.0,0.0,0.0,0.0,0.0,0.0,0.0,0.0,0.0,0.0,0.0,0.0,0.0,0.0,0.0,0.0,0.0,0.0,0.0,0.0,0.0,0.0,0.0,0.0,0.0,0.0,0.0,0.0,0.0,0.0,0.0,0.0,0.0,0.0,0.0,0.0,0.0,0.0,0.0,0.0,0.0,0.0,0.0,0.0,0.0,0.0,0.0,0.0,1.7542,0.0,0.0,0.0,0.0,0.0,0.0,0.0,0.0,0.0,0.0,0.0,0.0,0.0,0.0,0.0,0.0,0.0,0.0,0.0,0.0,0.0,0.0,0.0,0.0,0.0,0.0,0.0,0.0,0.0,0.0,0.0,0.0,0.0,0.0,0.0,0.0,0.0,0.0,0.0,0.0,1.637,1.4789,1.3929,1.4877,1.3431,1.2304,1.2184,1.1038,1.0244,0.9953,0.9282,0.0,0.0,0.0,0.0,0.0,0.0,0.0,0.0,0.0,0.0,0.0,0.0,0.0,0.0,0.0,0.0,0.0,0.0,0.0,0.0,0.0,0.0,0.0,0.0,0.0,0.0,0.0,0.0,0.0,0.0,0.0,0.0,0.0,0.0,0.0,0.0,0.0,0.0,0.0,0.0,0.0,0.0,0.0,0.0,0.0,0.0,0.0,0.0,0.0,0.0,0.0,0.0,0.0,2.0828,2.0989,2.0708,2.1136,2.1069,2.0561,1.9599,1.8718,1.7969,1.7916,0.0,0.0,0.0,0.0,0.0,0.0,0.0,0.0,0.0,0.0,0.0,0.0,0.0,0.0,0.0,0.0,0.0,0.0,0.0,0.0,0.0,0.0,0.0,0.0,1.8233,1.8071,0.0,0.0,0.0,0.0,0.0,0.0,0.0,0.0,0.0,0.0,0.0,0.0,1.6288,1.4336,1.3333,1.4533,1.2779,1.156,1.156,1.0518,0.978,0.9524,0.9187,0.9381,0.0,0.0,0.0,0.0,0.0,0.0,0.0,0.0,0.0,0.0,0.0,0.0,0.0,0.0,0.0,0.0,0.0,0.0,0.0,0.0,0.0,0.0,0.0,0.0,0.0,0.0,0.0,0.0,0.0,0.0,0.0,0.0,1.7535,1.9122,0.0,0.0,0.0,0.0,0.0,0.0,0.0,0.0,0.0,0.0,0.0,0.0,0.0,2.0067,2.0441,2.1456,2.1871,2.171,2.2565,2.2819,2.2512,2.2325,2.2205,2.2124,2.1964,0.0,1.9492,1.9239,0.0,0.0,0.0,0.0,0.0,0.0,0.0,0.0,0.0,0.0,0.0,0.0,0.0,0.0,0.0,0.0,0.0,0.0,0.0,0.0,0.0,0.0,1.8008,1.8237,1.83,1.7943,0.0,1.6263,1.6435,1.6987,1.6011,0.0,0.0,0.0,0.0,0.0,0.0,0.0,1.5442,1.3636,1.2555,1.3226,1.1788,1.0841,1.0841,1.0155,0.9711,0.9659,0.932,0.9045,0.9042,0.9463,0.0,0.0,0.0,0.0,0.0,0.0,0.0,0.0,0.0,0.0,0.0,0.0,0.0,0.0,0.0,0.0,0.0,0.0,0.0,0.0,0.0,0.0,0.0,0.0,0.0,0.0,0.0,0.0,0.0,1.737,1.8985,1.9501,1.984,1.992,0.0,0.0,0.0,0.0,0.0,0.0,0.0,0.0,0.0,2.151,2.1643,2.1937,2.2405,2.2752,2.3033,2.3233,2.3794,2.3995,2.3861,2.3901,2.3821,2.3661,2.3487,2.2899,2.1951,2.0815,2.008,1.9554,0.0,0.0,0.0,0.0,1.8824,1.9199,1.9038,1.9092,0.0,1.8838,0.0,0.0,0.0,0.0,0.0,0.0,0.0,0.0,0.0,0.0,1.8936,1.8132,1.8191,1.7968,1.6471,1.5523,1.5125,0.0,1.5407,1.5175,1.537,0.0,0.0,0.0,0.0,1.3859,1.4832,1.2947,1.1827,1.2605,1.1524,1.065,1.048,1.0006,0.9762,0.9762,0.922,0.8859,0.879,0.8927,0.9028,0.0,0.0,0.0,0.0,0.0,0.0,0.0,0.0,0.0,0.0,0.0,0.0,0.0,0.0,0.0,0.0,0.0,0.0,0.0,0.0,0.0,0.0,0.0,0.0,0.0,0.0,0.0,0.0,1.9073,1.9973,1.9533,2.0321,2.0615,0.0,0.0,0.0,0.0,0.0,0.0,2.1657,2.2231,2.2752,2.3193,2.3354,2.3688,2.4209,2.4222,2.4436,2.4877,2.509,2.5197,2.5197,2.5277,2.5184,2.4957,2.4663,2.4369,2.3981,2.2352,2.1323,2.0722,2.0067,1.9907,2.0,1.9706,1.988,2.0214,2.0,2.0013,2.008,1.9706,1.9581,1.9482,1.877,0.0,0.0,0.0,0.0,1.8642,1.8356,1.8538,1.8506,1.7356,1.7344,1.7212,1.5805,1.4847,1.4261,0.0,1.4779,1.4841,1.4724,0.0,0.0,0.0,0.0,1.299,1.4153,1.2425,1.1453,1.2258,1.1371,1.0709,1.0484,1.005,0.9775,0.9775,0.918,0.8827,0.878,0.8527,0.8358,0.8229,0.0,0.0,0.0,0.0,0.0,0.0,0.0,0.0,0.0,0.0,0.0,0.0,0.0,0.0,0.0,0.0,0.0,0.0,0.0,0.0,0.0,0.0,0.0,0.0,0.0,0.0,0.0,0.0,0.0,1.988,2.1523,0.0,0.0,0.0,0.0,2.2285,2.31,2.3487,2.3233,2.3768,2.4102,2.4128,2.4676,2.5117,2.5424,2.6239,2.6667,2.6694,2.6707,2.6707,2.6694,2.6159,2.5983,2.5879,2.5571,2.5277,2.4917,2.3714,2.2859,2.2298,2.2258,2.2084,2.1817,2.1588,2.1507,2.1521,2.1507,2.1269,2.1082,2.1336,2.0866,2.0015,1.9056,1.8962,0.0,0.0,1.8089,1.7081,1.7228,1.6237,1.5186,1.5383,1.543,1.5159,1.4147,1.4138,1.4512,0.0,1.42,1.3718,1.4607,0.0,1.4787,1.4798,1.3849,1.314,1.3159,1.2173,1.1541,1.1788,1.1351,1.0953,1.0953,1.0259,0.9816,0.9816,0.9425,0.9036,0.8743,0.8593,0.8323,0.8024,0.814,0.0,0.0,0.0,0.0,0.0,0.0,0.0,0.0,0.0,0.0,0.0,0.0,0.0,0.0,0.0,0.0,0.0,0.0,0.0,0.0,0.0,0.0,0.0,0.0,0.0,0.0,0.0,0.0,2.2111,2.338,0.0,2.3434,2.3834,2.4209,2.4396,2.5064,2.5491,2.5571,2.5959,2.6172,2.6172,2.656,2.6907,2.7201,2.7522,2.7669,2.7669,2.7482,2.7281,2.7094,2.6694,2.6507,2.6493,2.6199,2.6012,2.5892,2.5464,2.4609,2.3527,2.3153,2.306,2.3073,2.2646,2.2021,2.137,2.1009,2.0255,1.9586,2.0294,2.0539,2.0194,1.8879,1.8494,1.8302,1.6965,1.6435,1.6281,1.6392,1.6017,1.545,1.4664,1.4503,1.4219,1.3159,1.3068,1.3303,1.3721,1.3379,1.3049,1.3172,1.3064,1.302,1.3154,1.276,1.2482,1.2549,1.2258,1.1934,1.164,1.1455,1.1126,1.059,1.0206,0.9877,0.97,0.9446,0.9211,0.9001,0.8852,0.8635,0.833,0.8378,0.8254,0.0,0.0,0.0,0.0,0.0,0.0,0.0,0.0,0.0,0.0,0.0,0.0,0.0,0.0,0.0,0.0,0.0,0.0,0.0,0.0,0.0,0.0,0.0,0.0,0.0,0.0,2.3915,2.3527,2.4943,2.5732,2.5144,2.5705,2.6199,2.6386,2.7041,2.7428,2.7428,2.7709,2.7776,2.7575,2.7843,2.8096,2.8297,2.839,2.8444,2.8444,2.815,2.7843,2.7549,2.7255,2.7068,2.6961,2.6667,2.6533,2.6533,2.6426,2.5502,2.4055,2.4176,2.4275,2.4302,2.3901,2.2921,2.1533,2.0269,1.9272,1.8598,1.8843,1.9038,1.9061,1.7849,1.7424,1.7078,1.5805,1.5266,1.5096,1.5292,1.4971,1.4377,1.3621,1.3448,1.3228,1.25,1.2482,1.261,1.2836,1.295,1.2952,1.2718,1.2564,1.2548,1.2726,1.2442,1.2296,1.254,1.2418,1.2138,1.1822,1.1511,1.1117,1.0638,1.0233,0.9975,0.9686,0.9585,0.9442,0.9296,0.9137,0.8947,0.8642,0.8533,0.8336,0.7988,0.0,0.0,0.0,0.0,0.0,0.0,0.0,0.0,0.0,0.0,0.0,0.0,0.0,0.0,0.0,0.0,0.0,0.0,0.0,0.0,0.0,0.0,0.0,2.2619,2.4275,2.5157,2.3976,2.6107,2.7226,2.6107,2.7293,2.8217,2.8301,2.9032,2.9272,2.8698,2.8925,2.8804,2.8217,2.8412,2.8486,2.8486,2.8765,2.881,2.8797,2.8592,2.8385,2.8163,2.7772,2.7493,2.72,2.6974,2.676,2.6666,2.6454,2.5289,2.3884,2.5374,2.5721,2.5378,2.5378,2.4087,2.2006,1.9329,1.8492,1.8346,1.7112,1.6688,1.6568,1.6003,1.5667,1.5635,1.5839,1.4692,1.3584,1.3938,1.2933,1.1884,1.2033,1.2074,1.2155,1.2149,1.2373,1.2554,1.2472,1.3054,1.3542,1.3417,1.3376,1.3433,1.3542,1.2968,0.0,1.3059,1.2653,1.2337,1.2328,1.1604,1.1123,1.1116,1.0425,0.9985,0.9829,0.9822,0.9693,0.9415,0.9395,0.9252,0.8905,0.8655,0.8364,0.8022,0.0,0.0,0.0,0.0,0.0,0.0,0.0,0.0,0.0,0.0,0.0,0.0,0.0,0.0,0.0,0.0,0.0,0.0,0.0,0.0,0.0,0.0,2.3267,2.4189,2.5758,2.6316,2.5129,2.5859,2.6425,2.6611,2.713,2.8104,2.9664,3.0181,3.0274,2.99,2.9953,2.918,2.7268,2.7439,2.6852,2.5389,2.5548,2.548,2.5297,2.5057,2.5601,2.6661,2.6388,2.6215,2.6213,2.7088,2.5943,2.3568,2.4738,2.4018,2.2436,2.3884,2.3568,2.2361,2.2178,2.0697,1.8446,1.6155,1.6026,1.6775,1.6304,1.6647,1.6923,1.5547,1.495,1.4448,1.3534,1.2948,1.2507,1.2707,1.2463,1.2176,1.2216,1.2393,1.2592,1.279,1.2915,1.3061,1.3315,1.3447,1.3351,1.2748,1.262,1.2559,1.2605,1.2452,0.0,1.2801,1.2759,1.2626,1.2441,1.2138,1.1672,1.0932,1.0551,1.0232,0.9829,0.9822,0.9836,0.9802,0.9659,0.9456,0.9266,0.9069,0.8982,0.0,0.0,0.0,0.0,0.0,0.0,0.0,0.0,0.0,0.0,0.0,0.0,0.0,0.0,0.0,0.0,0.0,0.0,0.0,0.0,0.0,0.0,2.4093,2.4344,2.5729,2.5756,2.5419,2.4722,2.5025,2.5514,2.5799,2.6155,2.7144,2.9305,2.9666,3.0223,3.0915,3.0795,2.9702,2.7393,2.7429,2.6422,2.4373,2.4362,2.4391,2.4159,2.484,2.5139,2.5247,2.6682,2.6773,2.5928,2.6544,2.5483,2.3306,2.3309,2.207,0.0,0.0,0.0,0.0,0.0,1.8594,1.6986,1.4915,1.4639,1.5169,1.4767,1.5098,1.5368,1.4428,1.3946,1.3578,1.2692,1.2413,1.2366,1.2454,1.2474,1.2488,1.2556,1.2705,1.2886,1.3026,1.3091,1.3169,1.3326,1.3268,0.0,1.26,1.259,1.2629,1.2696,1.2533,1.2522,1.2948,1.278,1.2612,1.2452,1.2157,1.171,1.0998,1.0699,0.0,0.0,0.0,1.0025,0.9984,0.9822,0.0,0.0,0.0,0.9435,0.9435,0.0,0.0,0.0,0.8669,0.8594,0.0,0.0,0.0,0.0,0.0,0.0,0.0,0.0,0.0,0.0,0.0,0.0,0.0,0.0,0.0,0.0,2.5632,2.5595,2.6421,2.4459,2.3013,2.3297,2.3935,2.442,2.4441,2.4631,2.5707,2.8009,2.832,2.9329,3.1675,0.0,0.0,0.0,0.0,2.6099,2.3893,2.3862,2.3852,2.3852,2.5295,2.5143,2.3525,2.6863,2.7332,2.536,2.5278,2.4789,2.374,2.1838,1.9685,1.7828,1.959,2.022,1.9901,1.8094,1.7193,1.6673,1.4743,0.0,0.0,1.3233,1.3024,1.301,1.301,1.2996,1.2956,1.282,1.2766,1.2759,1.2759,1.2759,1.2793,1.2929,1.2976,1.2983,1.2963,1.2976,1.2983,1.2983,1.2861,1.2759,1.2779,1.2929,1.3185,1.3347,1.2978,1.2787,1.3089,1.2735,1.2448,1.2425,0.0,0.0,1.1252,1.0884,1.0622,1.0324,1.0304,1.0236,1.0017,0.9958,0.9951,1.0011,0.9944,0.9863,0.9849,0.9849,0.9836,0.9808,0.9208,0.8966,0.0,0.0,0.0,0.0,0.0,0.0,0.0,0.0,0.0,0.0,0.0,0.0,0.0,0.0,0.0,2.5445,2.4874,2.4109,2.3232,2.1475,2.0853,2.2507,2.2808,2.2952,2.3224,2.3272,2.4882,2.8736,2.7494,2.8206,3.2177,2.8956,2.6758,2.6363,2.4551,2.2299,1.9715,1.9475,1.9206,1.881,0.0,0.0,2.0609,2.131,2.1353,2.096,2.2272,2.0913,1.7902,1.8743,1.768,1.56,1.5979,1.6036,1.5825,1.5044,1.4773,1.466,1.3958,1.3568,1.3452,1.3471,1.3417,1.3315,1.3315,1.3227,0.0,1.3091,1.3003,1.2915,1.2915,1.2915,1.2922,1.2956,1.3051,1.3098,1.2983,1.3051,1.3132,1.3132,1.3017,1.2949,1.3064,1.2773,1.2519,1.2664,1.2409,1.2412,1.2889,1.2724,1.2545,1.2416,1.2166,1.1797,1.1241,1.0968,1.0772,1.0473,1.0453,1.0385,1.0243,1.0317,1.0324,1.0236,1.0209,1.0127,0.9943,0.9943,0.9883,0.9815,0.9585,0.9544,0.0,0.0,0.0,0.0,0.0,0.0,0.0,0.0,0.0,0.0,0.0,2.4289,0.0,0.0,2.6163,2.6402,2.4667,2.3268,2.2907,2.1327,2.0422,2.0951,2.1086,2.1081,2.0975,2.1186,2.2379,2.5057,2.488,2.6501,3.0752,2.7604,2.5824,2.6025,2.3308,2.0777,1.8313,1.8153,1.787,1.7665,1.8379,1.8681,1.868,2.0463,2.0693,1.9762,2.0584,1.9653,1.7551,1.7188,1.6194,1.4958,1.4829,1.4599,1.4422,1.4251,1.4096,1.3985,1.3882,1.3702,1.3526,1.3607,1.3526,1.3403,1.3403,1.3451,1.3659,1.457,1.4135,1.3631,1.4452,1.3963,1.318,1.318,1.3234,1.3268,1.32,1.3234,1.3288,1.3288,1.3227,1.3207,1.3275,1.2976,1.2732,1.2732,1.261,1.2613,1.2922,1.2797,1.2567,1.2484,1.24,1.216,1.1712,1.1409,1.1151,1.0846,1.0826,1.0799,1.0724,1.0717,1.0717,1.0724,1.0649,1.0616,1.0609,1.0609,1.0527,1.0321,1.0247,1.0195,0.0,0.0,0.0,0.0,0.0,0.0,0.0,0.0,2.2317,2.4295,2.517,2.5816,2.6682,2.6475,2.6273,2.6545,2.454,2.2896,2.2947,2.178,2.0661,1.9661,1.9734,1.9743,1.9228,1.9506,2.0405,2.2034,2.2271,2.4569,2.9675,2.63,2.4724,2.5984,2.2599,1.9873,1.7997,1.7872,1.7798,1.766,1.8952,1.8678,1.726,2.0159,2.0629,1.8942,1.8942,1.8744,1.8271,1.6304,1.5316,1.5079,1.4896,1.4604,1.4285,1.4299,1.4122,1.3912,1.4095,1.3946,1.3682,1.377,1.3682,1.3532,1.3532,1.3675,1.4152,1.5961,1.5409,1.4621,1.6029,1.5211,1.3853,1.3527,1.3424,1.3403,1.3403,1.3403,1.3403,1.3403,1.3403,1.3403,1.3403,1.3302,1.318,1.3064,1.2996,1.2969,1.3077,1.2868,1.2718,1.2562,1.2549,1.2427,1.2135,1.183,1.1552,1.1307,1.1267,1.124,1.1206,1.1124,1.1104,1.1227,1.1077,1.105,1.1077,1.1077,1.0989,1.0752,1.0779,1.0683,0.0,0.0,0.0,1.3536,1.6322,1.9319,0.0,0.0,2.6812,2.7883,2.8537,2.8614,2.7267,2.7429,2.6843,2.3977,2.3512,2.3071,2.1397,2.1316,2.0955,2.0012,2.0114,2.0116,2.0116,1.9547,2.0996,2.5281,2.1882,2.3281,3.1834,2.4337,2.1623,2.5528,2.1428,1.8559,1.7547,1.7526,1.7242,1.6701,1.6863,1.671,1.6261,1.6757,1.6673,1.6091,1.6091,1.5994,1.5994,1.5704,1.5594,1.5533,1.5248,1.5106,1.4997,1.4489,1.419,1.4089,1.4367,1.4177,1.3885,1.4285,1.4224,1.3994,1.3994,1.3926,1.4173,1.601,1.6329,1.6181,1.6479,1.6297,1.5675,1.3937,1.3498,1.3403,1.3403,1.3403,1.3403,1.3403,1.3403,1.3403,1.3403,1.339,1.337,1.3356,1.3125,1.301,1.3132,1.3024,1.2874,1.2718,1.2705,1.2583,1.2291,1.1986,1.1789,1.1755,1.164,1.1504,1.1369,1.1477,1.1423,1.1165,1.128,1.1151,1.0772,1.0772,1.0629,1.0358,1.0487,1.0588,1.3348,0.0,0.0,0.0,1.8612,2.1203,2.3641,2.6071,2.803,2.8938,2.8705,2.8215,2.7751,2.6401,2.4859,0.0,2.2678,2.1878,2.111,2.1408,2.1341,2.0443,2.16,2.2132,2.1365,2.1259,2.2419,2.5156,2.2857,2.334,2.8212,2.2363,2.0357,2.3474,2.0069,1.7979,1.7715,1.7452,1.7229,1.7046,1.687,1.668,1.6469,1.6361,1.611,1.5771,1.5859,1.5893,1.5893,1.5893,1.5893,1.5872,1.5655,1.5574,1.5493,1.4808,1.4516,1.4475,1.4604,1.4462,1.4265,1.4448,1.4312,1.4075,1.4075,1.4793,1.6019,1.7801,1.7579,1.6924,1.7984,1.6571,1.4626,1.37,1.3512,1.3512,1.3417,1.3403,1.3403,1.3403,1.3403,1.3403,1.3403,1.3403,1.3403,1.3403,1.3295,1.3241,1.3295,1.3254,1.3193,1.3125,1.2969,1.2813,1.2691,1.2481,1.2318,1.2223,1.2169,1.2067,1.1918,1.1979,1.1864,1.1558,1.1613,1.1511,1.1246,1.1151,1.1002,1.0792,1.0765,1.0744,1.3887,0.0,0.0,1.8394,2.0798,2.3119,2.5986,2.7962,2.9419,3.0074,2.9077,2.7914,2.7669,2.5291,2.3239,2.2798,2.1861,2.1197,2.1197,2.15,2.155,2.1132,2.2496,2.3593,2.3892,2.362,2.3882,2.4962,2.3466,2.3322,2.53,2.1103,1.9633,2.2041,1.9309,1.786,1.7935,1.7602,1.7473,1.7541,1.7283,1.7087,1.6924,1.6585,1.6286,1.6042,1.611,1.6123,1.6083,1.6083,1.6083,1.6069,1.5913,1.5852,1.5784,1.5201,1.4957,1.4923,1.4923,1.4828,1.4699,1.4699,1.4529,1.4312,1.4272,1.5184,1.6609,1.845,1.8009,1.7206,1.8426,1.6743,1.4443,1.3718,1.3607,1.36,1.3485,1.3464,1.3464,1.3464,1.3498,1.3512,1.3471,1.3464,1.3451,1.341,1.3403,1.3403,1.3403,1.3403,1.3403,1.3403,1.3173,1.3097,1.3097,1.2881,1.2732,1.2576,1.2562,1.2481,1.2298,1.2325,1.2127,1.1677,1.1677,1.1584,1.1404,1.1362,1.1285,1.1227,1.1097,1.0941,0.0,0.0,1.6359,1.9962,2.2717,2.5299,2.7874,3.0311,3.1984,3.2024,3.0493,2.8772,2.705,2.4906,2.2866,2.1441,2.1254,2.1384,2.1384,2.1231,2.1375,2.2475,2.2422,2.3944,0.0,2.6435,2.5279,2.5676,2.313,2.2668,2.5198,2.086,1.9417,2.1751,1.953,1.8233,1.8091,1.8077,1.7989,1.7846,1.7704,1.7548,1.7385,1.6937,1.6653,1.649,1.6361,1.6218,1.6083,1.6083,1.6083,1.6069,1.5913,1.5852,1.5832,1.5669,1.552,1.5391,1.5391,1.5289,1.516,1.516,1.5065,1.4916,1.4767,1.4618,1.4909,1.6689,1.7167,1.708,1.7159,1.7028,1.638,1.4482,1.3838,1.3627,1.362,1.362,1.362,1.362,1.3736,1.3783,1.3648,1.362,1.3573,1.3424,1.3403,1.3403,1.3403,1.3403,1.3403,1.3403,1.3261,1.3166,1.3166,1.3037,1.2888,1.2732,1.2725,1.2589,1.2305,1.242,1.2123,1.1463,1.1457,1.1321,1.1044,1.1038,1.1102,1.1165,1.1307,1.1164,0.0,0.0,1.8161,2.2576,2.4619,2.6528,3.0577,3.2142,3.2287,3.0786,2.8812,2.6661,2.4377,2.2498,2.0948,2.0118,2.0387,2.0662,2.0439,2.0523,2.0996,2.221,2.4016,0.0,0.0,0.0,0.0,2.809,2.5719,2.3834,2.3001,2.01,1.8799,1.9583,1.8799,1.8477,1.8531,1.8423,1.8355,1.8301,1.7948,1.767,1.7412,1.7154,1.6856,1.6517,1.6469,1.6368,1.6225,1.6123,1.6083,1.6076,1.6029,1.6884,1.7947,1.644,1.677,1.7659,1.6104,1.5527,1.5677,1.7089,1.6437,1.5379,1.6702,1.6857,1.6618,1.7184,1.7347,1.7299,1.7153,1.6168,1.5073,1.416,1.3919,1.3871,1.3675,1.3627,1.36,1.3498,1.36,1.3654,1.3505,1.3559,1.3573,1.3424,1.3403,1.3403,1.3403,1.3403,1.3403,1.3403,1.3261,1.3254,1.3458,1.3342,1.315,1.2958,1.2964,1.2669,1.2149,1.2086,1.1805,1.1287,1.1183,1.1046,1.0878,1.0699,1.0678,1.0815,1.0777,1.0687,0.0,1.9132,2.1439,2.5825,2.7225,2.8521,3.2507,3.276,3.1741,3.0213,2.7214,2.4276,2.2684,2.0694,1.9214,1.8976,1.9363,2.0062,2.0961,2.0213,2.0928,2.4339,2.5538,2.6743,0.0,0.0,0.0,2.809,2.5638,2.325,2.0842,1.9362,1.862,1.862,1.862,1.8654,1.8762,1.8654,1.8586,1.8531,1.8179,1.7846,1.7494,1.7344,1.7026,1.6598,1.6544,1.6442,1.63,1.6205,1.6622,1.7169,1.7227,1.8137,1.9115,1.7739,1.7677,1.7961,1.6321,1.5791,1.6055,1.7389,1.6765,1.5766,1.6969,1.7025,1.6689,1.6666,1.6628,1.6567,1.6293,1.537,1.4441,1.415,1.4075,1.4021,1.3831,1.3743,1.3675,1.358,1.3641,1.3654,1.3505,1.3519,1.3532,1.3492,1.3485,1.3464,1.341,1.3403,1.3403,1.3403,1.3315,1.3336,1.3532,1.3291,1.3041,1.2914,1.2803,1.2455,1.1852,1.1803,1.1511,1.1035,1.082,1.0664,1.0568,1.0449,1.048,1.0584,1.0602,1.051,2.1235,2.3293,2.5756,2.9395,3.0356,3.1034,3.3663,3.2417,3.0455,3.0153,2.585,2.1955,0.0,0.0,1.7794,1.7981,1.8311,1.9501,2.2436,2.0404,2.1185,0.0,0.0,0.0,0.0,0.0,0.0,2.6089,0.0,2.124,1.8865,1.8762,1.8762,1.8762,1.8762,1.8762,1.8762,1.8762,1.8694,1.8552,1.8389,1.8091,1.7663,1.75,1.7182,1.6761,1.6605,1.6456,1.6529,1.6515,1.7606,1.9347,1.9518,1.9584,1.9592,1.95,1.8202,1.6558,1.6134,1.6076,1.6273,1.6172,1.6066,1.6029,1.5827,1.5629,1.535,1.5065,1.4984,1.4943,1.4794,1.4652,1.4536,1.4516,1.4306,1.4102,1.4075,1.3953,1.3851,1.3844,1.3838,1.3797,1.3675,1.3526,1.3471,1.362,1.3634,1.3573,1.3431,1.3417,1.3417,1.341,1.3417,1.3424,1.3424,1.3008,1.2618,1.2484,1.2185,1.1888,1.1553,1.1649,1.1362,1.0592,1.052,1.0329,1.0093,1.0202,1.0345,1.0528,1.0793,1.0696,2.3874,2.5421,2.7048,2.9617,3.0545,3.14,3.3755,3.2404,3.0143,2.7883,2.4366,2.0996,0.0,0.0,0.0,1.7321,1.797,0.0,1.9403,1.9008,0.0,2.5735,0.0,2.7065,3.0998,2.9121,0.0,0.0,2.5452,2.3313,1.9001,1.8871,1.8884,1.8762,1.8762,1.8762,1.8762,1.8762,1.8796,1.8864,1.8498,1.8199,1.7968,1.7589,1.7297,1.7066,1.6802,1.7586,1.9057,1.8699,1.9858,2.1794,2.1849,2.1867,2.1587,2.0234,1.9306,1.862,1.6888,1.6402,1.6639,1.8036,1.7419,1.6319,1.765,1.6766,1.5371,1.5181,1.5126,1.5092,1.495,1.4964,1.4923,1.459,1.4543,1.4475,1.4143,1.4041,1.398,1.3865,1.3838,1.3865,1.3946,1.3831,1.3743,1.3783,1.3695,1.3614,1.3573,1.3661,1.3688,1.358,1.3661,1.3559,1.3213,1.3134,1.2819,1.2202,1.1977,1.1623,1.1121,1.1053,1.0809,1.0456,1.0147,0.996,0.9899,0.975,0.9785,0.9921,1.0072,1.0052,2.6993,2.8597,3.0238,3.183,3.2378,3.266,3.3669,3.1326,2.8353,2.6211,2.2316,0.0,0.0,0.0,0.0,0.0,0.0,0.0,1.9574,1.9057,2.0706,0.0,2.6459,0.0,2.9279,2.8461,2.6329,0.0,2.3049,2.1954,1.9076,1.8972,1.8959,1.8871,1.8871,1.8871,1.8871,1.8871,1.8871,1.8884,1.8565,1.8853,1.9618,1.9206,1.9417,2.011,0.0,2.0319,2.1523,2.1125,2.165,2.2671,2.2765,2.2204,2.1221,2.0207,1.9308,1.8358,1.7134,1.672,1.6893,1.7778,1.7285,1.6508,1.7403,1.6738,1.5649,1.5364,1.5282,1.5248,1.5099,1.512,1.5106,1.4787,1.4828,1.4828,1.4448,1.4312,1.4183,1.3892,1.3838,1.3912,1.4136,1.4048,1.3966,1.4034,1.3973,1.3871,1.3743,1.3736,1.3743,1.3722,1.379,1.3581,1.3152,1.2981,1.2589,1.1975,1.1703,1.136,1.0927,1.0851,1.0655,1.0313,1.0052,0.9889,0.9835,0.9704,0.9731,0.9905,0.9916,0.9949,3.0144,3.1942,3.3681,3.4456,3.4456,3.4095,3.344,2.9734,2.6103,2.4912,0.0,1.6286,1.5965,1.5455,1.5187,1.5486,0.0,1.7896,2.1132,1.9766,2.1198,2.8843,2.7793,2.6424,2.6644,2.8406,2.6817,2.0099,1.9413,1.9237,1.9203,1.9094,1.904,1.9027,1.9027,1.9006,1.8993,1.8993,1.9138,1.9226,1.9059,2.0063,2.208,2.1715,2.2413,2.4023,2.3624,2.3444,2.3396,2.3086,2.2907,2.2765,2.2816,2.1581,1.9699,1.986,1.87,1.6978,1.6978,1.6978,1.6931,1.6646,1.6639,1.6673,1.6239,1.6096,1.6001,1.5608,1.5486,1.5432,1.5282,1.5276,1.5248,1.5025,1.5092,1.5126,1.4808,1.4638,1.4428,1.4034,1.396,1.4048,1.4312,1.4245,1.4204,1.434,1.4326,1.4211,1.396,1.379,1.3729,1.3831,1.3858,1.3614,1.3092,1.2748,1.2324,1.1727,1.1465,1.1156,1.0954,1.0927,1.071,1.0259,1.0112,0.9981,0.9862,0.9829,0.9938,1.0177,1.0052,1.0063,3.1603,3.2956,3.3841,3.4002,3.4002,3.3734,3.2893,2.9177,0.0,0.0,0.0,1.5883,1.5336,1.4847,1.4964,1.5988,0.0,0.0,0.0,0.0,2.1664,0.0,0.0,0.0,0.0,0.0,0.0,0.0,2.0692,1.9468,1.9217,1.9305,1.9291,1.9169,1.9169,1.9115,1.8993,1.8993,1.9949,2.1725,2.1674,2.2712,2.4836,2.4402,2.422,2.4145,2.3994,0.0,2.3512,2.3313,2.3108,2.3061,2.302,2.1661,1.9868,2.0011,1.8803,1.6978,1.6978,1.6978,1.6951,1.6768,1.6727,1.6686,1.6368,1.6185,1.6062,1.5988,1.5872,1.5744,1.5594,1.5744,1.5764,1.512,1.5174,1.5255,1.4835,1.4719,1.4679,1.4597,1.4584,1.4597,1.4652,1.4638,1.4631,1.4658,1.4455,1.4326,1.4387,1.4163,1.3953,1.3851,1.3953,1.368,1.2811,1.2724,1.2289,1.1417,1.1259,1.1112,1.1074,1.0971,1.0786,1.0503,1.028,1.0112,0.9987,0.9791,0.9824,1.0047,0.9927,0.9932,3.2514,3.3356,3.3921,3.4068,3.3868,3.322,3.1842,0.0,0.0,0.0,0.0,1.7097,1.6577,1.6316,0.0,1.5808,0.0,0.0,0.0,0.0,0.0,0.0,0.0,0.0,0.0,0.0,0.0,0.0,2.2316,2.1035,1.9574,1.9434,1.9393,1.9325,1.9325,1.9257,1.9094,2.0385,2.1541,2.2424,2.3593,2.5375,2.75,2.7043,2.6606,2.617,2.5825,2.4988,2.3729,2.3305,2.2626,2.1689,2.149,2.013,1.8299,1.8477,1.7915,1.6978,1.6978,1.6978,1.6971,1.6897,1.6815,1.6707,1.649,1.632,1.6185,1.6103,1.6029,1.5954,1.5886,1.6035,1.609,1.5655,1.554,1.5425,1.5052,1.4909,1.4835,1.4753,1.474,1.4767,1.4848,1.4862,1.4862,1.4862,1.474,1.459,1.4421,1.4035,1.3693,1.3621,1.368,1.3371,1.2412,1.2384,1.2161,1.1456,1.1313,1.1259,1.1194,1.1014,1.0802,1.0558,1.0324,1.0172,1.0112,0.9938,0.9976,1.021,1.0085,0.9589,3.2641,3.3228,3.3828,3.3988,3.3627,3.2741,3.0993,2.8661,0.0,0.0,0.0,1.7868,1.778,0.0,1.727,0.0,1.9594,0.0,0.0,0.0,0.0,0.0,0.0,0.0,0.0,0.0,0.0,0.0,2.3406,2.2417,1.9786,1.9556,1.9481,1.9481,1.9447,1.9592,2.002,2.1867,2.319,2.4023,2.5959,2.7998,3.0031,2.9591,2.889,2.8047,2.7614,2.5693,2.3084,2.2661,2.1389,1.9558,1.9423,1.8336,1.687,1.7073,1.7114,1.7073,1.7039,1.7026,1.7019,1.6992,1.6876,1.6727,1.6605,1.6449,1.63,1.6239,1.6198,1.6178,1.6178,1.6286,1.6347,1.613,1.5879,1.5608,1.5337,1.5167,1.5031,1.4909,1.4855,1.4875,1.4997,1.5018,1.5018,1.5018,1.4898,1.4644,1.4263,1.3702,1.3222,1.3072,1.3153,1.2904,1.2056,1.209,1.1988,1.1543,1.1543,1.14,1.1275,1.1096,1.0867,1.0601,1.0438,1.0329,1.028,1.0182,1.0073,0.9931,0.9711,0.8777,3.1563,3.2455,3.34,3.316,3.2866,3.2238,3.0768,0.0,0.0,2.2479,1.8828,1.6313,1.7613,0.0,0.0,0.0,0.0,2.2748,0.0,0.0,0.0,0.0,0.0,0.0,0.0,0.0,0.0,2.3824,2.3487,2.2417,1.9786,1.9644,1.9644,1.9644,1.9501,2.0422,2.2488,2.2547,2.4792,2.9059,2.9275,3.0509,3.2646,3.2359,3.0704,2.8058,2.7787,2.5003,0.0,2.0575,1.9238,1.7279,1.7134,1.7029,1.7141,1.7039,1.7161,1.7358,1.7222,1.7175,1.7154,1.7026,1.6876,1.6748,1.6734,1.653,1.6361,1.6619,1.6585,1.6483,1.6483,1.6592,1.6605,1.6185,1.5954,1.5791,1.5628,1.5479,1.5364,1.535,1.5235,1.5147,1.516,1.516,1.516,1.516,1.4679,1.4257,1.4082,1.3374,1.2589,1.2003,1.2318,1.2447,1.2051,1.209,1.1988,1.1543,1.1543,1.14,1.1275,1.1253,1.1074,1.0726,1.0808,1.0742,1.0525,1.0514,0.9779,0.8311,0.8054,0.7054,3.126,3.2403,3.3347,3.3053,3.2358,3.1409,3.0293,0.0,0.0,2.4734,2.2191,2.0375,2.0645,2.0568,2.0414,2.0219,2.2645,0.0,2.3968,0.0,0.0,0.0,0.0,0.0,0.0,0.0,0.0,2.8395,2.5292,2.3671,2.4043,2.2717,2.1895,2.1797,2.1714,2.2734,2.4881,2.6307,2.7897,2.9739,3.1218,3.2314,3.2978,3.1247,2.8858,2.6012,2.4296,2.1614,0.0,1.8364,1.786,1.7114,1.7141,1.7168,1.7209,1.7338,1.7399,1.7412,1.7351,1.7331,1.7304,1.7154,1.7005,1.6856,1.6666,1.6469,1.6334,1.6449,1.6503,1.6524,1.6524,1.6632,1.6659,1.63,1.6239,1.6144,1.573,1.5594,1.552,1.5432,1.5289,1.5181,1.5181,1.5181,1.5181,1.5181,1.4665,1.4293,1.4158,1.3253,1.2396,1.2038,1.205,1.1864,1.1407,1.1499,1.161,1.1434,1.1346,1.1324,1.1275,1.1134,1.096,1.0742,1.0715,1.065,1.0639,1.0639,0.9727,0.7995,0.7983,0.638,3.0751,3.2077,3.3187,3.2812,3.1971,3.0956,0.0,0.0,2.687,2.5738,2.3932,2.2546,2.2826,2.2826,2.246,2.1525,2.4246,2.5635,2.3602,0.0,0.0,0.0,0.0,0.0,0.0,0.0,3.2926,3.1149,2.7702,2.5942,2.6796,2.5925,2.4969,2.4011,2.3944,2.4925,2.7102,2.8864,3.0013,3.0544,3.2343,3.305,3.2845,3.0184,2.7404,2.4621,2.2006,1.9478,0.0,1.7019,1.7039,1.7148,1.7297,1.7317,1.729,1.7555,1.7609,1.7548,1.75,1.746,1.7399,1.7243,1.71,1.6931,1.6666,1.6456,1.6307,1.6307,1.6415,1.653,1.6578,1.6632,1.6619,1.6368,1.6388,1.6334,1.5866,1.5737,1.5655,1.5506,1.5357,1.5235,1.5187,1.5087,1.4993,1.4993,1.4429,1.3908,1.3777,1.2821,1.2187,1.2056,1.1823,1.1463,1.1031,1.121,1.1324,1.1324,1.1324,1.1297,1.1226,1.1096,1.0933,1.0742,1.0759,1.0732,1.0661,1.0732,0.9873,0.7958,0.7547,0.5341,2.9828,3.1417,3.2839,3.2251,3.1664,3.081,0.0,0.0,2.5337,2.4218,2.2212,2.1175,2.3084,2.2998,2.319,2.4662,2.5408,2.6303,2.7526,2.8282,0.0,0.0,0.0,0.0,0.0,0.0,3.0677,3.0677,3.0666,0.0,2.6696,2.8695,2.8707,2.6154,2.5957,2.6896,2.9149,2.9036,3.0131,3.2592,3.2592,3.2592,3.247,2.9747,2.7104,2.4611,2.1877,1.9317,0.0,1.6978,1.6978,1.6998,1.7141,1.729,1.7439,1.7595,1.7738,1.7846,1.7704,1.7548,1.7399,1.7243,1.71,1.6951,1.6795,1.6544,1.6307,1.6307,1.6415,1.6558,1.6707,1.6632,1.649,1.6341,1.6313,1.6273,1.611,1.5961,1.5811,1.5662,1.5513,1.5357,1.5208,1.4805,1.4422,1.4422,1.3582,1.2881,1.2749,1.2166,1.177,1.1645,1.1417,1.127,1.127,1.1384,1.1543,1.1543,1.1543,1.1346,1.1112,1.121,1.1101,1.0742,1.1085,1.115,1.0916,1.115,1.0214,0.8136,0.6365,0.3566,2.9559,3.0583,3.1396,3.1009,3.0314,2.9571,2.9203,0.0,2.6078,2.5921,2.4811,2.4041,2.4652,2.4652,2.4773,2.548,2.6037,2.6532,0.0,0.0,0.0,0.0,0.0,0.0,0.0,0.0,3.1815,3.3792,3.1929,3.1025,3.1744,3.2137,3.1206,2.8585,2.8111,2.9014,3.1235,3.0979,3.1377,3.2326,3.2326,3.1448,2.9736,2.728,2.4561,2.1895,1.9463,1.7896,1.7127,1.7127,1.7127,1.7127,1.7175,1.7222,1.7297,1.7555,1.7684,1.7704,1.7663,1.7616,1.7534,1.7277,1.7161,1.708,1.6829,1.6612,1.6435,1.6334,1.6266,1.6279,1.653,1.6483,1.6368,1.632,1.6381,1.6388,1.6137,1.6042,1.5967,1.5818,1.5292,1.4947,1.4904,1.4374,1.3996,1.4083,1.3358,1.291,1.287,1.2289,1.1917,1.1879,1.1737,1.1542,1.1291,1.1308,1.133,1.133,1.133,1.1264,1.1107,1.1058,1.0976,1.0862,1.0971,1.1074,1.1161,1.1237,1.0334,0.8321,0.3862,0.1799,0.0,2.962,3.0394,3.01,2.9526,0.0,0.0,0.0,2.6452,2.6563,2.6029,2.5568,2.5665,2.569,2.5738,2.5909,2.6052,0.0,0.0,0.0,0.0,0.0,0.0,0.0,0.0,3.3372,3.3207,3.4936,3.3036,3.2413,3.3883,3.3268,3.2242,3.0577,3.0274,3.0722,3.1891,3.1843,3.1891,3.2048,3.194,3.0607,2.8285,2.5731,2.3205,2.0564,1.8294,1.7229,0.0,1.7134,1.7148,1.7195,1.7195,1.7195,1.7229,1.7534,1.7609,1.7568,1.7629,1.7575,1.7446,1.7256,1.7154,1.7066,1.6822,1.6605,1.6422,1.6334,1.6198,1.6137,1.6381,1.6334,1.6225,1.6225,1.6293,1.6286,1.6049,1.5943,1.5718,1.5518,1.4984,1.4526,1.4461,1.3945,1.3555,1.3591,1.3049,1.2695,1.265,1.2251,1.2009,1.2053,1.1917,1.1743,1.1558,1.146,1.1411,1.1411,1.1368,1.127,1.1112,1.1031,1.0965,1.0922,1.0965,1.1079,1.127,1.0564,0.8908,0.6375,0.2692,0.1298,0.0,0.0,0.0,0.0,0.0,0.0,0.0,0.0,0.0,2.6186,2.5952,2.5781,2.6054,2.6103,2.6188,2.6213,0.0,0.0,0.0,2.7775,0.0,0.0,0.0,0.0,3.3762,3.4281,3.4607,3.4607,3.4088,3.3666,3.34,3.2628,3.2205,3.2205,3.2181,3.1916,3.1397,3.1626,3.164,3.1533,3.127,2.9848,2.7473,2.4921,2.2529,0.0,1.7987,1.7073,1.7195,1.7066,1.7093,1.7222,1.7202,1.7195,1.7229,1.7514,1.7528,1.7426,1.7568,1.7433,1.7188,1.7182,1.7087,1.6951,1.6795,1.6551,1.632,1.6313,1.6198,1.6117,1.6259,1.6191,1.6083,1.6083,1.6083,1.6042,1.59,1.548,1.5103,1.4853,1.4507,1.4152,1.4043,1.3612,1.3171,1.3068,1.2656,1.2314,1.2199,1.208,1.2047,1.2161,1.1976,1.1797,1.1817,1.17,1.1645,1.1634,1.152,1.1351,1.1112,1.1096,1.095,1.0752,1.0704,1.082,1.093,0.8987,0.6289,0.3134,0.2721,0.1662,0.0,0.0,0.0,0.0,0.0,0.0,0.0,0.0,0.0,0.0,0.0,2.6201,2.6139,2.6358,2.6689,0.0,0.0,0.0,2.7879,0.0,0.0,0.0,3.3074,3.3895,3.4088,3.4571,3.4873,3.4873,3.4209,3.3762,3.369,3.2748,3.2205,3.2205,3.2,3.1735,3.1397,3.1252,3.0329,2.8623,2.8557,2.6419,2.2372,2.1749,2.0167,1.7868,1.7319,1.7229,1.7365,1.7331,1.7405,1.7521,1.7283,1.7195,1.7202,1.727,1.7277,1.7249,1.729,1.7249,1.7175,1.7066,1.7005,1.6951,1.6795,1.6619,1.6449,1.6341,1.6198,1.609,1.6123,1.611,1.6083,1.6083,1.5778,1.5472,1.5433,1.5055,1.4688,1.4731,1.4205,1.3743,1.3907,1.3203,1.2748,1.2808,1.2568,1.2346,1.2314,1.2205,1.214,1.2167,1.2123,1.1469,0.9954,1.1026,1.1737,1.1639,1.152,1.1351,1.1112,1.1014,1.0264,0.8871,0.7645,0.6966,0.704,0.5083,0.4465,0.501,0.2034,0.1238,0.0,0.0,0.0,0.0,0.0,0.0,0.0,0.0,0.0,0.0,0.0,2.6466,2.6453,2.6714,0.0,0.0,2.7448,0.0,0.0,0.0,0.0,0.0,3.3569,3.4149,0.0,3.4704,3.474,3.4607,3.3859,3.3437,3.3437,3.2519,3.2024,3.2024,3.1879,3.1674,3.1397,3.0283,2.9101,2.7919,2.6629,2.4156,2.0775,2.0612,1.9241,1.6985,1.7127,1.7277,1.7419,1.7419,1.7507,1.7616,1.7311,1.7195,1.7195,1.7195,1.7154,1.7107,1.7168,1.7148,1.708,1.669,1.6558,1.6538,1.6145,1.5918,1.5969,1.6266,1.6252,1.6171,1.6096,1.5884,1.5678,1.5678,1.528,1.4962,1.48,1.444,1.4183,1.4195,1.3638,1.3228,1.3463,1.3024,1.27,1.2705,1.2596,1.2477,1.2368,1.2297,1.2232,1.2178,1.1311,1.0307,0.9156,0.9183,0.9128,0.904,0.8853,0.8773,0.8511,0.8486,0.7945,0.6963,0.6115,0.5314,0.4387,0.3404,0.2956,0.3046,0.0981,0.0535,0.0,0.0,0.0,0.0,0.0,0.0,0.0,0.0,0.0,0.0,0.0,0.0,0.0,2.7161,0.0,0.0,0.0,0.0,2.977,3.0576,3.1662,3.3304,3.3593,0.0,3.4607,3.4535,3.4342,3.4088,3.334,3.2917,3.2917,3.2217,3.1605,3.132,3.1284,3.0929,3.0376,2.8834,2.7824,2.7104,2.4692,2.2398,2.03,1.9901,1.8738,1.6985,0.0,0.0,1.7419,1.7399,1.7487,1.7616,1.7311,1.7195,1.7188,1.7168,1.7087,1.6998,1.7008,1.6974,1.6768,1.6131,1.6026,1.5815,1.5072,1.468,1.4648,1.501,1.5525,1.5971,1.5917,1.5479,1.518,1.518,1.4775,1.4352,1.4267,1.3942,1.3595,1.3527,1.3168,1.2922,1.2939,1.2912,1.2752,1.2347,1.2217,1.204,1.1559,1.1407,1.1357,1.1277,0.9724,0.8516,0.8228,0.6618,0.5413,0.4995,0.5479,0.5607,0.5461,0.5227,0.5058,0.5033,0.4901,0.4067,0.2419,0.2419,0.1614,0.0,0.0,0.0,2.5317,2.5905,2.6333,2.6079,0.0,0.0,0.0,0.0,0.0,0.0,0.0,0.0,0.0,2.7602,2.8039,0.0,0.0,3.0188,0.0,0.0,3.1529,3.2048,0.0,3.3147,3.328,3.3666,3.3799,3.3509,3.2978,3.2652,3.2652,3.2109,3.1034,2.9249,2.8954,2.7854,2.587,2.7311,2.6058,2.2066,2.1509,1.9972,1.7566,1.7517,1.7293,1.6985,0.0,1.7168,1.7412,1.7283,1.7392,1.7616,1.7311,1.7195,1.7175,1.706,1.6998,1.688,1.6472,1.6255,1.6131,1.5599,1.5388,1.5072,1.3053,1.2405,1.194,1.0036,1.2164,1.4956,1.4813,1.4676,1.4576,1.4576,1.4183,1.3813,1.3894,1.3531,1.3198,1.3379,1.3269,1.3075,1.3167,1.302,1.2274,1.0445,1.0076,0.9324,0.7517,0.7116,0.706,0.7009,0.677,0.5817,0.405,0.3699,0.2697,0.1059,0.3905,0.5636,0.54,0.3909,0.3157,0.3125,0.1653,0.0704,0.0449,0.0449,0.0269,0.0,0.0,0.0,2.497,2.5464,2.5959,2.6146,2.6613,0.0,0.0,0.0,0.0,0.0,0.0,0.0,0.0,0.0,2.8679,2.9562,0.0,3.0491,3.1072,3.1005,3.1276,0.0,0.0,3.2881,3.3171,3.34,3.34,3.2978,3.2592,3.1818,3.0596,3.0134,2.8899,2.6711,2.6391,2.5194,2.2826,2.3713,2.3143,2.1108,1.957,1.8258,1.7216,1.7053,1.6978,1.6985,0.0,1.7216,1.7412,1.7344,1.7446,1.7616,1.7311,1.7195,1.6962,1.532,1.3675,1.2405,1.2088,1.2837,1.3691,1.3158,1.2948,1.2736,1.1359,1.0086,0.9115,0.9244,1.0203,1.1451,1.2572,1.2653,1.2658,1.3981,1.384,1.3424,1.3536,1.3261,1.302,1.32,1.2216,1.1241,1.1288,1.0193,0.9023,0.811,0.7848,0.7489,0.6459,0.621,0.6172,0.6069,0.5071,0.4012,0.3078,0.2053,0.0963,0.0095,0.1658,0.2588,0.2524,0.1712,0.1283,0.1216,0.0435,0.0,0.0,0.0,0.0,0.0,0.0,0.0,2.489,2.5317,2.5838,2.6281,0.0,0.0,0.0,0.0,0.0,0.0,0.0,0.0,0.0,2.8582,0.0,2.9879,3.0289,3.061,3.1163,3.101,3.1288,3.2374,3.2495,3.2688,3.3147,3.3147,3.2708,3.1742,3.1471,3.0225,2.7912,2.7636,2.6431,2.4,2.3844,2.2669,2.0271,2.0012,2.0067,2.0303,1.8174,1.7202,1.7311,1.7087,1.6978,1.6985,1.6988,1.7016,1.715,1.7009,1.6975,1.708,1.6275,1.5636,1.4874,1.2535,1.0391,0.8487,0.8382,0.9443,1.0822,1.0192,0.998,0.9874,0.8921,0.7438,0.6369,0.8012,0.778,0.7856,1.0978,1.1559,1.1652,1.3405,1.344,1.3102,1.3216,1.269,1.2302,1.2339,1.0577,0.9008,0.9008,0.7563,0.6221,0.5699,0.5664,0.5423,0.4888,0.4776,0.4759,0.4636,0.3255,0.2274,0.2286,0.0882,0.0,0.0,0.0,0.0,0.0,0.0,0.0,0.0,0.0,0.0,0.0,0.0,0.0,0.0,0.0,0.0,2.5638,2.6092,2.632,2.6226,2.608,0.0,2.7779,2.7615,0.0,2.8422,0.0,0.0,0.0,2.9128,2.97,2.9504,3.0668,3.1708,3.1768,0.0,3.1843,3.2181,3.2229,3.2338,3.2628,3.2423,3.1374,2.912,2.8674,2.7573,2.518,2.5052,2.3873,2.1433,2.1308,2.0147,1.7648,1.7628,1.7559,1.7449,1.7179,1.7005,1.7012,1.6992,1.6978,1.6985,1.6459,1.6333,1.6463,1.5686,1.5499,1.5396,1.3116,1.0936,0.913,0.8911,0.8699,0.8382,0.7852,0.7746,0.7855,0.7226,0.7122,0.6698,0.4573,0.3723,0.3723,0.3826,0.3826,0.5184,1.1423,1.2952,1.2979,1.308,1.3176,1.3102,1.3216,1.1573,1.0277,1.0345,0.8466,0.6822,0.6822,0.657,0.5699,0.3739,0.343,0.2722,0.0706,0.05,0.0499,0.0403,0.0302,0.0201,0.0199,0.0099,0.0,0.0,0.0,0.0,0.0,0.0,0.0,0.0,0.0,0.0,0.0,0.0,0.0,0.0,0.0,0.0,2.5037,2.5381,2.5754,2.6159,2.5831,0.0,0.0,2.8155,2.8286,2.9318,2.9697,0.0,0.0,0.0,3.0234,3.0141,3.0963,3.1583,3.1759,3.1807,3.1904,3.2169,3.2205,3.2242,3.2338,3.2254,3.1067,2.8575,2.8252,2.6521,2.2634,2.241,2.1309,1.8899,1.8689,1.8181,1.7277,1.7188,1.7121,1.706,1.7093,1.7114,1.7107,1.7019,1.6768,1.6446,1.6236,1.6003,1.5692,1.3952,1.3227,1.3103,1.075,0.8173,0.5841,0.5841,0.4676,0.319,0.2977,0.3814,0.4954,0.4746,0.464,0.4535,0.3693,0.2437,0.1917,0.468,0.553,0.6361,1.0257,1.1239,1.1508,1.2882,1.3178,1.2774,1.1475,1.0505,0.9455,0.8173,0.611,0.4451,0.4451,0.3306,0.2163,0.1335,0.122,0.0908,0.0101,0.0,0.0,0.0,0.0,0.0,0.0,0.0,0.0,0.0,0.0,0.0,0.0,0.0,0.0,0.0,0.0,0.0,0.0,0.0,0.0,0.0,0.0,0.0,2.4772,2.4943,2.5217,2.5651,0.0,0.0,2.7808,2.8297,2.8654,2.9919,3.0028,0.0,0.0,0.0,0.0,0.0,3.0865,3.1336,3.1529,3.1553,3.1614,3.1795,3.1819,3.1605,3.0833,3.0833,2.9388,2.6048,2.5815,2.4042,1.9976,1.9754,1.8989,1.7351,1.7249,1.7168,1.7127,1.7032,1.6978,1.6985,1.6869,1.6909,1.7121,1.6808,1.6453,1.6131,1.571,1.5021,1.3918,1.2127,1.0542,0.9203,0.7553,0.5205,0.2872,0.2872,0.1703,0.0,0.0,0.1057,0.2311,0.2304,0.2306,0.2417,0.315,0.1797,0.0959,0.553,0.6261,0.6233,0.8375,0.9504,1.022,1.0978,1.1143,1.071,0.9269,0.8304,0.7352,0.584,0.3704,0.2167,0.2167,0.093,0.0,0.0,0.0,0.0,0.0,0.0,0.0,0.0,0.0,0.0,0.0,0.0,0.0,0.0,0.0,0.0,0.0,0.0,0.0,0.0,0.0,0.0,0.0,0.0,0.0,0.0,0.0,0.0,2.5153,2.4997,2.4667,2.4752,0.0,0.0,2.7541,2.7824,2.8355,3.0226,2.9562,2.8886,2.9658,0.0,0.0,2.967,3.0467,3.0998,3.0998,3.0998,3.0998,3.0998,3.0998,3.0141,2.7911,2.7701,2.5797,2.1234,2.0914,1.9861,1.752,1.7419,1.7344,1.7195,1.7188,1.7121,1.6985,1.6978,1.6978,1.6978,1.6341,1.6446,1.6978,1.6341,1.6131,1.6026,1.4874,1.3063,1.0936,1.0407,0.7438,0.3404,0.3404,0.2023,0.0,0.0,0.0,0.0,0.0,0.0,0.0,0.0,0.0,0.0421,0.2731,0.1797,0.0958,0.5528,0.5178,0.3876,0.6016,0.8276,0.9415,0.7138,0.6575,0.6633,0.6531,0.49,0.338,0.3411,0.1543,0.0,0.0,0.0,0.0,0.0,0.0,0.0,0.0,0.0,0.0,0.0,0.0,0.0,0.0,0.0,0.0,0.0,0.0,0.0,0.0,0.0,0.0,0.0,0.0,0.0,0.0,0.0,0.0,0.0,0.0,0.0,2.4022,2.4238,2.4522,2.4709,0.0,0.0,0.0,2.8379,0.0,0.0,3.0552,3.0033,3.0081,0.0,0.0,2.9791,3.0322,3.0781,3.0974,3.0998,3.0998,3.0998,2.9608,2.8446,2.7806,2.6324,2.4049,2.0963,2.0743,1.9742,1.722,1.7114,1.7087,1.7046,1.7046,1.7026,1.6978,1.6978,1.6768,1.6341,1.6132,1.6139,1.6341,1.5815,1.4434,1.2525,1.2209,1.0513,0.7862,0.6165,0.3723,0.0959,0.0959,0.0639,0.0,0.0,0.0,0.0,0.0,0.0,0.0,0.0,0.0,0.0103,0.0826,0.0522,0.0634,0.3583,0.3892,0.3567,0.4185,0.4866,0.5526,0.6301,0.6512,0.6114,0.456,0.3745,0.2938,0.1322,0.0508,0.0,0.0,0.0,0.0,0.0,0.0,0.0,0.0,0.0,0.0,0.0,0.0,0.0,0.0,0.0,0.0,0.0,0.0,0.0,0.0,0.0,0.0,0.0,0.0,0.0,0.0,0.0,0.0,0.0,0.0,0.0,2.4158,2.438,2.4784,2.5383,2.6248,2.728,2.8548,0.0,0.0,0.0,0.0,3.0467,3.0515,3.0177,0.0,2.9948,3.0238,3.0503,3.066,3.0684,3.0684,3.0684,2.8687,2.7004,2.6161,2.407,2.1828,1.9422,1.9204,1.8535,1.709,1.6978,1.6978,1.6978,1.6708,1.6576,1.6576,1.6308,1.597,1.5651,1.5355,1.4837,1.407,1.3703,1.2585,1.0932,0.8886,0.6988,0.5315,0.2969,0.1272,0.0,0.0,0.0,0.0,0.0,0.0,0.0,0.0,0.0,0.0,0.0,0.0,0.0205,0.1126,0.0724,0.0523,0.2716,0.2709,0.2079,0.2079,0.2056,0.2337,0.3547,0.3957,0.3552,0.2221,0.2018,0.1614,0.0303,0.0,0.0,0.0,0.0,0.0,0.0,0.0,0.0,0.0,0.0,0.0,0.0,0.0,0.0,0.0,0.0,0.0,0.0,0.0,0.0,0.0,0.0,0.0,0.0,0.0,0.0,0.0,0.0,0.0,0.0,0.0,0.0,2.4911,2.5068,2.524,2.6351,2.7087,0.0,2.9489,3.0419,3.1034,3.1264,0.0,3.0419,3.0877,3.0153,2.9634,3.0105,3.0202,3.0202,3.0177,3.0177,3.0177,3.0177,2.7986,2.5799,2.3736,2.138,1.9126,1.7168,1.6971,1.6978,1.6958,1.6971,1.6965,1.6839,1.6295,1.6015,1.5899,1.5243,1.4765,1.456,1.403,1.2585,1.0531,1.0739,1.0626,1.007,0.5153,0.3055,0.297,0.0843,0.0,0.0,0.0,0.0,0.0,0.0,0.0,0.0,0.0,0.0,0.0,0.0,0.0,0.0409,0.245,0.1645,0.0415,0.2484,0.1647,0.0,0.0,0.0,0.0,0.0,0.0,0.0,0.0,0.0,0.0,0.0,0.0,0.0,0.0,0.0,0.0,0.0,0.0,0.0,0.0,0.0,0.0,0.0,0.0,0.0,0.0,0.0,0.0,0.0,0.0,-0.0096,-0.0283,-0.0277,-0.0274,-0.0273,-0.0464,-0.0561,-0.0556,-0.0561,-0.0558,-0.0547,-0.0547,-0.045,2.4065,2.4673,2.5506,2.6146,2.7498,2.8922,2.99,3.0419,3.0708,3.0769,3.0805,3.0805,3.0708,3.0334,3.0008,2.99,3.0069,3.0141,2.9924,2.9888,2.9888,2.9888,2.6343,2.3601,2.3197,1.9687,1.7307,1.6802,1.691,1.6931,1.6809,1.6917,1.6661,1.6021,1.5983,1.5763,1.5134,1.4896,1.3808,1.1764,1.1474,1.0054,0.7779,0.9469,0.8291,0.4837,0.1983,0.0729,0.073,0.0208,0.0,0.0,0.0,0.0,0.0,0.0,0.0,0.0,0.0,0.0,0.0,0.0,0.0,0.0101,0.0607,0.0408,0.0103,0.0616,0.041,0.0,0.0,0.0,0.0,0.0,0.0,0.0,0.0,0.0,0.0,0.0,0.0,0.0,0.0,0.0,0.0,0.0,0.0,0.0,0.0,0.0,0.0,0.0,0.0,0.0,0.0,0.0,0.0,0.0,0.0,-0.0681,-0.2306,-0.2339,-0.2287,-0.225,-0.3852,-0.4627,-0.4619,-0.4666,-0.464,-0.4639,-0.4639,-0.3761,2.4178,2.4999,2.6061,2.7111,0.0,2.9501,2.9912,3.0322,3.0576,3.0443,3.0733,3.0914,3.066,3.0491,3.0274,2.9864,2.9924,2.9912,2.9646,2.961,2.92,2.8192,2.505,2.2562,2.1563,1.8515,1.6639,1.6639,1.6714,1.6624,1.6234,1.6306,1.6041,1.531,1.5037,1.4672,1.4297,1.3907,1.2545,1.0201,1.0054,0.8282,0.5143,0.6293,0.5005,0.167,0.0518,0.0,0.0,0.0,0.0,0.0,0.0,0.0,0.0,0.0,0.0,0.0,0.0,0.0,0.0,0.0,0.0,0.0,0.0,0.0,0.0,0.0,0.0,0.0,0.0,0.0,0.0,0.0,0.0,0.0,0.0,0.0,0.0,0.0,0.0,0.0,0.0,0.0,0.0,0.0,0.0,0.0,0.0,0.0,0.0,0.0,-0.0908,-0.1513,-0.1513,-0.2521,-0.3024,-0.3024,-0.3084,-0.3536,-0.457,-0.5554,-0.553,-0.4365,-0.5469,-0.5978,-0.5858,-0.5861,-0.5924,-0.5861,-0.5922,-0.5303,2.4407,2.5373,2.6653,2.8174,2.9103,0.0,2.9719,3.0081,3.0334,3.0117,3.0527,3.0853,3.0588,3.0503,3.031,2.9803,2.9767,2.967,2.932,2.9049,2.8148,2.6321,2.3909,2.1595,1.9766,1.7697,1.6408,1.6408,1.6429,1.6232,1.5602,1.5621,1.5246,1.4556,1.386,1.3551,1.3436,1.231,1.0816,0.8982,0.8203,0.5987,0.268,0.2742,0.1748,0.0,0.0,0.0,0.0,0.0,0.0,0.0,0.0,0.0,0.0,0.0,0.0,0.0,0.0,0.0,0.0,0.0,0.0,0.0,0.0,0.0,0.0,0.0,0.0,0.0,0.0,0.0,0.0,0.0,0.0,0.0,0.0,0.0,0.0,0.0,0.0,0.0,0.0,0.0,0.0,0.0,-0.0303,-0.0505,-0.0505,-0.0908,-0.111,-0.111,-0.2723,-0.3729,-0.3729,-0.5336,-0.6439,-0.6439,-0.6398,-0.6541,-0.6872,-0.8634,-0.868,-0.7055,-0.7071,-0.7096,-0.6933,-0.6969,-0.6934,-0.6921,-0.6955,-0.67,2.3816,2.524,2.6846,2.798,2.8693,2.9175,0.0,0.0,2.955,0.0,3.0117,3.0576,3.0322,3.0069,2.9803,2.9501,2.9646,2.955,2.8825,2.7524,2.6354,2.5538,2.1966,1.9378,1.8939,1.7125,1.594,1.594,1.6069,1.5884,1.5256,1.5267,1.4768,1.333,1.3388,1.3183,1.2593,1.054,0.8633,0.6671,0.3001,0.0974,0.0393,0.0494,0.0298,0.0,0.0,0.0,0.0,0.0,0.0,0.0,0.0,0.0,0.0,0.0,0.0,0.0,0.0,0.0,0.0,0.0,0.0,0.0,0.0,0.0,0.0,0.0,0.0,0.0,0.0,0.0,0.0,0.0,0.0,0.0,0.0,0.0,0.0,0.0,0.0,0.0,0.0,0.0,0.0,0.0,-0.1614,-0.2723,-0.2723,-0.4432,-0.5537,-0.5537,-0.5839,-0.5939,-0.5939,-0.6241,-0.6439,-0.6439,-0.6433,-0.7202,-0.9024,-0.9316,-1.0064,-1.137,-1.139,-1.135,-1.1144,-1.1222,-1.1166,-1.0988,-1.0972,-1.003,2.4251,2.5446,2.6653,2.7715,2.8391,2.8862,2.9127,2.9296,2.9405,2.9405,2.9682,2.99,2.9779,2.9779,2.9707,2.9441,2.9501,2.895,2.7232,2.6241,2.4743,2.2011,2.0045,1.8391,1.7173,1.6271,1.5737,1.5737,1.5798,1.5413,1.4561,1.4542,1.3934,1.264,1.255,1.182,1.0545,0.9464,0.7422,0.4428,0.1423,0.0,0.0,0.0,0.0,0.0,0.0,0.0,0.0,0.0,0.0,0.0,0.0,0.0,0.0,0.0,0.0,0.0,0.0,0.0,0.0,0.0,0.0,0.0,0.0,0.0,0.0,0.0,0.0,0.0,0.0,0.0,0.0,0.0,0.0,0.0,0.0,0.0,0.0,0.0,0.0,0.0,0.0,0.0,0.0,0.0,-0.1816,-0.3227,-0.3227,-0.5034,-0.6439,-0.6439,-0.7546,-0.8249,-0.8249,-0.9356,-1.0062,-1.0062,-1.0062,-1.0445,-1.141,-1.1405,-1.1708,-1.2477,-1.2341,-1.2178,-1.1987,-1.1922,-1.1868,-1.1819,-1.1748,-1.1167,2.4226,2.512,2.5977,2.7039,2.7763,2.8318,0.0,0.0,2.9019,0.0,2.9043,2.9019,2.9091,2.9429,2.9634,2.9441,2.8998,2.7922,2.5939,2.4552,2.249,1.9125,1.824,1.7275,1.5623,1.552,1.552,1.552,1.5328,1.4943,1.4078,1.3269,1.2667,1.2085,1.0951,0.9839,0.8919,0.7867,0.5582,0.2211,0.0746,0.0,0.0,0.0,0.0,0.0,0.0,0.0,0.0,0.0,0.0,0.0,0.0,0.0,0.0,0.0,0.0,0.0,0.0,0.0,0.0,0.0,0.0,0.0,0.0,0.0,0.0,0.0,0.0,0.0,0.0,0.0,0.0,0.0,0.0,0.0,0.0,0.0,0.0,0.0,-0.0403,-0.0807,-0.0805,-0.131,-0.1616,-0.172,-0.3534,-0.4843,-0.4969,-0.6777,-0.8079,-0.8079,-0.9593,-1.0594,-1.0567,-1.1979,-1.289,-1.289,-1.289,-1.289,-1.289,-1.289,-1.283,-1.2705,-1.2531,-1.2341,-1.2129,-1.2042,-1.1971,-1.1906,-1.1781,-1.1645,2.3072,2.3731,2.4601,2.5663,2.6532,2.7317,0.0,0.0,2.7968,2.821,2.8065,2.7968,2.8222,2.8898,2.9417,2.9405,2.7798,2.6222,2.5637,2.2144,1.9411,1.8501,1.6744,1.5459,1.5221,1.5208,1.5208,1.5208,1.4731,1.426,1.3706,1.1403,1.064,1.1749,0.8141,0.7003,0.882,0.5144,0.2208,0.0183,0.0092,0.0,0.0,0.0,0.0,0.0,0.0,0.0,0.0,0.0,0.0,0.0,0.0,0.0,0.0,0.0,0.0,0.0,0.0,0.0,0.0,0.0,0.0,0.0,0.0,0.0,0.0,0.0,0.0,0.0,0.0,0.0,0.0,0.0,0.0,0.0,0.0,0.0,0.0,0.0,-0.1595,-0.3016,-0.2989,-0.4706,-0.6158,-0.6213,-0.7995,-0.9419,-0.9589,-1.1487,-1.2754,-1.2754,-1.2856,-1.2914,-1.2695,-1.2884,-1.289,-1.289,-1.289,-1.289,-1.289,-1.289,-1.283,-1.2705,-1.2694,-1.2629,-1.2509,-1.2504,-1.2379,-1.215,-1.2025,-1.1846,0.0,2.3502,2.4154,2.4878,2.5784,2.6629,2.7087,2.7642,2.8089,2.8186,2.827,2.8355,2.8451,2.856,2.8355,2.7305,2.6298,2.4667,2.1879,1.9904,1.8208,1.651,1.5734,1.5242,1.5187,1.5181,1.5181,1.5181,1.3475,1.2212,1.1761,0.9225,0.794,0.8046,0.6516,0.5491,0.5041,0.2352,0.0725,0.0,0.0,0.0,0.0,0.0,0.0,0.0,0.0,0.0,0.0,0.0,0.0,0.0,0.0,0.0,0.0,0.0,0.0,0.0,0.0,0.0,0.0,0.0,0.0,0.0,0.0,0.0,0.0,0.0,0.0,0.0,0.0,0.0,-0.0303,-0.1715,-0.3112,-0.4097,-0.4108,-0.3009,-0.2506,-0.3793,-0.471,-0.5231,-0.5213,-0.5954,-0.6507,-0.6631,-0.8487,-0.9959,-1.0029,-1.1862,-1.3178,-1.3178,-1.3113,-1.3053,-1.3009,-1.2863,-1.2803,-1.2884,-1.2814,-1.2808,-1.2884,-1.289,-1.2868,-1.2825,-1.2819,-1.2727,-1.2536,-1.2379,-1.2259,-1.2167,-1.1889,-1.1716,2.2806,0.0,0.0,0.0,2.5023,2.5663,2.6568,2.7172,2.7582,2.7775,2.7381,2.7144,2.7238,2.6462,2.5867,2.5918,2.4428,2.2345,1.9623,1.8208,1.6875,1.5458,1.5215,1.5181,1.5181,1.4993,1.4899,1.4899,1.3004,0.0,1.0441,0.7895,0.5686,0.3983,0.4493,0.385,0.1972,0.0628,0.0,0.0,0.0,0.0,0.0,0.0,0.0,0.0,0.0,0.0,0.0,0.0,0.0,0.0,0.0,0.0,0.0,0.0,0.0,0.0,0.0,0.0,0.0,0.0,0.0,0.0,0.0,0.0,0.0,0.0,-0.0505,-0.111,-0.111,-0.1614,-0.2521,-0.3931,-0.5413,-0.6595,-0.7336,-0.5826,-0.4714,-0.6111,-0.7029,-0.7537,-0.7514,-0.8197,-0.8786,-0.8811,-1.0099,-1.1095,-1.1163,-1.2388,-1.3298,-1.3298,-1.3194,-1.3113,-1.3075,-1.2884,-1.2803,-1.2884,-1.2814,-1.2803,-1.2884,-1.289,-1.289,-1.289,-1.289,-1.2808,-1.2656,-1.2493,-1.2373,-1.2286,-1.1966,-1.1732,0.0,0.0,0.0,0.0,0.0,0.0,2.6447,0.0,2.6339,2.6804,2.5446,2.4129,2.4377,2.2562,2.2024,2.5225,2.2168,1.9298,1.9306,1.7024,1.5404,1.5404,1.5276,1.5181,1.5087,1.4617,1.4328,1.4234,1.3299,1.1878,0.9874,0.7277,0.4119,0.009,0.1794,0.1883,0.0,0.0,0.0,0.0,0.0,0.0,0.0,0.0,0.0,0.0,0.0,0.0,0.0,0.0,0.0,0.0,0.0,0.0,0.0,0.0,0.0,-0.0094,-0.0095,-0.0096,-0.0097,-0.0098,0.0,0.0,0.0,0.0,0.0,-0.0101,-0.1614,-0.3227,-0.3328,-0.4936,-0.6539,-0.6539,-0.6542,-0.7148,-0.936,-0.81,-0.6558,-0.6558,-0.8303,-0.9832,-0.9839,-1.1598,-1.3113,-1.3221,-1.3243,-1.3336,-1.3575,-1.3499,-1.3428,-1.3428,-1.3314,-1.3194,-1.3086,-1.2955,-1.2884,-1.2884,-1.2884,-1.2879,-1.2879,-1.2879,-1.2879,-1.2879,-1.2879,-1.2884,-1.2884,-1.2879,-1.2759,-1.2531,-1.2281,-1.1911,2.2285,0.0,0.0,0.0,0.0,0.0,0.0,0.0,2.4947,2.4688,2.4179,2.3522,2.2769,2.0837,1.9759,2.0605,1.9507,1.8065,1.6785,1.5841,1.5248,1.5248,1.4925,1.4046,1.2622,1.3293,1.2627,0.0,0.883,0.7575,0.5641,0.307,0.1191,0.0,0.0543,0.0541,0.0,0.0,0.0,0.0,0.0,0.0,0.0,0.0,0.0,0.0,0.0,0.0,0.0,0.0,0.0,0.0,0.0,0.0,0.0,0.0,-0.0952,-0.2182,-0.2188,-0.2204,-0.2129,-0.215,-0.1185,0.0,0.0,0.0,-0.0303,-0.1917,-0.2723,-0.3528,-0.5135,-0.7145,-0.8754,-0.8754,-1.0012,-1.1387,-1.1999,-1.1671,-1.122,-1.1144,-1.1554,-1.1969,-1.2038,-1.2626,-1.32,-1.3232,-1.339,-1.3526,-1.3597,-1.3575,-1.3553,-1.3553,-1.3363,-1.3227,-1.3194,-1.2922,-1.2754,-1.2754,-1.2754,-1.2721,-1.2634,-1.271,-1.2716,-1.2634,-1.2716,-1.2754,-1.2754,-1.2672,-1.2596,-1.2526,-1.2194,-1.1873,0.0,0.0,0.0,0.0,0.0,0.0,2.3393,2.3397,2.3124,2.2923,2.1982,2.0871,1.9971,1.8431,1.7136,1.6947,1.674,1.6285,1.5602,1.5337,1.5087,1.4899,1.4617,1.3858,1.2533,1.225,1.1112,0.8735,0.7315,0.5582,0.3563,0.1308,0.0,0.0,0.0,0.0,0.0,0.0,0.0,0.0,0.0,0.0,0.0,0.0,0.0,0.0,0.0,0.0,0.0,0.0,0.0,0.0,0.0,0.0,0.0,0.0,-0.0763,-0.1905,-0.2665,-0.2961,-0.3173,-0.3978,-0.3529,-0.2673,-0.26,-0.2614,-0.2923,-0.4231,-0.5237,-0.6444,-0.8554,-1.0091,-1.1133,-1.1133,-1.2135,-1.3129,-1.308,-1.3069,-1.3047,-1.2977,-1.2922,-1.289,-1.289,-1.3042,-1.3183,-1.3232,-1.3401,-1.3526,-1.3526,-1.3575,-1.3586,-1.3531,-1.3352,-1.3238,-1.3238,-1.2955,-1.2759,-1.2705,-1.2705,-1.2672,-1.2607,-1.2623,-1.2623,-1.2607,-1.2672,-1.2683,-1.2634,-1.2667,-1.2607,-1.2449,-1.2134,-1.1889,0.0,0.0,0.0,0.0,0.0,0.0,2.3183,2.2123,2.0831,2.1231,1.9165,1.7151,1.6725,1.5638,1.477,1.4198,1.4354,1.463,1.5194,1.5093,1.4899,1.4429,1.4241,1.3858,1.3016,1.1018,0.95,0.8834,0.6749,0.4643,0.2728,0.0939,0.0,0.0,0.0,0.0,0.0,0.0,0.0,0.0,0.0,0.0,0.0,0.0,0.0,0.0,0.0,0.0,0.0,0.0,0.0,0.0,0.0,0.0,0.0,0.0,-0.0096,-0.0668,-0.2669,-0.3335,-0.3721,-0.5771,-0.6409,-0.6278,-0.6338,-0.639,-0.6431,-0.674,-0.8349,-1.0467,-1.24,-1.2988,-1.3075,-1.3086,-1.3178,-1.3232,-1.3129,-1.3113,-1.3113,-1.3113,-1.2988,-1.289,-1.289,-1.2999,-1.3118,-1.3205,-1.3346,-1.3439,-1.3423,-1.3515,-1.3542,-1.3433,-1.3298,-1.3221,-1.3221,-1.3015,-1.2835,-1.2716,-1.2705,-1.2694,-1.2667,-1.2569,-1.2558,-1.2645,-1.2656,-1.2623,-1.2536,-1.2732,-1.2651,-1.2308,-1.2102,-1.1949,0.0,0.0,0.0,0.0,0.0,0.0,2.1567,1.9754,1.7852,1.8425,1.711,1.5475,1.4407,1.426,1.4204,1.3907,1.4309,1.45,1.4209,1.4052,1.3964,1.387,1.3493,1.1873,0.8451,0.8834,0.7223,0.2286,0.143,0.1048,0.0571,0.0187,0.0,0.0,0.0,0.0,0.0,0.0,0.0,0.0,0.0,0.0,0.0,0.0,0.0,0.0,0.0,0.0,0.0,0.0,0.0,0.0,0.0,0.0,0.0,0.0,-0.1056,-0.2669,-0.4798,-0.5582,-0.5966,-0.7903,-0.7475,-0.6278,-0.6338,-0.6263,-0.668,-0.8535,-1.0567,-1.2405,-1.2908,-1.3053,-1.3091,-1.3183,-1.3298,-1.3379,-1.3357,-1.3352,-1.3352,-1.3352,-1.3102,-1.289,-1.289,-1.3064,-1.3183,-1.3113,-1.3368,-1.3531,-1.3433,-1.3444,-1.345,-1.3423,-1.3232,-1.3102,-1.3102,-1.2971,-1.2835,-1.2716,-1.2705,-1.2618,-1.2428,-1.2401,-1.2352,-1.2275,-1.2373,-1.246,-1.2536,-1.2482,-1.2319,-1.2063,-1.2112,-1.2069,0.0,0.0,0.0,2.1171,0.0,0.0,0.0,1.9646,1.7847,1.7445,1.6381,1.5007,1.341,1.3546,1.3738,1.3409,1.3585,1.3521,1.3064,1.3641,1.387,1.3399,1.2161,1.0451,0.8171,0.6813,0.4336,0.0282,0.0,0.0,0.0,0.0,0.0,0.0,0.0,0.0,0.0,0.0,0.0,0.0,0.0,0.0,0.0,0.0,0.0,0.0,0.0,0.0,-0.009,-0.1089,-0.1458,-0.137,-0.0373,0.0,-0.0094,-0.1248,-0.1537,-0.2099,-0.6249,-0.7019,-0.6705,-0.9672,-1.006,-0.9403,-0.935,-0.9526,-0.9815,-1.1019,-1.2125,-1.2928,-1.3107,-1.3156,-1.3183,-1.3303,-1.3423,-1.3493,-1.3433,-1.3374,-1.333,-1.333,-1.314,-1.2999,-1.3053,-1.3162,-1.3238,-1.3243,-1.3395,-1.3488,-1.3428,-1.3477,-1.3466,-1.3341,-1.3227,-1.3134,-1.3075,-1.296,-1.2835,-1.2716,-1.2705,-1.2623,-1.2449,-1.2384,-1.2324,-1.2265,-1.2324,-1.2384,-1.2444,-1.2324,-1.2232,-1.2172,-1.2172,-1.214,0.0,0.0,0.0,0.0,0.0,2.0319,0.0,0.0,0.0,1.6601,1.5547,0.0,0.0,0.0,0.0,0.0,0.0,0.0,0.0,1.2933,0.0,1.2207,1.0688,0.919,0.8007,0.4589,0.177,0.0093,0.0,0.0,0.0,0.0,0.0,0.0,0.0,0.0,0.0,0.0,0.0,0.0,-0.0359,-0.0539,-0.0545,-0.0546,-0.0544,-0.0538,-0.018,-0.018,-0.0721,-0.2358,-0.328,-0.3475,-0.1771,-0.1221,-0.1412,-0.3165,-0.2689,-0.1909,-0.7403,-0.8156,-0.7338,-1.1033,-1.2335,-1.2542,-1.2564,-1.2716,-1.2912,-1.3009,-1.2982,-1.2971,-1.3183,-1.3254,-1.3303,-1.3428,-1.3531,-1.3575,-1.3477,-1.3379,-1.3308,-1.3308,-1.3238,-1.3189,-1.3232,-1.3259,-1.3298,-1.3374,-1.3428,-1.345,-1.3423,-1.351,-1.3482,-1.3259,-1.3216,-1.3162,-1.3047,-1.2944,-1.2846,-1.2743,-1.2716,-1.2656,-1.2542,-1.2417,-1.2357,-1.2357,-1.2379,-1.2379,-1.2357,-1.2254,-1.2248,-1.2319,-1.2216,-1.2172,0.0,0.0,0.0,0.0,1.9903,0.0,0.0,0.0,1.2926,1.4002,0.0,0.0,0.0,0.0,0.0,0.0,0.0,0.0,1.2484,1.1306,1.0224,0.9348,0.8935,0.7427,0.4016,0.1647,0.0275,0.0,0.0,0.0,0.0,0.0,0.0,0.0,0.0,0.0,0.0,0.0,0.0,0.0,-0.176,-0.2553,-0.2604,-0.2539,-0.2535,-0.2511,-0.0725,-0.1001,-0.2635,-0.2912,-0.4117,-0.5721,-0.5504,-0.5433,-0.5446,-0.5653,-0.5658,-0.5808,-0.8266,-0.906,-0.9328,-1.1536,-1.2335,-1.2553,-1.2656,-1.2781,-1.289,-1.2906,-1.2977,-1.308,-1.3205,-1.3319,-1.3433,-1.3553,-1.3597,-1.3602,-1.3586,-1.3569,-1.3564,-1.3564,-1.3553,-1.3477,-1.3276,-1.333,-1.3368,-1.3276,-1.3444,-1.3542,-1.3433,-1.3433,-1.339,-1.3254,-1.3151,-1.3042,-1.2917,-1.2895,-1.2884,-1.2868,-1.2765,-1.2656,-1.2542,-1.2417,-1.2357,-1.2357,-1.246,-1.246,-1.2357,-1.2341,-1.2286,-1.2194,-1.2178,-1.2172,0.0,0.0,0.0,0.0,0.0,0.0,0.0,0.0,1.4413,0.0,0.0,0.0,0.0,0.0,0.0,0.0,1.1761,0.0,0.0,0.0,0.8185,0.0,0.0,0.0,0.1505,0.0535,0.0,0.0,0.0,0.0,0.0,0.0,0.0,0.0,0.0,0.0,0.0,-0.1109,-0.1736,-0.1719,-0.3673,-0.4686,-0.4781,-0.4801,-0.4679,-0.4609,-0.3814,-0.3898,-0.469,-0.5933,-0.6987,-0.7951,-0.9105,-0.8188,-0.6289,-0.7469,-0.7189,-0.6568,-0.9902,-1.0185,-0.9573,-1.1675,-1.2498,-1.2656,-1.2776,-1.2846,-1.2917,-1.3053,-1.308,-1.3129,-1.3385,-1.3433,-1.345,-1.3575,-1.3602,-1.3602,-1.3602,-1.3548,-1.352,-1.3591,-1.3548,-1.3488,-1.3455,-1.3493,-1.351,-1.3455,-1.3537,-1.3558,-1.3439,-1.3423,-1.3352,-1.3162,-1.3096,-1.302,-1.2895,-1.289,-1.289,-1.289,-1.271,-1.2613,-1.2634,-1.252,-1.2428,-1.2357,-1.2536,-1.2574,-1.246,-1.246,-1.2395,-1.2275,-1.2205,-1.2172,2.1463,0.0,0.0,0.0,0.0,0.0,0.0,0.0,0.0,0.0,0.0,0.0,0.0,0.0,0.0,0.0,0.0,0.9651,0.0,0.0,0.0,0.0,0.0,0.0,0.0,0.0,0.0,0.0,0.0,0.0,0.0,0.0,0.0,0.0,0.0,-0.0259,-0.077,-0.2138,-0.3226,-0.3805,-0.5703,-0.6769,-0.6901,-0.6827,-0.6771,-0.6665,-0.6133,-0.6195,-0.6687,-0.8278,-0.9266,-1.0027,-1.1616,-1.0409,-0.8004,-0.9556,-0.9084,-0.8182,-1.1312,-1.1307,-1.0244,-1.2013,-1.264,-1.2727,-1.2852,-1.289,-1.2928,-1.3134,-1.3156,-1.3183,-1.3477,-1.3515,-1.3493,-1.3586,-1.3602,-1.3602,-1.3602,-1.3531,-1.3499,-1.3586,-1.3531,-1.3499,-1.3591,-1.3602,-1.3602,-1.3602,-1.3602,-1.3569,-1.3482,-1.3471,-1.3395,-1.3189,-1.3167,-1.3102,-1.295,-1.2966,-1.2982,-1.2982,-1.2732,-1.2634,-1.2748,-1.2613,-1.2509,-1.2449,-1.2651,-1.27,-1.258,-1.258,-1.2504,-1.2447,-1.2265,-1.2205,0.0,0.0,0.0,1.7721,0.0,0.0,0.0,0.0,1.2203,0.0,0.0,0.0,0.0,0.0,0.0,0.0,0.0,0.0,0.0,0.0,0.0,0.0,0.0,0.0,0.0,0.0,0.0,0.0,0.0,0.0,0.0,0.0,0.0,0.0,0.0,-0.0865,-0.2564,-0.282,-0.382,-0.5641,-0.7699,-0.8779,-0.8777,-0.8853,-0.8845,-0.8676,-0.6895,-0.7164,-0.886,-0.9039,-1.0203,-1.19,-1.2123,-1.2072,-1.1978,-1.2078,-1.2078,-1.1983,-1.2172,-1.2254,-1.2384,-1.2623,-1.27,-1.2727,-1.2852,-1.289,-1.2917,-1.3042,-1.3151,-1.3259,-1.3395,-1.3515,-1.3602,-1.3602,-1.3602,-1.3602,-1.3602,-1.3602,-1.3602,-1.3602,-1.3602,-1.3602,-1.3602,-1.3602,-1.3602,-1.3602,-1.3602,-1.3602,-1.3597,-1.3597,-1.3548,-1.3423,-1.3412,-1.3314,-1.3086,-1.3162,-1.3227,-1.3227,-1.2895,-1.2754,-1.2879,-1.2661,-1.2585,-1.2694,-1.2819,-1.2819,-1.27,-1.27,-1.258,-1.2357,-1.2447,-1.2286,0.0,0.0,1.6597,1.6138,0.0,0.0,0.0,0.0,0.0,0.0,0.0,0.0,0.0,0.0,0.0,0.0,0.0,0.0,0.0,0.0,0.0,0.0,0.0,0.0,0.0,0.0,0.0,0.0,0.0,0.0,0.0,0.0,0.0,0.0,0.0,-0.0944,-0.282,-0.4014,-0.5659,-0.7866,-0.9761,-1.0821,-1.1106,-1.1048,-1.1008,-1.0903,-1.0282,-1.0295,-1.0705,-1.0976,-1.1382,-1.1895,-1.2096,-1.2172,-1.2172,-1.2172,-1.2172,-1.2183,-1.2265,-1.2422,-1.2602,-1.2678,-1.2759,-1.2835,-1.2873,-1.2944,-1.3031,-1.3151,-1.327,-1.339,-1.351,-1.3575,-1.3602,-1.3602,-1.3924,-1.4135,-1.4135,-1.4446,-1.4657,-1.4241,-1.4135,-1.403,-1.3708,-1.3602,-1.3602,-1.3602,-1.3602,-1.3575,-1.3493,-1.3482,-1.3406,-1.3211,-1.3189,-1.3124,-1.2966,-1.3058,-1.3194,-1.3352,-1.3102,-1.2966,-1.3009,-1.4135,-1.4804,-1.4858,-1.6271,-1.7012,-1.6962,-1.5486,-1.4762,-1.4578,-1.3057,-1.2286,1.6121,1.5469,0.0,1.4399,1.3344,0.0,1.1979,0.0,0.0,0.0,0.0,0.0,0.0,0.0,0.0,0.0,0.0,0.0,0.0,0.296,0.0,0.0,0.0,0.0,0.0,0.0,0.0,0.0,0.0,0.0,0.0,0.0,0.0,0.0,0.0,-0.0946,-0.2837,-0.395,-0.569,-0.7816,-0.8997,-1.0064,-1.1122,-1.1082,-1.1403,-1.1987,-1.1944,-1.1841,-1.1716,-1.1911,-1.1944,-1.19,-1.2096,-1.2172,-1.2172,-1.2172,-1.2199,-1.2259,-1.2422,-1.258,-1.271,-1.2754,-1.2825,-1.299,-1.309,-1.3273,-1.3385,-1.3667,-1.3813,-1.407,-1.415,-1.4201,-1.4235,-1.4235,-1.4446,-1.4762,-1.4762,-1.5078,-1.5184,-1.4762,-1.4762,-1.4551,-1.403,-1.3919,-1.3813,-1.3607,-1.3602,-1.3575,-1.3493,-1.345,-1.3363,-1.3211,-1.3156,-1.3113,-1.308,-1.3107,-1.3232,-1.3471,-1.3265,-1.3553,-1.441,-1.4693,-1.5711,-1.7521,-1.7893,-1.8611,-1.96,-1.7909,-1.6615,-1.578,-1.4295,-1.3112]},{"header":{"parameterUnit":"m.s-1","parameterCategory":1,"la1":30.6,"la2":29.2853,"lo1":-89.7004,"lo2":-87.6739,"dx":0.0162,"dy":0.0183,"nx":112,"ny":82,"refTime":"2023-01-20T06:00:00:Z","depth":0,"parameterNumber":3,"parameterNumberName":"V-component_of_WINDS"},"data":[0.0,0.0,0.0,0.0,0.0,0.0,0.0,0.0,0.0,0.0,0.0,0.0,0.0,0.0,0.0,0.0,0.0,0.0,0.0,0.0,0.0,0.0,0.0,0.0,0.0,0.0,0.0,0.0,0.0,0.0,0.0,0.0,0.0,0.0,0.0,0.0,0.0,0.0,0.0,0.0,0.0,0.0,0.0,0.0,0.0,0.0,0.0,0.0,0.0,0.0,0.0,0.0,0.0,0.0,0.0,0.0,0.0,0.0,0.0,0.0,0.0,0.0,0.0,0.0,0.0,0.0,0.0,0.0,0.0,0.0,0.0,0.0,0.0,0.0,0.0,0.0,0.0,0.0,0.0,0.0,0.0,0.0,0.0,0.0,0.0,0.0,0.0,0.0,0.0,0.0,0.0,4.0707,4.1855,4.2578,4.2649,4.1989,4.1129,4.0169,0.0,0.0,0.0,0.0,0.0,0.0,0.0,0.0,0.0,0.0,0.0,0.0,0.0,0.0,0.0,0.0,0.0,0.0,0.0,0.0,0.0,0.0,0.0,0.0,0.0,0.0,0.0,0.0,0.0,0.0,0.0,0.0,0.0,0.0,0.0,0.0,0.0,0.0,0.0,0.0,0.0,0.0,0.0,0.0,0.0,0.0,0.0,0.0,0.0,0.0,0.0,0.0,0.0,0.0,0.0,0.0,0.0,0.0,0.0,0.0,0.0,0.0,0.0,0.0,0.0,0.0,0.0,0.0,0.0,0.0,0.0,0.0,0.0,0.0,0.0,0.0,0.0,0.0,0.0,0.0,0.0,0.0,0.0,0.0,0.0,0.0,0.0,0.0,0.0,0.0,0.0,0.0,0.0,0.0,0.0,0.0,0.0,0.0,0.0,0.0,0.0,0.0,0.0,0.0,4.0742,4.1874,4.282,4.3088,4.2509,4.2308,4.1609,4.0114,0.0,0.0,0.0,0.0,0.0,0.0,0.0,0.0,0.0,0.0,0.0,0.0,0.0,0.0,0.0,0.0,0.0,0.0,0.0,0.0,0.0,0.0,0.0,0.0,0.0,0.0,0.0,0.0,0.0,0.0,0.0,0.0,0.0,0.0,0.0,0.0,0.0,0.0,0.0,0.0,0.0,0.0,0.0,0.0,0.0,0.0,0.0,0.0,0.0,0.0,0.0,0.0,0.0,0.0,0.0,0.0,0.0,0.0,0.0,0.0,0.0,0.0,0.0,0.0,0.0,0.0,0.0,0.0,0.0,0.0,0.0,0.0,0.0,0.0,0.0,0.0,0.0,0.0,0.0,0.0,0.0,0.0,0.0,0.0,0.0,0.0,0.0,0.0,0.0,0.0,0.0,0.0,0.0,0.0,0.0,0.0,0.0,0.0,0.0,0.0,0.0,0.0,0.0,3.9767,4.0889,4.1066,4.1781,4.1944,4.1214,4.2015,4.163,3.9473,4.034,0.0,0.0,0.0,0.0,0.0,0.0,0.0,0.0,0.0,0.0,0.0,0.0,0.0,0.0,0.0,0.0,0.0,0.0,0.0,0.0,0.0,0.0,0.0,0.0,0.0,0.0,0.0,0.0,0.0,0.0,0.0,0.0,0.0,0.0,0.0,0.0,0.0,0.0,0.0,0.0,0.0,0.0,0.0,0.0,0.0,0.0,0.0,0.0,0.0,0.0,0.0,0.0,0.0,0.0,0.0,0.0,0.0,0.0,0.0,0.0,0.0,0.0,0.0,0.0,0.0,0.0,0.0,0.0,0.0,0.0,0.0,0.0,0.0,0.0,0.0,0.0,0.0,0.0,0.0,0.0,0.0,0.0,0.0,0.0,0.0,0.0,0.0,0.0,0.0,0.0,0.0,0.0,0.0,0.0,0.0,0.0,0.0,0.0,0.0,0.0,0.0,0.0,4.0736,4.0789,4.0325,4.0804,4.093,4.0382,4.1382,4.1256,3.9458,4.043,0.0,0.0,0.0,0.0,0.0,0.0,0.0,0.0,0.0,0.0,0.0,0.0,0.0,0.0,0.0,0.0,0.0,0.0,0.0,0.0,0.0,0.0,0.0,0.0,0.0,0.0,0.0,0.0,0.0,0.0,0.0,0.0,0.0,0.0,0.0,0.0,0.0,0.0,0.0,0.0,0.0,0.0,0.0,0.0,0.0,0.0,0.0,0.0,0.0,0.0,0.0,0.0,0.0,0.0,0.0,0.0,0.0,0.0,0.0,0.0,0.0,0.0,0.0,0.0,0.0,0.0,0.0,0.0,0.0,0.0,0.0,0.0,0.0,0.0,0.0,0.0,0.0,0.0,0.0,0.0,0.0,0.0,0.0,0.0,0.0,0.0,0.0,0.0,0.0,0.0,0.0,0.0,0.0,0.0,0.0,0.0,0.0,0.0,0.0,0.0,0.0,0.0,4.1191,4.0685,4.1005,4.1075,4.1075,4.1038,4.0483,4.0336,4.0891,4.0006,0.0,0.0,0.0,0.0,0.0,0.0,0.0,0.0,0.0,0.0,0.0,0.0,0.0,0.0,0.0,0.0,0.0,0.0,0.0,0.0,0.0,0.0,0.0,0.0,0.0,0.0,0.0,0.0,0.0,0.0,0.0,0.0,0.0,0.0,0.0,0.0,0.0,0.0,0.0,0.0,0.0,0.0,0.0,0.0,0.0,0.0,0.0,0.0,0.0,0.0,0.0,0.0,0.0,0.0,0.0,0.0,0.0,0.0,0.0,0.0,0.0,0.0,0.0,0.0,0.0,0.0,0.0,0.0,0.0,0.0,0.0,0.0,0.0,0.0,0.0,0.0,0.0,0.0,0.0,0.0,0.0,0.0,0.0,0.0,0.0,0.0,0.0,0.0,0.0,0.0,0.0,0.0,0.0,0.0,0.0,0.0,0.0,0.0,0.0,0.0,0.0,0.0,4.085,4.0743,0.0,4.0341,4.0561,4.1058,4.0866,4.0919,4.1393,0.0,0.0,0.0,0.0,0.0,0.0,0.0,0.0,0.0,0.0,0.0,0.0,0.0,0.0,0.0,0.0,0.0,0.0,0.0,0.0,0.0,0.0,0.0,0.0,0.0,0.0,0.0,0.0,0.0,0.0,0.0,0.0,0.0,0.0,0.0,0.0,0.0,0.0,0.0,0.0,0.0,0.0,0.0,0.0,0.0,0.0,0.0,0.0,0.0,0.0,0.0,0.0,0.0,0.0,0.0,0.0,0.0,0.0,0.0,0.0,0.0,0.0,0.0,0.0,0.0,0.0,0.0,0.0,0.0,0.0,0.0,0.0,0.0,0.0,0.0,0.0,0.0,0.0,0.0,0.0,0.0,0.0,0.0,0.0,0.0,0.0,0.0,0.0,0.0,0.0,0.0,0.0,0.0,0.0,0.0,0.0,0.0,0.0,0.0,0.0,0.0,0.0,4.0708,4.0928,4.0875,0.0,4.0267,4.0414,4.0708,4.083,4.1119,4.1553,0.0,0.0,0.0,0.0,0.0,0.0,0.0,0.0,0.0,0.0,0.0,0.0,0.0,0.0,0.0,0.0,0.0,0.0,0.0,0.0,0.0,0.0,0.0,0.0,0.0,0.0,0.0,0.0,0.0,0.0,0.0,0.0,0.0,0.0,0.0,0.0,0.0,0.0,0.0,0.0,0.0,0.0,0.0,0.0,0.0,0.0,0.0,0.0,0.0,0.0,0.0,0.0,0.0,0.0,0.0,0.0,0.0,0.0,0.0,0.0,0.0,0.0,0.0,0.0,0.0,0.0,0.0,0.0,0.0,0.0,0.0,0.0,0.0,0.0,0.0,0.0,0.0,0.0,0.0,0.0,0.0,0.0,0.0,0.0,0.0,0.0,0.0,0.0,0.0,0.0,0.0,0.0,0.0,0.0,0.0,0.0,0.0,0.0,0.0,0.0,0.0,0.0,4.2213,4.1609,4.1095,4.1095,4.1095,4.0781,3.9974,4.0185,4.0714,0.0,0.0,0.0,0.0,0.0,0.0,0.0,0.0,0.0,0.0,0.0,0.0,0.0,0.0,0.0,0.0,0.0,0.0,0.0,0.0,0.0,0.0,0.0,0.0,0.0,0.0,0.0,0.0,0.0,0.0,0.0,0.0,0.0,0.0,0.0,0.0,0.0,0.0,0.0,0.0,0.0,0.0,0.0,0.0,0.0,0.0,0.0,0.0,0.0,0.0,0.0,0.0,0.0,0.0,0.0,0.0,0.0,0.0,0.0,0.0,0.0,0.0,0.0,0.0,0.0,0.0,0.0,0.0,0.0,0.0,0.0,0.0,0.0,0.0,0.0,0.0,0.0,0.0,0.0,0.0,0.0,0.0,0.0,0.0,0.0,0.0,0.0,0.0,0.0,0.0,0.0,0.0,0.0,0.0,0.0,0.0,0.0,0.0,0.0,0.0,0.0,0.0,0.0,4.2213,4.1609,4.1315,4.1882,4.1956,4.1846,4.1625,4.186,4.2249,4.276,0.0,0.0,0.0,0.0,0.0,0.0,0.0,0.0,0.0,0.0,0.0,0.0,0.0,0.0,0.0,0.0,0.0,0.0,0.0,0.0,0.0,0.0,0.0,0.0,0.0,0.0,0.0,0.0,0.0,0.0,0.0,0.0,0.0,0.0,0.0,0.0,0.0,0.0,0.0,0.0,0.0,0.0,0.0,0.0,0.0,0.0,0.0,0.0,0.0,0.0,0.0,0.0,0.0,0.0,0.0,0.0,0.0,0.0,0.0,0.0,0.0,0.0,0.0,0.0,0.0,0.0,0.0,0.0,0.0,0.0,0.0,0.0,0.0,0.0,0.0,0.0,0.0,0.0,0.0,0.0,0.0,0.0,0.0,0.0,0.0,0.0,0.0,0.0,0.0,0.0,0.0,0.0,0.0,0.0,0.0,0.0,0.0,0.0,0.0,0.0,0.0,0.0,4.269,4.2103,4.1882,4.269,4.2897,4.2832,4.25,4.3162,4.3565,4.3488,0.0,0.0,0.0,0.0,0.0,0.0,0.0,0.0,0.0,0.0,0.0,0.0,0.0,0.0,0.0,0.0,0.0,0.0,0.0,0.0,0.0,0.0,0.0,0.0,0.0,0.0,0.0,0.0,0.0,0.0,0.0,0.0,0.0,0.0,0.0,0.0,0.0,0.0,0.0,0.0,0.0,0.0,0.0,0.0,0.0,0.0,0.0,0.0,0.0,0.0,0.0,0.0,0.0,0.0,0.0,0.0,0.0,0.0,0.0,0.0,0.0,0.0,0.0,0.0,0.0,0.0,0.0,0.0,0.0,0.0,0.0,0.0,0.0,0.0,0.0,0.0,0.0,0.0,0.0,0.0,0.0,0.0,0.0,0.0,0.0,0.0,0.0,0.0,0.0,0.0,0.0,0.0,0.0,0.0,0.0,0.0,0.0,0.0,0.0,0.0,0.0,0.0,4.3497,4.2944,4.2777,4.3676,4.3992,4.381,4.2932,4.4067,4.4531,4.3841,0.0,0.0,0.0,0.0,0.0,0.0,0.0,0.0,0.0,0.0,0.0,0.0,0.0,0.0,0.0,0.0,0.0,0.0,0.0,0.0,0.0,0.0,0.0,0.0,0.0,0.0,0.0,0.0,0.0,0.0,0.0,0.0,0.0,0.0,0.0,0.0,0.0,0.0,0.0,0.0,0.0,0.0,0.0,0.0,0.0,0.0,0.0,0.0,0.0,0.0,0.0,0.0,0.0,0.0,0.0,0.0,0.0,0.0,0.0,0.0,4.6745,0.0,0.0,0.0,0.0,0.0,0.0,0.0,0.0,0.0,0.0,0.0,0.0,0.0,0.0,0.0,0.0,0.0,0.0,0.0,0.0,0.0,0.0,0.0,0.0,0.0,0.0,0.0,0.0,0.0,0.0,0.0,0.0,0.0,0.0,0.0,0.0,0.0,0.0,0.0,0.0,0.0,4.4268,4.3952,4.4183,4.5651,4.5506,4.4988,4.4102,4.4562,4.4554,4.3775,4.4773,0.0,0.0,0.0,0.0,0.0,0.0,0.0,0.0,0.0,0.0,0.0,0.0,0.0,0.0,0.0,0.0,0.0,0.0,0.0,0.0,0.0,0.0,0.0,0.0,0.0,0.0,0.0,0.0,0.0,0.0,0.0,0.0,0.0,0.0,0.0,0.0,0.0,0.0,0.0,0.0,0.0,0.0,0.0,0.0,0.0,0.0,0.0,0.0,0.0,0.0,0.0,0.0,0.0,0.0,0.0,0.0,0.0,0.0,0.0,0.0,4.8196,0.0,0.0,0.0,0.0,0.0,0.0,0.0,0.0,0.0,0.0,0.0,0.0,0.0,0.0,0.0,0.0,0.0,0.0,0.0,0.0,0.0,0.0,0.0,0.0,0.0,0.0,0.0,0.0,0.0,0.0,0.0,0.0,0.0,0.0,0.0,0.0,0.0,0.0,0.0,0.0,4.513,4.5015,4.5207,4.6301,4.6457,4.6323,4.587,4.5758,4.5502,4.5126,4.487,0.0,0.0,0.0,0.0,0.0,0.0,0.0,0.0,0.0,0.0,0.0,0.0,0.0,0.0,0.0,0.0,0.0,0.0,0.0,0.0,0.0,0.0,0.0,0.0,0.0,0.0,0.0,0.0,0.0,0.0,0.0,0.0,0.0,0.0,0.0,0.0,0.0,0.0,0.0,0.0,0.0,0.0,0.0,0.0,0.0,0.0,0.0,0.0,0.0,0.0,0.0,0.0,0.0,5.7226,5.7666,5.6895,5.807,5.7886,5.6492,5.3849,5.1426,4.937,4.9224,0.0,0.0,0.0,0.0,0.0,0.0,0.0,0.0,0.0,0.0,0.0,0.0,0.0,0.0,0.0,0.0,0.0,0.0,0.0,0.0,0.0,0.0,0.0,0.0,5.131,5.0331,0.0,0.0,0.0,0.0,0.0,0.0,0.0,0.0,0.0,0.0,0.0,0.0,4.6156,4.6349,4.6688,4.7351,4.7692,4.7922,4.7922,4.7202,4.6762,4.6814,4.5408,4.4371,0.0,0.0,0.0,0.0,0.0,0.0,0.0,0.0,0.0,0.0,0.0,0.0,0.0,0.0,0.0,0.0,0.0,0.0,0.0,0.0,0.0,0.0,0.0,0.0,0.0,0.0,0.0,0.0,0.0,0.0,0.0,0.0,5.357,5.3813,0.0,0.0,0.0,0.0,0.0,0.0,0.0,0.0,0.0,0.0,0.0,0.0,0.0,5.5133,5.6161,5.8951,6.0089,5.9648,6.1998,6.2695,6.1851,6.1337,6.1006,6.0786,6.0346,0.0,5.3555,5.2858,0.0,0.0,0.0,0.0,0.0,0.0,0.0,0.0,0.0,0.0,0.0,0.0,0.0,0.0,0.0,0.0,0.0,0.0,0.0,0.0,0.0,0.0,5.2299,5.2964,5.3148,5.2858,0.0,5.0615,4.912,4.715,4.6665,0.0,0.0,0.0,0.0,0.0,0.0,0.0,4.735,4.8551,4.989,5.1372,5.0558,4.993,4.993,4.8559,4.7733,4.7744,4.6855,4.5994,4.5198,4.3354,0.0,0.0,0.0,0.0,0.0,0.0,0.0,0.0,0.0,0.0,0.0,0.0,0.0,0.0,0.0,0.0,0.0,0.0,0.0,0.0,0.0,0.0,0.0,0.0,0.0,0.0,0.0,0.0,0.0,5.346,5.3986,5.376,5.4509,5.473,0.0,0.0,0.0,0.0,0.0,0.0,0.0,0.0,0.0,5.9098,5.9465,6.0272,6.1557,6.2511,6.3282,6.3833,6.5375,6.5925,6.5558,6.5668,6.5448,6.5007,6.453,6.2915,6.0309,5.7189,5.517,5.3907,0.0,0.0,0.0,0.0,5.172,5.2747,5.2307,5.2454,0.0,5.1756,0.0,0.0,0.0,0.0,0.0,0.0,0.0,0.0,0.0,0.0,5.5986,5.7072,5.7258,5.7205,5.7207,5.5973,5.3854,0.0,5.0393,5.0422,4.8932,0.0,0.0,0.0,0.0,4.8732,4.9872,5.0516,5.123,5.2251,5.198,5.1767,5.1802,5.0303,4.9356,4.9356,4.7711,4.6388,4.5486,4.4624,4.3886,0.0,0.0,0.0,0.0,0.0,0.0,0.0,0.0,0.0,0.0,0.0,0.0,0.0,0.0,0.0,0.0,0.0,0.0,0.0,0.0,0.0,0.0,0.0,0.0,0.0,0.0,0.0,0.0,5.4617,5.4876,5.3665,5.5831,5.6638,0.0,0.0,0.0,0.0,0.0,0.0,5.9501,6.108,6.2511,6.3723,6.4163,6.5081,6.6512,6.6549,6.7136,6.8348,6.8935,6.9229,6.9229,6.9449,6.9192,6.8568,6.776,6.6953,6.5888,6.141,5.8584,5.6932,5.5133,5.4693,5.495,5.4142,5.462,5.5537,5.495,5.4987,5.517,5.4142,5.398,5.3891,5.2279,0.0,0.0,0.0,0.0,5.5714,5.6918,5.8131,5.937,6.0529,6.0736,6.0774,6.1114,6.0389,5.828,0.0,5.3747,5.3973,5.2425,0.0,0.0,0.0,0.0,5.115,5.2136,5.2254,5.2475,5.3095,5.3212,5.323,5.3315,5.2006,5.1184,5.1184,4.9229,4.7626,4.6522,4.6291,4.5369,4.3605,0.0,0.0,0.0,0.0,0.0,0.0,0.0,0.0,0.0,0.0,0.0,0.0,0.0,0.0,0.0,0.0,0.0,0.0,0.0,0.0,0.0,0.0,0.0,0.0,0.0,0.0,0.0,0.0,0.0,5.462,5.9134,0.0,0.0,0.0,0.0,6.1227,6.3466,6.453,6.3833,6.5301,6.6219,6.6292,6.7797,6.9009,6.9853,7.2092,7.3266,7.334,7.3377,7.3377,7.334,7.1872,7.1146,7.1101,7.0257,6.9449,6.8458,6.5154,6.2805,6.1263,6.1153,6.0676,5.9942,5.9111,5.8891,5.8927,5.8891,5.8437,5.7923,5.8621,5.7918,5.6522,5.4954,5.5069,0.0,0.0,5.7372,5.8128,5.9835,6.0597,6.1191,6.1987,6.2176,6.2243,6.2521,6.2483,6.1033,0.0,5.5154,5.4511,5.3349,0.0,5.3096,5.3134,5.3309,5.3447,5.3523,5.3796,5.4295,5.5161,5.4574,5.4137,5.4137,5.3398,5.2965,5.2965,5.2123,5.0923,4.9269,4.8423,4.7201,4.5509,4.4734,0.0,0.0,0.0,0.0,0.0,0.0,0.0,0.0,0.0,0.0,0.0,0.0,0.0,0.0,0.0,0.0,0.0,0.0,0.0,0.0,0.0,0.0,0.0,0.0,0.0,0.0,0.0,0.0,6.075,6.4237,0.0,6.4383,6.5485,6.6512,6.7026,6.8862,7.0036,7.0257,7.1321,7.1908,7.1908,7.2973,7.3927,7.4735,7.5616,7.6019,7.6019,7.5506,7.4955,7.4441,7.334,7.2826,7.2789,7.1982,7.1468,7.1138,6.9963,6.7614,6.464,6.3613,6.3356,6.3392,6.201,6.24,6.341,6.2336,6.2339,6.2593,6.1545,5.9649,5.7825,5.8103,5.8432,5.8942,6.0153,6.0543,6.1029,6.2818,6.3358,6.374,6.4807,6.5083,6.5146,6.5408,6.459,6.3265,6.1575,5.9731,5.7963,5.6492,5.5755,5.5565,5.6136,5.5826,5.5728,5.6314,5.6458,5.6447,5.6269,5.5989,5.5617,5.5125,5.4402,5.3947,5.3979,5.3231,5.2241,5.1048,5.0202,4.8971,4.724,4.6914,4.6222,0.0,0.0,0.0,0.0,0.0,0.0,0.0,0.0,0.0,0.0,0.0,0.0,0.0,0.0,0.0,0.0,0.0,0.0,0.0,0.0,0.0,0.0,0.0,0.0,0.0,0.0,6.5705,6.464,6.8531,7.0697,6.9082,7.0624,7.1982,7.2496,7.4294,7.5359,7.5359,7.613,7.6313,7.5763,7.6497,7.7194,7.7745,7.8002,7.8148,7.8148,7.7341,7.6497,7.5689,7.4882,7.4368,7.4074,7.3266,7.2899,7.2899,7.2606,7.1029,6.8641,6.7106,6.6696,6.6769,6.5668,6.6099,6.7016,6.553,6.5586,6.5943,6.4125,6.2272,6.0916,6.1485,6.1525,6.1582,6.2807,6.2981,6.3182,6.4942,6.5498,6.5871,6.6949,6.7223,6.7266,6.7445,6.6535,6.5635,6.5273,6.3298,6.1263,5.9835,5.9109,5.9033,5.9873,5.8536,5.7848,5.8994,5.8421,5.7722,5.7149,5.6894,5.6534,5.603,5.555,5.516,5.4934,5.4357,5.3549,5.2385,5.1818,5.0741,4.9009,4.8394,4.7278,4.5594,0.0,0.0,0.0,0.0,0.0,0.0,0.0,0.0,0.0,0.0,0.0,0.0,0.0,0.0,0.0,0.0,0.0,0.0,0.0,0.0,0.0,0.0,0.0,6.2144,6.6696,6.9119,6.6098,7.1974,7.5058,7.1974,7.5242,7.7524,7.7494,7.9764,8.0424,7.8846,7.947,7.914,7.7524,7.8326,7.8798,7.8798,7.957,7.9968,7.9932,7.9092,7.8253,7.7378,7.6564,7.5793,7.4985,7.4111,7.3773,7.3765,7.2928,7.2927,7.3235,7.1904,7.0909,7.0202,7.0202,6.9953,6.953,6.8537,6.812,6.7877,6.6465,6.6009,6.5838,6.5093,6.433,6.3896,6.4731,6.46,6.4603,6.6285,6.6926,6.7398,6.8244,6.8475,6.85,6.8462,6.8421,6.815,6.7291,6.5628,6.4053,6.3121,6.293,6.3197,6.4053,6.1339,0.0,6.144,5.9529,5.8039,5.8001,5.7353,5.6891,5.6853,5.6944,5.6626,5.5742,5.5703,5.4972,5.3395,5.328,5.2472,5.0827,4.9086,4.7432,4.5787,0.0,0.0,0.0,0.0,0.0,0.0,0.0,0.0,0.0,0.0,0.0,0.0,0.0,0.0,0.0,0.0,0.0,0.0,0.0,0.0,0.0,0.0,6.8789,6.7143,7.077,7.4057,7.5375,7.7849,7.9554,7.9821,8.1378,8.2203,8.1778,8.292,8.3177,8.215,8.2296,8.2118,8.1496,8.2304,8.2949,8.3368,8.3564,8.334,8.2743,8.1958,8.0889,7.9681,7.8866,7.8348,7.806,7.6229,7.5883,7.649,7.5298,7.4752,7.4548,7.3235,7.2804,7.2856,7.2259,7.1884,7.1648,7.1758,7.1187,7.0211,6.9239,6.8353,6.7561,6.7009,6.6745,6.6895,6.8042,6.7798,6.7483,6.8559,6.8921,6.9052,6.9283,7.0283,7.0962,7.0291,7.0109,7.0043,6.9716,6.8776,6.7122,6.4454,6.3444,6.3138,6.3368,6.2602,0.0,6.2571,6.2021,6.1371,6.0811,5.9995,5.9013,5.7923,5.7278,5.6582,5.5742,5.5703,5.578,5.5945,5.478,5.3626,5.2549,5.1433,5.0615,0.0,0.0,0.0,0.0,0.0,0.0,0.0,0.0,0.0,0.0,0.0,0.0,0.0,0.0,0.0,0.0,0.0,0.0,0.0,0.0,0.0,0.0,7.1231,7.4646,7.5254,7.6977,7.8815,8.0549,8.2172,8.3452,8.4386,8.5217,8.544,8.4806,8.5549,8.5644,8.4939,8.4609,8.4461,8.4622,8.4733,8.5094,8.5703,8.5666,8.5414,8.4952,8.3859,8.2872,8.1941,8.0621,8.0015,7.9799,7.8196,7.7849,7.8365,7.7141,7.6651,0.0,0.0,0.0,0.0,0.0,7.423,7.3572,7.4139,7.3597,7.2532,7.1778,7.103,7.0412,7.0133,7.0111,7.0262,7.0626,7.0398,7.0129,7.0629,7.0744,7.0821,7.1206,7.2052,7.2615,7.2035,7.1944,7.1929,7.19,7.1156,0.0,6.7983,6.6315,6.5353,6.5698,6.4855,6.4419,6.5092,6.4249,6.3406,6.296,6.1824,6.0597,5.9341,5.88,0.0,0.0,0.0,5.6857,5.6983,5.5703,0.0,0.0,0.0,5.351,5.351,0.0,0.0,0.0,4.9163,4.874,0.0,0.0,0.0,0.0,0.0,0.0,0.0,0.0,0.0,0.0,0.0,0.0,0.0,0.0,0.0,0.0,7.6607,8.1178,8.4439,8.4256,8.369,8.3652,8.5583,8.6948,8.7023,8.77,8.7839,8.7173,8.7812,8.7974,8.7323,0.0,0.0,0.0,0.0,8.6377,8.6892,8.6779,8.6741,8.6741,8.5395,8.4543,8.4116,8.2371,8.1393,8.1047,8.0172,7.9834,7.9826,7.8746,7.8588,7.8789,7.6436,7.5463,7.5588,7.6844,7.637,7.5205,7.5846,0.0,0.0,7.4101,7.386,7.3783,7.3783,7.3707,7.3476,7.2706,7.2399,7.236,7.236,7.236,7.2552,7.3322,7.3591,7.363,7.3514,7.3591,7.363,7.363,7.2937,7.236,7.2476,7.0186,6.8628,6.9472,6.7554,6.6556,6.8129,6.6288,6.4792,6.4676,0.0,0.0,6.1082,6.095,6.0242,5.855,5.8434,5.805,5.7176,5.6472,5.6434,5.7137,5.6395,5.5934,5.5857,5.5857,5.578,5.5626,5.2559,5.1174,0.0,0.0,0.0,0.0,0.0,0.0,0.0,0.0,0.0,0.0,0.0,0.0,0.0,0.0,0.0,7.7163,8.136,8.5128,8.8243,8.945,8.9878,8.9438,8.9805,9.0373,9.1029,9.1218,9.0874,8.9771,9.0281,9.0143,8.9011,8.9782,8.9972,8.9356,8.9668,8.9852,8.9855,8.9227,8.8926,8.8971,0.0,0.0,8.5842,8.5469,8.4854,8.4067,8.2758,8.2347,8.2454,8.1185,8.0583,8.0256,7.767,7.6262,7.5667,7.6065,7.5999,7.5862,7.6709,7.6462,7.5808,7.6399,7.6092,7.5515,7.5515,7.5014,0.0,7.4245,7.3745,7.3245,7.3245,7.3245,7.3283,7.3476,7.4014,7.4284,7.363,7.4014,7.4476,7.4476,7.3822,7.3437,7.4091,7.1525,6.9665,7.0473,6.905,6.8216,6.9121,6.8238,6.7278,6.6587,6.564,6.4437,6.2949,6.2204,6.1089,5.9396,5.9281,5.8896,5.8088,5.8511,5.855,5.805,5.7896,5.7434,5.6753,5.6753,5.6406,5.5665,5.4357,5.4126,0.0,0.0,0.0,0.0,0.0,0.0,0.0,0.0,0.0,0.0,0.0,6.6733,0.0,0.0,7.7912,8.1863,8.6025,8.9566,9.1875,9.3777,9.4058,9.1659,9.1789,9.2231,9.2695,9.2688,9.2326,9.1514,9.2048,9.2042,9.1246,9.1717,9.195,9.1893,9.1774,9.1819,9.2063,9.1259,9.0877,9.0877,8.934,8.8359,8.788,8.6479,8.5781,8.56,8.4924,8.4703,8.4844,8.448,8.3801,8.2721,8.0997,7.9252,7.7815,7.8323,7.7954,7.7339,7.8231,7.7707,7.6707,7.7169,7.6707,7.6015,7.6015,7.6284,7.6485,7.5839,7.5803,7.5855,7.5226,7.4881,7.4745,7.4745,7.5053,7.5245,7.4861,7.5053,7.5361,7.5361,7.5014,7.4899,7.5284,7.3591,7.2206,7.2206,7.1514,7.1077,7.1458,7.0766,6.9934,6.9036,6.8575,6.7666,6.6,6.4705,6.3243,6.1512,6.1396,6.1243,6.0819,6.0781,6.0781,6.0819,6.0396,6.0204,6.0165,6.0165,5.9704,5.8907,5.8484,5.7819,0.0,0.0,0.0,0.0,0.0,0.0,0.0,0.0,6.5275,6.7437,6.9155,7.1414,7.5088,7.9126,8.3012,8.6487,9.04,9.3567,9.5123,9.7239,9.7203,9.3502,9.3846,9.4403,9.4509,9.4292,9.3982,9.3573,9.412,9.4152,9.3407,9.3642,9.3909,9.4095,9.368,9.3497,9.3677,9.3025,9.2642,9.2469,9.0617,8.9797,8.9841,8.7753,8.6761,8.6785,8.6785,8.6788,8.6889,8.7438,8.6863,8.5517,8.4478,8.2824,8.1016,8.1093,8.0092,7.89,7.9939,7.9092,7.7592,7.8092,7.7592,7.6746,7.6746,7.7553,7.8262,7.7155,7.7467,7.7937,7.7061,7.647,7.6133,7.6231,7.613,7.6015,7.6015,7.6015,7.6015,7.6015,7.6015,7.6015,7.6015,7.5438,7.4745,7.4091,7.3707,7.3553,7.3692,7.2976,7.2129,7.1245,7.1168,7.0475,6.8821,6.709,6.5513,6.4128,6.3897,6.3743,6.3551,6.3089,6.2974,6.3269,6.282,6.2666,6.282,6.282,6.232,6.137,6.1524,6.0589,0.0,0.0,0.0,6.9236,6.9315,6.9959,0.0,0.0,7.4169,7.6607,7.8405,8.0246,8.269,8.4733,8.7458,9.1884,9.43,9.6097,9.7524,9.922,9.9656,9.7817,9.8315,9.8873,9.8873,9.827,9.7731,9.7316,9.7696,9.6971,9.4797,9.6711,9.7034,9.5272,9.6157,9.6035,9.4676,9.4561,9.4177,9.352,9.3253,9.2407,9.1059,9.1525,9.0508,8.8431,8.8431,8.8448,8.8448,8.85,8.844,8.8094,8.6478,8.567,8.5055,8.217,8.0477,7.99,8.1477,8.04,7.8746,8.1016,8.0669,7.9361,7.9361,7.8977,7.8377,7.7823,7.7238,7.695,7.7526,7.7085,7.6616,7.707,7.6553,7.6015,7.6015,7.6015,7.6015,7.6015,7.6015,7.6015,7.6015,7.5938,7.5822,7.5745,7.4437,7.3783,7.4476,7.386,7.3014,7.2129,7.2052,7.136,6.9706,6.7975,6.6859,6.6667,6.6013,6.5243,6.4474,6.5089,6.4782,6.332,6.3974,6.3243,6.1089,6.1089,6.0281,5.8742,5.9473,6.005,7.0306,0.0,0.0,0.0,7.3621,7.4868,7.7326,7.7077,7.7011,7.9507,8.1913,8.4022,8.5409,8.8774,9.1973,0.0,9.6311,9.8178,9.8785,10.0718,10.1491,9.9922,10.1077,10.1402,9.9449,9.8953,9.8576,9.8155,9.8516,9.8162,9.6792,9.8829,9.9501,9.825,9.8643,9.8807,9.8577,9.7116,9.6481,9.6673,9.5672,9.4595,9.3403,9.2787,9.1364,8.944,8.994,9.0133,9.0133,9.0133,9.0133,9.0017,8.8786,8.8325,8.7863,8.3978,8.2324,8.2093,8.2824,8.2016,8.09,8.1939,8.117,7.9823,7.9823,7.9335,7.8738,7.8275,7.8085,7.7949,7.7511,7.7546,7.7499,7.6716,7.663,7.663,7.6092,7.6015,7.6015,7.6015,7.6015,7.6015,7.6015,7.6015,7.6015,7.6015,7.5399,7.5091,7.5399,7.5168,7.4822,7.4437,7.3553,7.2668,7.1975,7.0783,6.986,6.9321,6.9013,6.8436,6.759,6.7936,6.7282,6.5551,6.5859,6.5282,6.3782,6.3243,6.2397,6.1204,6.105,6.0935,7.3146,0.0,0.0,7.625,7.83,7.9967,8.0274,8.0352,8.0828,8.2627,8.5049,8.7204,8.8428,9.1976,9.4971,9.5881,9.8101,9.9725,9.9725,10.1697,10.2485,10.0497,10.2002,10.2194,9.9516,9.934,9.9478,9.9655,9.9657,9.953,9.9167,10.0903,10.1597,10.0982,10.1102,10.1289,10.1712,9.9827,9.9096,9.9481,9.8019,9.6903,9.598,9.4057,9.2364,9.0979,9.1364,9.1441,9.121,9.121,9.121,9.1133,9.0248,8.9902,8.9517,8.6209,8.4824,8.4632,8.4632,8.4093,8.3362,8.3362,8.2401,8.117,8.0939,8.0455,7.9853,7.9127,7.9189,7.9247,7.825,7.8348,7.8407,7.7308,7.7169,7.713,7.6476,7.6361,7.6361,7.6361,7.6553,7.663,7.6399,7.6361,7.6284,7.6053,7.6015,7.6015,7.6015,7.6015,7.6015,7.6015,7.4707,7.3808,7.3808,7.3053,7.2206,7.1321,7.1245,7.0783,6.9744,6.9898,6.9219,6.7513,6.7513,6.6974,6.5935,6.5268,6.4409,6.3269,6.2935,6.2447,0.0,0.0,7.6553,8.0813,8.3326,8.5067,8.6108,8.7103,8.7876,8.7986,8.9189,9.0907,9.3184,9.4184,9.5704,9.8754,9.9992,10.0604,10.0604,10.2073,10.2203,9.9325,10.0618,10.119,0.0,10.0406,10.1388,10.298,10.222,10.1723,10.2012,10.3106,10.3507,10.2882,10.3485,10.3405,10.2597,10.252,10.202,10.1212,10.0404,9.9519,9.8596,9.6057,9.4441,9.3518,9.2787,9.1979,9.121,9.121,9.121,9.1133,9.0248,8.9902,8.9787,8.8863,8.8017,8.7286,8.7286,8.6709,8.5978,8.5978,8.544,8.4593,8.3747,8.2901,8.1936,8.0675,8.0334,8.0353,8.0296,7.9685,7.9183,7.9591,7.8477,7.7284,7.7246,7.7246,7.7246,7.7246,7.79,7.8169,7.74,7.7246,7.6976,7.613,7.6015,7.6015,7.6015,7.6015,7.6015,7.6015,7.5207,7.4668,7.4668,7.3937,7.3091,7.2206,7.2168,7.1398,6.9783,7.0437,7.0092,6.85,6.8462,6.7653,6.5996,6.5958,6.5036,6.332,6.4128,6.4549,0.0,0.0,8.1917,8.4254,8.6567,8.8492,8.9119,8.9522,8.9926,9.0368,9.0689,9.11,9.1778,9.3262,9.4983,9.6719,9.9096,10.0994,10.1597,10.3174,10.3198,10.0185,10.1494,0.0,0.0,0.0,0.0,10.2591,10.2204,10.2219,10.269,10.4013,10.4613,10.439,10.4613,10.4789,10.5097,10.4482,10.4097,10.3789,10.1789,10.0212,9.875,9.7288,9.5595,9.3672,9.3403,9.2826,9.2018,9.1441,9.121,9.1171,9.0902,9.0548,9.0224,9.0352,8.9934,8.9286,8.8508,8.8055,8.7791,8.7407,8.6578,8.5582,8.4936,8.379,8.2603,8.2167,8.2053,8.1824,8.0697,8.082,8.0833,7.9292,7.8938,7.8669,7.7553,7.7284,7.713,7.6553,7.713,7.7438,7.6592,7.6899,7.6976,7.613,7.6015,7.6015,7.6015,7.6015,7.6015,7.6015,7.5207,7.5168,7.6322,7.5668,7.5543,7.6409,7.6447,7.5705,7.4088,7.3703,7.2482,7.0271,6.914,6.8292,6.7726,6.6607,6.6017,6.5955,6.5724,6.562,0.0,8.2458,8.5195,8.7886,8.975,9.115,9.1797,9.1873,9.1858,9.1961,9.1507,9.0997,9.0561,9.1918,9.3395,9.4321,9.6793,9.9163,10.0773,10.22,10.2295,10.0412,10.1484,10.1577,0.0,0.0,0.0,10.2591,10.2828,10.3274,10.4186,10.5106,10.5597,10.5597,10.5597,10.579,10.6405,10.579,10.5405,10.5097,10.3097,10.1212,9.9211,9.8365,9.6557,9.4134,9.3826,9.3249,9.2441,9.1902,9.1351,9.0972,9.1279,9.1182,9.0902,9.126,9.1472,9.1337,8.9699,8.9556,8.9906,8.8941,8.8305,8.7735,8.6794,8.5589,8.4381,8.3788,8.3596,8.329,8.1911,8.193,8.19,8.0246,7.9823,7.9515,7.8438,7.7938,7.7553,7.7015,7.7361,7.7438,7.6592,7.6669,7.6746,7.6515,7.6476,7.6361,7.6053,7.6015,7.6015,7.6015,7.5515,7.563,7.6746,7.6352,7.6395,7.7169,7.7544,7.7007,7.5363,7.5054,7.3716,7.1181,6.9791,6.8787,6.817,6.7398,6.7116,6.7298,6.7413,6.7309,8.3232,8.5072,8.6603,9.1487,9.2736,9.3088,9.4081,9.4145,9.3731,9.2802,9.1659,9.058,0.0,0.0,9.1011,9.1969,9.3656,9.5849,9.8653,9.9731,10.0207,0.0,0.0,0.0,0.0,0.0,0.0,10.3198,0.0,10.4982,10.6308,10.6405,10.6405,10.6405,10.6405,10.6405,10.6405,10.6405,10.602,10.5213,10.4289,10.2597,10.0173,9.925,9.7442,9.5057,9.4172,9.3326,9.2559,9.2482,9.1644,9.0534,9.1336,9.1642,9.168,9.1739,9.2563,9.3308,9.0923,9.1171,9.2287,9.0559,9.0538,9.0902,8.9192,8.8077,8.7055,8.544,8.4978,8.4747,8.3901,8.3093,8.2439,8.2324,8.1131,7.9977,7.9823,7.9131,7.8554,7.8515,7.8477,7.8246,7.7553,7.6707,7.6399,7.7246,7.7323,7.6976,7.6169,7.6092,7.6092,7.6053,7.6092,7.613,7.613,7.6202,7.5911,7.5102,7.5863,7.5594,7.3986,7.4604,7.3818,7.1406,7.039,6.9115,6.7531,6.8265,6.8204,6.7425,6.9123,6.9494,8.6087,8.9019,9.1679,9.2524,9.366,9.453,9.4338,9.4108,9.3462,9.1918,8.9759,8.7878,0.0,0.0,0.0,9.1778,9.579,0.0,10.2198,10.3821,0.0,10.1797,0.0,10.1896,9.9829,10.1978,0.0,0.0,10.5006,10.5702,10.6402,10.7021,10.7098,10.6405,10.6405,10.6405,10.6405,10.6405,10.6597,10.6982,10.4905,10.3212,10.1904,9.975,9.8096,9.6788,9.5288,9.4312,9.3667,9.2424,9.1463,9.078,9.1008,9.1083,9.1231,9.222,9.2818,9.3078,9.2812,9.3018,9.3174,9.172,9.1203,9.0811,8.873,8.7788,8.7171,8.6094,8.5786,8.5593,8.4786,8.4863,8.4632,8.2747,8.2477,8.2093,8.0208,7.9631,7.9285,7.8631,7.8477,7.8631,7.9092,7.8438,7.7938,7.8169,7.7669,7.7207,7.6976,7.7476,7.763,7.7015,7.7476,7.7891,7.7911,7.7964,7.8175,7.8708,7.8387,7.7769,7.6698,7.6234,7.5125,7.3242,7.1076,6.9761,6.9336,6.8292,6.801,6.8425,6.9469,6.9866,8.8637,9.1044,9.3062,9.3768,9.4365,9.4516,9.3456,9.2949,9.202,8.9563,8.7471,0.0,0.0,0.0,0.0,0.0,0.0,0.0,10.1887,10.409,10.4691,0.0,10.3709,0.0,10.1689,10.3502,10.5112,0.0,10.6719,10.7308,10.75,10.7598,10.7521,10.7021,10.7021,10.7021,10.7021,10.7021,10.7021,10.7098,10.529,10.3611,10.2117,9.9968,9.8176,9.6681,0.0,9.408,9.3692,9.2421,9.1497,9.0927,9.1306,9.1605,9.1918,9.3066,9.3855,9.4443,9.4752,9.4826,9.4597,9.3083,9.2699,9.2444,9.0052,8.9225,8.8748,8.7132,8.6671,8.6478,8.5632,8.5747,8.567,8.3862,8.4093,8.4093,8.1939,8.117,8.0439,7.8784,7.8477,7.89,8.0169,7.9669,7.9208,7.9592,7.9246,7.8669,7.7938,7.79,7.7938,7.7823,7.8207,7.8522,7.8594,7.8623,7.8924,7.9533,7.9495,7.8952,7.7751,7.721,7.5817,7.338,7.1523,7.0363,6.9976,6.9048,6.9241,7.0479,7.0556,7.0789,9.0749,9.1788,9.2537,9.4666,9.4666,9.3675,9.1877,9.1172,8.992,8.6524,0.0,8.3783,8.2134,8.3901,8.6132,8.7825,0.0,9.6558,10.0497,10.2884,10.4193,10.4004,10.5098,10.5491,10.4911,10.5096,10.6077,10.779,10.871,10.9098,10.8906,10.829,10.7982,10.7905,10.7905,10.779,10.7713,10.7713,10.7172,10.6322,10.54,10.3821,10.1693,10.0013,9.8057,9.5904,9.4313,9.3593,9.3403,9.2595,9.1875,9.1306,9.1938,9.2556,9.3175,9.3939,9.5093,9.6288,9.6288,9.6288,9.6019,9.4403,9.4364,9.4557,9.2095,9.1287,9.0748,8.8517,8.7825,8.7517,8.6671,8.6632,8.6478,8.5209,8.5593,8.5786,8.3978,8.3016,8.1823,7.9592,7.9169,7.9669,8.117,8.0785,8.0554,8.1323,8.1246,8.0592,7.9169,7.8207,7.7861,7.8438,7.8592,7.8714,7.8763,7.8819,7.8926,7.9057,7.9687,7.9376,7.7945,7.7751,7.6204,7.2993,7.1949,7.1021,7.017,6.9938,7.0711,7.2413,7.1523,7.1601,9.1782,9.2425,9.2978,9.3418,9.3418,9.2684,9.0372,8.9464,0.0,0.0,0.0,8.219,8.1261,8.2106,8.4863,9.0671,0.0,0.0,0.0,0.0,10.5892,0.0,0.0,0.0,0.0,0.0,0.0,0.0,11.0302,11.0406,10.8983,10.9483,10.9406,10.8713,10.8713,10.8406,10.7713,10.7713,10.6984,10.5601,10.4774,10.3514,10.198,10.0196,9.8512,9.684,9.579,0.0,9.43,9.3504,9.3113,9.2923,9.2329,9.2899,9.3977,9.4146,9.5072,9.6288,9.6288,9.6288,9.6134,9.5095,9.4864,9.4634,9.2826,9.1787,9.1095,9.0671,9.0017,8.9286,8.844,8.9286,8.9402,8.5747,8.6055,8.6517,8.4132,8.3478,8.3247,8.2785,8.2708,8.2785,8.3093,8.3016,8.2978,8.3131,8.1977,8.1246,8.1593,8.0323,7.9131,7.8554,7.9131,7.9614,7.9759,7.9773,7.9841,7.997,7.948,7.9067,7.8796,7.8061,7.6746,7.4734,7.3148,7.1949,7.1059,6.9667,6.9899,7.1485,7.0634,7.0672,9.2457,9.2904,9.3198,9.3602,9.3051,9.1583,8.8384,0.0,0.0,0.0,0.0,8.0869,8.0578,8.2026,0.0,8.8521,0.0,0.0,0.0,0.0,0.0,0.0,0.0,0.0,0.0,0.0,0.0,0.0,11.0304,11.0794,11.0308,11.0214,10.9983,10.9598,10.9598,10.9213,10.829,10.8015,10.7073,10.5495,10.4799,10.3698,10.2184,10.0487,9.8865,9.7243,9.5961,9.5334,9.5172,9.3909,9.3794,9.4416,9.402,9.4201,9.4693,9.5614,9.6078,9.6288,9.6288,9.6288,9.6249,9.5826,9.5365,9.4749,9.3518,9.2556,9.1787,9.1325,9.0902,9.0479,9.0094,9.0941,9.1248,8.8786,8.8132,8.7478,8.5363,8.4555,8.4132,8.367,8.3593,8.3747,8.4209,8.4286,8.4286,8.4286,8.3593,8.2747,8.1785,8.0623,7.9691,7.9268,7.9614,7.9904,8.0059,8.0459,8.0769,8.0872,8.0498,8.0111,7.9647,7.837,7.6862,7.5121,7.3458,7.2375,7.1949,7.0711,7.0982,7.2645,7.1756,7.1626,9.2495,9.2867,9.2941,9.3382,9.2391,9.0261,8.6323,8.4737,0.0,0.0,0.0,8.0182,8.0201,0.0,8.3945,0.0,8.8841,0.0,0.0,0.0,0.0,0.0,0.0,0.0,0.0,0.0,0.0,0.0,11.0118,11.0802,11.15,11.0906,11.0483,11.0483,11.0291,10.9709,10.8679,10.8083,10.6808,10.5102,10.46,10.3587,10.2202,10.0703,9.9117,9.741,9.5908,9.547,9.5692,9.4388,9.4524,9.5598,9.5466,9.5442,9.5672,9.6826,9.7057,9.6826,9.6634,9.6557,9.6519,9.6365,9.5711,9.4864,9.4172,9.3287,9.2441,9.2095,9.1864,9.1748,9.1748,9.2364,9.271,9.1479,9.0056,8.8517,8.6978,8.6017,8.5247,8.4555,8.4247,8.4362,8.5055,8.517,8.517,8.517,8.5033,8.4125,8.1932,8.0799,8.0088,7.9716,7.9664,7.9783,8.0074,8.0898,8.1427,8.1491,8.1491,8.1117,8.0227,7.895,7.7326,7.543,7.427,7.3496,7.3148,7.2452,7.2822,7.4182,7.3147,7.2793,9.1341,9.165,9.1767,9.1106,9.0298,8.8573,8.4535,0.0,0.0,7.9703,7.9961,8.0632,8.0278,0.0,0.0,0.0,0.0,8.9981,0.0,0.0,0.0,0.0,0.0,0.0,0.0,0.0,0.0,11.0308,11.05,11.0802,11.15,11.1406,11.1406,11.1406,11.0598,10.9518,10.8115,10.7225,10.5806,10.3903,10.3802,10.2998,10.1603,10.071,9.9266,9.7447,9.6509,9.5815,0.0,9.5264,9.5623,9.6155,9.5347,9.5962,9.7211,9.6634,9.7326,9.8442,9.7673,9.7403,9.7288,9.6557,9.5711,9.498,9.4903,9.3749,9.2787,9.4249,9.4057,9.348,9.348,9.4095,9.4172,9.1787,9.0479,8.9556,8.8632,8.7786,8.7132,8.7055,8.6401,8.5901,8.5978,8.5978,8.5978,8.5978,8.5427,8.4628,8.3588,8.2121,8.0624,7.9134,7.8888,7.9144,8.0035,8.0898,8.1427,8.1491,8.1491,8.1117,8.0227,8.0072,7.8796,7.632,7.69,7.6436,7.4889,7.4811,7.4911,7.5127,7.3544,7.3255,9.0784,9.1502,9.162,9.0812,8.8904,8.6589,8.4084,0.0,0.0,7.8746,7.9013,7.9501,7.9471,7.9532,8.0015,8.1474,8.3062,0.0,9.0634,0.0,0.0,0.0,0.0,0.0,0.0,0.0,0.0,10.9301,11.0101,11.0181,10.9581,11.0422,11.0707,11.0209,10.9787,10.8703,10.6708,10.6003,10.503,10.3711,10.3316,10.2487,10.1495,10.102,9.9818,9.7932,9.7446,9.6996,0.0,9.6152,9.6366,9.7057,9.7211,9.7365,9.7596,9.8327,9.8673,9.875,9.8404,9.8288,9.8134,9.7288,9.6442,9.5595,9.4518,9.3403,9.2633,9.3287,9.3595,9.371,9.371,9.4326,9.448,9.2441,9.2095,9.1556,8.921,8.844,8.8017,8.7517,8.6709,8.6094,8.6094,8.6094,8.6094,8.6094,8.5906,8.5414,8.4605,8.309,8.1721,8.0551,7.9443,7.8799,7.8669,7.9919,8.0692,8.0717,8.073,8.0575,8.0227,7.9221,7.7983,7.6436,7.6243,7.5779,7.5109,7.5109,7.5154,7.528,7.5163,7.4806,8.9307,9.0582,9.1179,9.0152,8.7839,8.534,0.0,0.0,7.9157,7.8341,7.8585,7.8953,7.8954,7.8954,7.8978,7.8954,8.0245,8.2557,8.6202,0.0,0.0,0.0,0.0,0.0,0.0,0.0,10.7696,10.8183,10.9076,10.9106,10.7974,10.8508,10.8692,10.8308,10.8003,10.6898,10.4794,10.4079,10.3388,10.2703,10.2191,10.1718,10.1087,10.069,9.966,9.8291,9.7749,9.7367,0.0,9.6519,9.6634,9.725,9.8096,9.8211,9.8057,9.9558,9.9865,9.9519,9.925,9.9019,9.8673,9.7788,9.698,9.6019,9.4518,9.3326,9.2479,9.2479,9.3095,9.3749,9.4018,9.4326,9.4249,9.2826,9.2941,9.2633,8.9979,8.9248,8.8786,8.794,8.7094,8.6401,8.6132,8.611,8.6126,8.6126,8.6223,8.5992,8.5182,8.3909,8.2779,8.1891,8.0306,7.9056,7.8486,7.9763,8.0575,8.0575,8.0575,8.0382,7.9879,7.895,7.779,7.6436,7.6552,7.6359,7.5856,7.6359,7.6278,7.5716,7.6621,7.6376,8.632,8.8412,9.0225,8.861,8.6995,8.5227,0.0,0.0,8.0358,7.8906,7.9088,7.9372,7.8879,7.8904,7.8603,7.7335,7.849,8.0951,8.5031,8.7044,0.0,0.0,0.0,0.0,0.0,0.0,10.7424,10.7424,10.7387,0.0,10.7073,10.5705,10.5297,10.588,10.5084,10.4,10.2498,10.1677,10.091,10.0307,10.0307,10.0307,10.0305,9.9231,9.8568,9.8253,9.7177,9.6563,0.0,9.6288,9.6288,9.6403,9.7211,9.8057,9.8904,9.9788,10.0596,10.1212,10.0404,9.9519,9.8673,9.7788,9.698,9.6134,9.5249,9.3826,9.2479,9.2479,9.3095,9.3903,9.4749,9.4326,9.3518,9.2672,9.2518,9.2287,9.1364,9.0517,8.9671,8.8825,8.7979,8.7094,8.6247,8.6159,8.6184,8.6184,8.636,8.6191,8.5302,8.4559,8.3747,8.2857,8.1233,8.0188,8.0188,8.1001,8.1491,8.1491,8.1491,8.073,7.9067,7.9763,7.8989,7.6436,7.8873,7.9337,7.7674,7.9337,7.8912,7.66,7.763,7.777,8.4055,8.5474,8.6261,8.5196,8.3287,8.1521,8.0782,0.0,7.794,7.8034,7.8394,7.8633,7.8485,7.8485,7.857,7.8713,8.0134,8.1657,0.0,0.0,0.0,0.0,0.0,0.0,0.0,0.0,10.8274,10.841,10.7792,10.6877,10.5891,10.4302,10.3687,10.4399,10.3111,10.1602,10.0206,9.9385,9.9137,9.9489,9.9489,9.9361,9.9193,9.9208,9.8508,9.7253,9.7848,9.775,9.7134,9.7134,9.7134,9.7134,9.7403,9.7673,9.8096,9.9558,10.0289,10.0404,10.0173,9.9904,9.9442,9.798,9.7326,9.6865,9.5441,9.421,9.321,9.2633,9.2249,9.2326,9.3749,9.348,9.2826,9.2556,9.2903,9.2941,9.1518,9.0979,9.0556,8.971,8.8414,8.7561,8.7886,8.7063,8.6532,8.7071,8.679,8.6384,8.6114,8.5409,8.4792,8.4521,8.3515,8.2122,8.0343,8.0459,8.0614,8.0614,8.0614,8.015,7.9028,7.868,7.8099,7.7287,7.8061,7.8796,7.9415,7.9956,7.9842,7.9173,7.8616,7.8534,0.0,8.25,8.3508,8.27,8.1122,0.0,0.0,0.0,7.6823,7.7694,7.7792,7.7821,7.8118,7.8193,7.8341,7.8861,7.9882,0.0,0.0,0.0,0.0,0.0,0.0,0.0,0.0,10.7477,10.7773,10.7923,10.6804,10.5606,10.4282,10.2387,10.1486,10.2,10.0989,9.971,9.8152,9.8003,9.8152,9.8635,9.83,9.8192,9.8235,9.8168,9.7591,9.6745,9.7517,9.7711,0.0,9.7173,9.725,9.7519,9.7519,9.7519,9.7711,9.9442,9.9865,9.9635,9.9981,9.9673,9.8942,9.7865,9.7288,9.6788,9.5403,9.4172,9.3133,9.2633,9.1864,9.1518,9.2903,9.2633,9.2018,9.2018,9.2402,9.2364,9.1018,9.0997,9.0877,8.9722,8.8942,8.8582,8.8791,8.8043,8.7432,8.7663,8.7311,8.689,8.6581,8.5809,8.5449,8.5759,8.4792,8.3554,8.2238,8.1542,8.1194,8.1194,8.0885,8.0188,7.9067,7.8486,7.8022,7.7713,7.8022,7.8834,8.0188,8.0245,8.0524,8.0999,7.9564,7.9325,0.0,0.0,0.0,0.0,0.0,0.0,0.0,0.0,0.0,7.7698,7.7282,7.7051,7.7866,7.8014,7.7986,7.806,0.0,0.0,0.0,8.5483,0.0,0.0,0.0,0.0,10.391,10.5508,10.6511,10.6511,10.4913,10.3613,10.2796,10.0418,9.9118,9.9118,9.9043,9.8226,9.6629,9.7334,9.7741,9.7775,9.6957,9.6873,9.7411,9.6361,9.6146,0.0,9.6462,9.6826,9.7519,9.6788,9.6942,9.7673,9.7557,9.7519,9.7711,9.9327,9.9404,9.8827,9.9635,9.8865,9.748,9.7442,9.6903,9.6134,9.5249,9.3864,9.2556,9.2518,9.1864,9.1402,9.221,9.1825,9.121,9.121,9.121,9.0979,9.0171,9.068,9.0862,8.936,8.9694,8.9988,8.9293,8.9083,8.8794,8.8098,8.7961,8.7615,8.6803,8.5952,8.572,8.6532,8.5217,8.4611,8.5436,8.3915,8.2857,8.278,8.1968,8.0769,7.9067,7.895,7.8537,7.7736,7.865,7.9501,8.0314,8.0437,8.1045,8.2049,8.0423,8.0178,0.0,0.0,0.0,0.0,0.0,0.0,0.0,0.0,0.0,0.0,0.0,7.6909,7.7838,7.7928,7.8064,0.0,0.0,0.0,8.3928,0.0,0.0,0.0,10.1793,10.4319,10.4913,10.6399,10.7328,10.7328,10.5285,10.391,10.3687,10.0789,9.9118,9.9118,9.8486,9.7669,9.6629,9.6183,9.6191,9.6631,9.6406,9.6487,9.6904,9.6605,9.6429,9.6405,9.6981,9.7711,9.8481,9.8288,9.8711,9.9365,9.8019,9.7519,9.7557,9.7942,9.798,9.7827,9.8057,9.7827,9.7403,9.6788,9.6442,9.6134,9.5249,9.4249,9.3287,9.2672,9.1864,9.1248,9.1441,9.1364,9.121,9.121,9.1224,9.1236,9.1005,9.1187,9.1445,9.1715,9.0968,9.0604,9.1685,9.0368,8.929,8.9715,8.8723,8.7847,8.7615,8.6842,8.6377,8.6571,8.6261,8.639,8.7364,8.5188,8.3515,8.2819,8.1968,8.0769,7.9067,7.837,7.796,7.7855,7.9398,8.0637,8.1493,8.1639,8.1792,8.1917,8.1068,8.1084,0.0,0.0,0.0,0.0,0.0,0.0,0.0,0.0,0.0,0.0,0.0,7.6322,7.7649,7.8137,0.0,0.0,8.057,0.0,0.0,0.0,0.0,0.0,10.3316,10.5099,0.0,10.6808,10.6919,10.6511,10.4207,10.2907,10.2907,10.0084,9.856,9.856,9.8115,9.7483,9.6629,9.641,9.6692,9.7365,9.643,9.6435,9.7219,9.6455,9.618,9.6326,9.7134,9.798,9.8788,9.8788,9.9288,9.9904,9.8173,9.7519,9.7519,9.7519,9.7288,9.7019,9.7365,9.725,9.6865,9.6497,9.6361,9.6245,9.5837,9.5122,9.4163,9.2843,9.2172,9.171,9.1287,9.1245,9.1241,9.1241,9.1308,9.1242,9.0873,9.1168,9.1485,9.1562,9.1252,9.1233,9.2146,9.1223,9.0362,9.04,8.9627,8.8776,8.8002,8.7499,8.7035,8.6648,8.6647,8.7087,8.8041,8.6467,8.5058,8.4243,8.3359,8.1757,7.931,7.9077,7.8898,7.8598,7.9922,8.1076,8.1992,8.2078,8.2095,8.2092,8.1752,8.1795,0.0,0.0,0.0,0.0,0.0,0.0,0.0,0.0,0.0,0.0,0.0,0.0,0.0,7.8603,0.0,0.0,0.0,0.0,9.1284,9.4102,9.7446,10.2498,10.339,0.0,10.6511,10.6288,10.5693,10.4913,10.261,10.131,10.131,9.9155,9.7998,9.8213,9.8101,9.7722,9.7077,9.7342,9.7839,9.8568,9.6782,9.6537,9.7598,9.6205,9.5841,9.6326,0.0,0.0,9.8788,9.8673,9.9173,9.9904,9.8173,9.7519,9.748,9.7365,9.6903,9.6403,9.7076,9.6883,9.6325,9.6394,9.6411,9.6446,9.6525,9.6072,9.5168,9.345,9.2772,9.234,9.1437,9.1275,9.1325,9.1325,9.1352,9.1261,9.0721,9.1245,9.1653,9.1189,9.1518,9.1948,9.2064,9.187,9.1459,9.0726,9.0507,8.994,8.8545,8.8132,8.7744,8.7125,8.7036,8.7438,8.8485,8.7758,8.6941,8.6301,8.5019,8.2779,7.9343,7.9751,7.984,7.945,8.0124,8.0991,8.2113,8.2113,8.2171,8.2304,8.2148,8.2109,6.9559,7.1174,7.2349,7.1651,0.0,0.0,0.0,0.0,0.0,0.0,0.0,0.0,0.0,7.9319,7.9455,0.0,0.0,8.9251,0.0,0.0,9.7037,9.8635,0.0,10.2015,10.2424,10.3613,10.4022,10.313,10.1495,10.0492,10.0492,9.882,9.8426,9.9541,9.8936,9.8764,9.9141,9.8065,9.7677,9.8015,9.7019,9.6549,9.654,9.6271,9.6232,9.6326,0.0,9.7365,9.875,9.8019,9.8634,9.9904,9.8173,9.7519,9.7403,9.6749,9.6403,9.6345,9.6495,9.6492,9.6394,9.6442,9.6476,9.6525,9.6701,9.6668,9.6372,9.5489,9.3981,9.247,9.1583,9.1368,9.1384,9.1384,9.1485,9.1739,9.228,9.261,9.3171,9.4448,9.3674,9.3031,9.3688,9.2644,9.1682,9.1672,9.1085,9.0615,9.0469,8.9169,8.8469,8.906,8.8491,8.8755,9.0495,8.9181,8.8279,8.8275,8.5184,8.1876,7.8447,7.7831,7.8178,7.9548,7.9748,8.0622,8.2264,8.2264,8.2265,8.2265,8.1523,8.1211,6.8605,6.9963,7.1321,7.1835,7.3618,0.0,0.0,0.0,0.0,0.0,0.0,0.0,0.0,0.0,8.2997,8.7401,0.0,9.0798,9.4228,9.5072,9.6257,0.0,0.0,10.1198,10.209,10.2796,10.2796,10.1495,10.0307,9.9776,10.0076,9.895,9.8748,9.9686,9.8923,9.8751,9.9365,9.7831,9.7807,9.9305,9.7827,9.7325,9.7634,9.6711,9.6288,9.6326,0.0,9.7634,9.875,9.8365,9.8942,9.9904,9.8173,9.7519,9.7441,9.6724,9.6536,9.6668,9.6708,9.669,9.6652,9.6687,9.6715,9.6743,9.6875,9.6977,9.6877,9.6001,9.5079,9.411,9.3139,9.2971,9.301,9.2859,9.2604,9.2586,9.3359,9.2886,9.2644,9.3921,9.3581,9.3231,9.3619,9.3076,9.2647,9.2693,9.2009,9.1334,9.0943,9.0216,8.967,8.9599,8.9309,8.9637,9.1002,8.9586,8.8237,8.7383,8.4437,8.1795,7.9765,7.8458,7.8388,7.9639,7.9686,8.0547,8.2304,8.2304,8.207,8.1601,8.1172,8.0742,6.8385,6.9559,7.0991,7.2451,0.0,0.0,0.0,0.0,0.0,0.0,0.0,0.0,0.0,8.3898,0.0,9.1618,9.1853,9.2488,9.5554,9.544,9.6294,9.9638,10.0009,10.0604,10.2015,10.2015,10.1418,10.0292,9.9435,9.9249,9.9803,9.9231,9.9074,9.949,9.8844,9.868,9.908,9.7817,9.8085,9.9791,9.8056,9.7557,9.8173,9.6903,9.6288,9.6326,9.696,9.7749,9.8518,9.8344,9.8786,9.9402,9.7914,9.7346,9.7346,9.6848,9.6827,9.7012,9.7021,9.6963,9.6858,9.6966,9.6988,9.6998,9.7091,9.7216,9.7174,9.6425,9.617,9.5811,9.4521,9.4137,9.4046,9.3891,9.3413,9.3224,9.4037,9.3242,9.2663,9.3722,9.3741,9.3551,9.3551,9.3483,9.3347,9.3185,9.26,9.1949,9.1354,9.1125,9.0813,9.035,9.0371,9.0635,9.1104,8.9839,8.8125,8.6015,8.3633,8.1914,8.1054,7.9375,7.8789,7.9414,7.9414,8.0273,8.1992,8.1797,8.1562,8.1289,8.0898,8.0469,7.044,7.1688,7.2561,7.355,7.3394,0.0,7.8719,7.9356,0.0,8.2838,0.0,0.0,0.0,8.7053,8.9086,9.0467,9.3004,9.5457,9.7411,0.0,9.8003,9.9043,9.9192,9.9526,10.0418,9.9786,9.9507,9.9905,9.918,9.9005,9.9601,9.9552,9.944,9.9235,9.9182,9.9026,9.8827,9.8712,9.8327,9.7712,9.6808,9.6442,9.648,9.6365,9.6288,9.6326,9.6417,9.6954,9.7724,9.6982,9.717,9.7898,9.7165,9.6924,9.7032,9.6974,9.6993,9.7021,9.7065,9.7074,9.7104,9.7232,9.7278,9.7309,9.7432,9.7468,9.7468,9.7386,9.7386,9.6892,9.4743,9.364,9.3084,9.307,9.3017,9.3224,9.4037,9.4253,9.4796,9.6399,9.5563,9.4598,9.4598,9.395,9.3185,9.2581,9.2436,9.2382,9.2458,9.1756,9.1561,9.2304,9.2382,9.2109,9.1367,9.0429,8.8515,8.5195,8.3281,8.1914,8.1054,7.9375,7.8515,7.8594,7.8594,7.9414,8.1094,8.0273,8.0703,8.2187,8.0547,8.0195,6.8788,7.045,7.2225,7.3615,7.4228,0.0,0.0,8.2351,8.3627,8.5752,8.686,0.0,0.0,0.0,9.2365,9.2765,9.4592,9.6486,9.7743,9.7892,9.8189,9.9006,9.9118,9.9229,9.9526,9.9266,9.8907,9.8436,9.8123,9.8119,9.8527,9.8538,9.8662,9.8953,9.8437,9.8095,9.798,9.748,9.7096,9.6749,9.6942,9.7057,9.7019,9.6519,9.6325,9.634,9.6376,9.693,9.7693,9.697,9.719,9.7877,9.718,9.7078,9.7246,9.7246,9.7348,9.7448,9.7454,9.7073,9.6552,9.6602,9.6607,9.6612,9.6687,9.7118,9.7598,9.7427,9.7382,9.7057,9.5584,9.4962,9.4576,9.3886,9.3766,9.3861,9.4304,9.4024,9.39,9.4608,9.4803,9.4817,9.4817,9.4669,9.4428,9.417,9.3234,9.2534,9.2578,9.2304,9.2226,9.2578,9.2617,9.2265,9.1367,9.1015,8.957,8.6719,8.4883,8.3047,8.1094,7.9883,7.9258,7.9258,7.875,7.9062,8.0195,8.039,8.0586,8.0664,8.0547,8.039,6.876,7.0192,7.1959,7.3711,0.0,0.0,8.251,8.4571,8.6264,8.9095,8.9099,0.0,0.0,0.0,0.0,0.0,9.4994,9.6443,9.7037,9.7112,9.7297,9.7855,9.7929,9.7998,9.8162,9.8162,9.8033,9.764,9.7621,9.7791,9.8184,9.8189,9.826,9.8404,9.7827,9.7365,9.7134,9.6596,9.6288,9.6326,9.6902,9.7133,9.7096,9.6556,9.6379,9.6394,9.6463,9.6889,9.7488,9.7018,9.7242,9.781,9.7324,9.7283,9.7497,9.7497,9.7563,9.7656,9.7422,9.6869,9.6261,9.5988,9.6066,9.6298,9.6237,9.6897,9.7651,9.7382,9.7142,9.6713,9.5728,9.5426,9.5234,9.4521,9.4147,9.4001,9.4115,9.3734,9.3422,9.3803,9.4263,9.4584,9.4584,9.4683,9.4687,9.4414,9.3359,9.2617,9.2617,9.2617,9.2695,9.2969,9.2773,9.2344,9.1758,9.1445,9.0195,8.7656,8.6133,8.414,8.1523,8.0586,7.9961,7.9726,7.9414,7.957,8.0117,8.0976,8.1094,8.0547,8.1133,8.0937,7.1029,7.1581,7.215,7.3976,0.0,0.0,8.445,8.5632,8.7267,9.3025,9.0982,8.8901,9.1279,0.0,0.0,9.1316,9.3768,9.5403,9.5403,9.5403,9.5403,9.5403,9.5403,9.5595,9.6148,9.6208,9.6696,9.7799,9.7868,9.8167,9.8731,9.8788,9.8365,9.7519,9.748,9.7096,9.6326,9.6288,9.6288,9.6288,9.6358,9.634,9.6288,9.6358,9.6394,9.6411,9.6635,9.6778,9.6924,9.6982,9.7216,9.7479,9.7479,9.7596,9.7695,9.7695,9.7695,9.7578,9.6758,9.6484,9.6328,9.5469,9.5781,9.6444,9.625,9.6897,9.7612,9.7343,9.6775,9.5976,9.4966,9.4599,9.4532,9.4653,9.4028,9.3397,9.3405,9.3504,9.3845,9.4704,9.4323,9.3906,9.3906,9.3906,9.3594,9.2734,9.2617,9.2617,9.2617,9.2617,9.2929,9.3789,9.3125,9.2617,9.2617,9.1797,9.0234,8.7695,8.6719,8.5039,8.2422,8.1484,8.0586,7.9726,8.0547,8.1015,8.1015,8.1875,8.2304,8.2304,8.2304,8.1836,6.9273,7.0893,7.3024,7.4115,0.0,0.0,0.0,8.7341,0.0,0.0,9.4028,9.2431,9.2579,0.0,0.0,9.1688,9.3322,9.4734,9.5328,9.5403,9.5403,9.5403,9.5721,9.6032,9.6178,9.6554,9.6904,9.7059,9.7066,9.7035,9.7038,9.7057,9.6903,9.6673,9.6673,9.6557,9.6288,9.6288,9.6325,9.6358,9.576,9.5798,9.6358,9.6446,9.6583,9.6771,9.6811,9.6971,9.7182,9.7305,9.7468,9.7651,9.7651,9.7654,9.7617,9.707,9.6875,9.6719,9.5898,9.5195,9.4648,9.4375,9.4453,9.4648,9.4606,9.5662,9.6795,9.6574,9.6367,9.6145,9.5846,9.4836,9.3704,9.3029,9.3132,9.3276,9.2818,9.2737,9.2844,9.3194,9.3123,9.3164,9.3789,9.3906,9.3828,9.3554,9.3008,9.2617,9.2617,9.2617,9.2695,9.2969,9.2734,9.2617,9.2617,9.2344,9.1367,8.9375,8.789,8.5937,8.332,8.1797,8.0898,8.0625,8.0859,8.1015,8.1015,8.25,8.2578,8.1406,8.1992,8.1484,7.1168,7.2865,7.516,7.6977,8.0188,8.396,8.7861,0.0,0.0,0.0,0.0,9.3768,9.3917,9.2876,0.0,9.2171,9.3062,9.3879,9.4362,9.4437,9.4437,9.4437,9.494,9.5351,9.5546,9.6093,9.6467,9.6542,9.6546,9.6478,9.6308,9.6288,9.6288,9.6288,9.5978,9.5842,9.5842,9.5532,9.5431,9.5444,9.4938,9.502,9.5571,9.598,9.6408,9.6885,9.6702,9.6897,9.7355,9.7181,9.714,9.7265,9.7578,9.7304,9.6679,9.6562,9.6289,9.5859,9.5,9.4336,9.3828,9.3515,9.3633,9.3906,9.3821,9.4802,9.5936,9.5743,9.5508,9.529,9.529,9.4235,9.3135,9.2862,9.2962,9.2979,9.2551,9.2478,9.2486,9.2577,9.2617,9.2773,9.3281,9.3398,9.3398,9.3398,9.2929,9.2617,9.2617,9.2617,9.2617,9.2617,9.2617,9.2617,9.2617,9.2617,9.1992,9.0586,8.8906,8.6953,8.4726,8.2969,8.2031,8.2031,8.2695,8.289,8.2539,8.3945,8.375,8.2031,8.2578,8.1875,7.4994,7.63,7.7969,8.11,8.3366,0.0,9.0759,9.3619,9.5514,9.622,0.0,9.3619,9.5031,9.2802,9.1205,9.2653,9.2951,9.2951,9.2876,9.2876,9.2876,9.2876,9.3356,9.3822,9.4325,9.4967,9.5606,9.6135,9.6249,9.6288,9.6172,9.6249,9.6211,9.6114,9.5455,9.5066,9.5007,9.4244,9.3885,9.3917,9.3879,9.4005,9.4257,9.5177,9.6054,9.6821,9.6307,9.6553,9.722,9.6637,9.6367,9.6445,9.7187,9.6523,9.5273,9.6015,9.5742,9.4961,9.4062,9.3789,9.3633,9.2851,9.3125,9.3749,9.3561,9.4243,9.5038,9.485,9.436,9.3906,9.3906,9.3242,9.2812,9.3594,9.3164,9.2617,9.2617,9.2539,9.25,9.2578,9.2539,9.25,9.2578,9.2617,9.2617,9.2617,9.2617,9.2617,9.2617,9.2617,9.2617,9.2617,9.2617,9.2617,9.2617,9.2617,9.2265,9.1484,8.9765,8.8086,8.6484,8.4687,8.3632,8.3476,8.5155,8.5662,8.4881,8.574,8.5271,8.3553,8.3553,8.2577,7.3792,7.5936,7.8499,8.0468,8.4629,8.9013,9.2022,9.3619,9.4511,9.4697,9.4808,9.4808,9.4511,9.3359,9.2356,9.2022,9.2542,9.2765,9.2096,9.1985,9.1985,9.1985,9.225,9.2505,9.2607,9.4135,9.5118,9.5288,9.5903,9.6019,9.5326,9.5942,9.5709,9.4471,9.4874,9.4831,9.4222,9.339,9.3083,9.3284,9.2612,9.2738,9.3622,9.5076,9.597,9.6324,9.5682,9.5505,9.5661,9.5546,9.5469,9.5508,9.5664,9.5508,9.5156,9.4648,9.4336,9.4062,9.3164,9.289,9.2851,9.2656,9.2734,9.2851,9.281,9.3436,9.4179,9.4138,9.4022,9.3906,9.3906,9.3242,9.2656,9.2851,9.2734,9.2617,9.2617,9.207,9.1797,9.2461,9.2031,9.1797,9.2461,9.2617,9.2617,9.2617,9.2617,9.2617,9.2617,9.2617,9.2617,9.2617,9.2617,9.2617,9.2617,9.2617,9.2539,9.2344,9.0664,8.9216,8.8056,8.5749,8.3836,8.2469,8.4013,8.4756,8.46,8.5458,8.499,8.3308,8.3308,8.2023,7.4413,7.6939,8.0208,8.344,0.0,9.0796,9.2059,9.3322,9.4102,9.3694,9.4585,9.5143,9.4362,9.3842,9.3174,9.191,9.2096,9.2059,9.1242,9.113,9.1221,9.1497,9.1881,9.2201,9.248,9.3616,9.4364,9.4364,9.4788,9.4883,9.4475,9.4898,9.4587,9.3362,9.2971,9.2634,9.2218,9.1014,9.0699,9.1307,9.0891,9.1226,9.2357,9.4439,9.5494,9.5688,9.492,9.4804,9.5156,9.4765,9.4336,9.3984,9.4414,9.3828,9.2695,9.2656,9.2383,9.2031,9.1992,9.1992,9.2031,9.2461,9.2617,9.2617,9.2617,9.2929,9.3281,9.3281,9.3281,9.3281,9.3281,9.2929,9.2617,9.2617,9.2617,9.2617,9.2617,9.2226,9.207,9.25,9.2226,9.207,9.2539,9.2617,9.2617,9.2617,9.2617,9.2617,9.2617,9.2617,9.2617,9.2617,9.2534,9.2487,9.2487,9.2426,9.2372,9.2372,9.1159,9.0008,8.9062,8.7676,8.5798,8.3284,8.4863,8.5494,8.5111,8.515,8.4715,8.3819,8.3384,8.229,7.5118,7.809,8.2028,8.6709,8.957,0.0,9.1465,9.2579,9.3359,9.2691,9.3954,9.4957,9.414,9.3879,9.3285,9.1725,9.1613,9.1316,9.0239,9.0409,9.0652,9.0671,9.1215,9.171,9.2002,9.2661,9.3056,9.3056,9.3172,9.3246,9.3235,9.335,9.2977,9.1901,9.0705,9.0001,8.99,8.8286,8.8088,8.9197,8.9272,8.984,9.0976,9.3084,9.4241,9.4492,9.375,9.3867,9.4492,9.3906,9.3164,9.2461,9.3164,9.2031,9.0078,9.082,9.0703,9.0312,9.0898,9.1289,9.1601,9.2187,9.2461,9.2617,9.2617,9.2617,9.2617,9.2617,9.2617,9.2617,9.2617,9.2617,9.2617,9.2617,9.2617,9.2617,9.2617,9.2461,9.2422,9.2578,9.2617,9.2617,9.2617,9.2617,9.2617,9.2617,9.2577,9.2577,9.2577,9.2534,9.2493,9.2493,9.2421,9.2346,9.2346,9.2189,9.208,9.208,9.1495,9.0702,8.9815,8.9663,8.8128,8.4903,8.6234,8.6545,8.5696,8.4988,8.456,8.4404,8.3696,8.2815,7.3298,7.7682,8.2623,8.6115,8.8307,8.9793,0.0,0.0,9.0945,0.0,9.2691,9.4102,9.3322,9.2542,9.1725,9.0796,9.1242,9.0945,8.8716,9.0027,9.0417,8.8335,8.8929,8.9248,8.8624,8.9668,9.0402,9.0402,9.1133,9.1245,9.056,9.1231,9.068,8.8533,8.8919,8.8871,8.8207,8.6627,8.668,8.846,8.8699,8.9252,9.0155,9.0506,9.1093,9.1797,9.1719,9.1719,9.1875,9.25,9.2265,9.1484,9.1601,9.0976,9.0,9.0117,9.0586,9.1054,9.039,9.1172,9.2304,9.1679,9.1992,9.2617,9.2617,9.2617,9.2617,9.2617,9.2617,9.2617,9.2617,9.2617,9.2617,9.2617,9.2617,9.2617,9.2617,9.1992,9.1719,9.2461,9.2617,9.2617,9.2617,9.2617,9.2617,9.2617,9.2486,9.2421,9.2421,9.2276,9.2177,9.2177,9.2159,9.2152,9.2152,9.2132,9.208,9.208,9.2002,9.1514,9.0606,9.0537,8.9199,8.6364,8.6519,8.6209,8.5369,8.5241,8.4815,8.4168,8.4052,8.3186,7.4635,7.8313,8.2028,8.5298,8.7378,8.8827,8.9644,9.0164,9.0499,9.0499,9.1353,9.2022,9.165,9.165,9.1428,9.061,9.0796,9.044,8.8727,8.8944,8.8845,8.7871,8.814,8.842,8.8346,8.8874,8.9248,8.9248,8.9594,8.9701,8.9408,8.9292,8.8598,8.7174,8.6556,8.6146,8.5878,8.4707,8.4832,8.6293,8.698,8.7226,8.7148,8.7656,8.8867,9.0586,9.1094,9.1015,9.0625,9.1523,9.1054,8.9804,8.9336,8.8945,8.8554,8.8047,8.8437,8.9179,8.9258,9.0078,9.1172,9.1289,9.1875,9.2617,9.2617,9.2617,9.2617,9.2617,9.2617,9.2617,9.2617,9.2617,9.2617,9.2617,9.2617,9.2461,9.1992,9.1953,9.2148,9.2539,9.2617,9.2617,9.2617,9.2617,9.2617,9.2617,9.2482,9.2404,9.2404,9.2206,9.208,9.208,9.2035,9.1974,9.1974,9.1908,9.1872,9.1872,9.1872,9.1672,9.1282,9.1243,9.0456,8.8776,8.7809,8.6648,8.5294,8.483,8.4443,8.4095,8.3592,8.2726,7.4561,7.731,7.9948,8.3217,8.5446,8.7155,0.0,0.0,8.931,0.0,8.9384,8.931,8.9533,9.0573,9.1205,9.061,9.0589,9.0272,8.8992,8.8533,8.8153,8.7624,8.7693,8.7849,8.8038,8.8017,8.8017,8.8017,8.8051,8.8117,8.8259,8.7476,8.6697,8.5991,8.4607,8.3917,8.3981,8.3615,8.3759,8.4424,8.5426,8.5547,8.4922,8.5586,8.6914,8.875,8.9844,8.9961,8.9453,9.0547,9.0078,8.8633,8.8047,8.7539,8.7109,8.6679,8.6953,8.7578,8.8203,8.9258,9.039,9.082,9.1719,9.2617,9.2617,9.2617,9.2617,9.2617,9.2617,9.2617,9.2617,9.2617,9.2617,9.2617,9.2617,9.2344,9.1484,9.1797,9.2187,9.1992,9.2265,9.2496,9.2262,9.2373,9.2564,9.2757,9.251,9.2412,9.2875,9.2565,9.2342,9.2342,9.2237,9.2088,9.1855,9.176,9.1716,9.1716,9.1716,9.1716,9.1716,9.1716,9.129,9.04,8.9163,8.7809,8.63,8.5681,8.5178,8.4714,8.3824,8.2857,7.0747,7.3038,7.5713,7.8982,8.1657,8.4072,0.0,0.0,8.6078,8.6821,8.6375,8.6078,8.6858,8.8938,9.0536,9.0499,9.0923,9.0699,8.9039,8.9649,8.9401,8.704,8.7156,8.7115,8.6324,8.6247,8.6247,8.6247,8.6291,8.637,8.6538,8.5887,8.5119,8.4263,8.3589,8.3182,8.3048,8.41,8.4307,8.3671,8.4531,8.4922,8.4883,8.4961,8.5039,8.5273,8.6953,8.7656,8.7773,8.9375,8.9531,8.8711,8.8633,8.7656,8.6367,8.7148,8.7461,8.75,8.7539,8.9179,9.1094,9.0312,9.1211,9.2617,9.2617,9.2617,9.2617,9.2617,9.2617,9.2617,9.2617,9.2617,9.2617,9.2617,9.2617,9.2344,9.1484,9.1328,9.1133,9.0312,9.1353,9.2138,9.1318,9.1715,9.2412,9.3231,9.2546,9.2529,9.42,9.3555,9.2957,9.2957,9.2943,9.2619,9.1782,9.1677,9.1716,9.1716,9.1716,9.1716,9.1716,9.1716,9.129,9.04,9.0323,8.9859,8.9008,8.8969,8.8079,8.6455,8.5565,8.4289,0.0,7.2332,7.4338,7.6567,7.9354,8.1954,8.3366,8.5075,8.6449,8.6747,8.7007,8.7267,8.7564,8.7898,8.858,9.0012,8.9497,8.8947,8.899,8.8412,8.754,8.6445,8.6471,8.644,8.6132,8.6094,8.6094,8.6094,8.6298,8.6209,8.572,8.5087,8.4393,8.3559,8.2791,8.2395,8.2424,8.2896,8.3044,8.2773,8.3633,8.3789,8.3242,8.3828,8.375,8.3281,8.4492,8.5312,8.5976,8.7695,8.789,8.7109,8.7109,8.707,8.6992,8.6758,8.7031,8.75,8.75,8.8789,9.039,9.0117,9.1172,9.2617,9.2617,9.2617,9.2617,9.2617,9.2617,9.2617,9.2617,9.2617,9.2577,9.2484,9.1978,9.1549,9.1783,9.1904,9.188,9.1445,9.1793,9.2117,9.1805,9.2386,9.3054,9.3358,9.3483,9.3769,9.443,9.4059,9.3766,9.3766,9.3302,9.2876,9.2567,9.1522,9.1097,9.1677,9.1174,9.1135,9.1677,9.1716,9.1561,9.1251,9.1213,9.0555,8.9201,8.8079,8.7228,8.6571,8.4598,8.336,6.993,0.0,0.0,0.0,7.7013,7.8982,8.1768,8.3626,8.4889,8.5483,8.6185,8.6751,8.7049,8.6553,8.6977,8.9649,8.9216,8.8794,8.9435,8.8019,8.6812,8.656,8.6286,8.6094,8.6094,8.6126,8.6143,8.6143,8.637,0.0,8.5812,8.4907,8.3948,8.2912,8.2299,8.2019,8.2164,8.2263,8.2304,8.2304,8.289,8.2851,8.2304,8.289,8.2851,8.2344,8.289,8.3828,8.5,8.6484,8.6875,8.664,8.664,8.6797,8.7031,8.6758,8.6836,8.7109,8.7383,8.8398,8.9609,8.9883,9.0976,9.2226,9.25,9.2617,9.2617,9.2617,9.2577,9.2532,9.2532,9.2486,9.2426,9.2338,9.1793,9.1442,9.1934,9.1964,9.1871,9.171,9.188,9.1918,9.1645,9.2528,9.3376,9.3649,9.4108,9.4625,9.5207,9.4898,9.4617,9.4617,9.3882,9.3302,9.3031,9.1677,9.1097,9.1677,9.1174,9.1097,9.1677,9.1716,9.1716,9.1716,9.1716,9.1135,9.0052,8.8892,8.8041,8.7422,8.514,8.3476,0.0,0.0,0.0,0.0,0.0,0.0,8.1397,0.0,8.1063,8.2801,8.3555,8.4148,8.5011,8.4945,8.5933,8.944,9.0166,9.0305,9.0343,8.8614,8.7363,8.7363,8.6632,8.6094,8.611,8.6191,8.62,8.6215,8.6404,8.6572,8.6666,8.5315,8.3844,8.2344,8.2207,8.2166,8.2265,8.2304,8.2304,8.2304,8.2304,8.2304,8.2304,8.2304,8.2304,8.2304,8.2304,8.3281,8.4922,8.5781,8.664,8.7422,8.7461,8.6992,8.6328,8.7187,8.6953,8.6367,8.7187,8.8008,8.8828,8.9726,9.0586,9.1445,9.2344,9.2617,9.2617,9.2617,9.2486,9.2404,9.2401,9.2251,9.2073,9.2073,9.2112,9.2106,9.1946,9.1439,9.0935,9.0935,9.146,9.1622,9.0757,9.1967,9.3302,9.4075,9.423,9.4888,9.659,9.6048,9.5545,9.5545,9.4733,9.3882,9.3108,9.218,9.1677,9.1677,9.1677,9.1638,9.1638,9.1638,9.1638,9.1638,9.1638,9.1677,9.1677,9.1638,9.0787,8.9163,8.7383,8.4753,6.8333,0.0,0.0,0.0,0.0,0.0,0.0,0.0,7.8228,8.2029,8.2954,8.3752,8.6103,8.6791,8.7323,8.8372,8.754,8.7331,8.8938,8.7602,8.6478,8.6478,8.6297,8.6246,8.6387,8.6366,8.6426,0.0,8.6739,8.6583,8.6065,8.5257,8.4015,8.2344,8.2889,8.2615,8.1367,8.1992,8.2304,8.2304,8.2304,8.2304,8.2304,8.2304,8.2304,8.2304,8.2304,8.2929,8.4023,8.4883,8.539,8.5742,8.6992,8.7344,8.7187,8.7422,8.726,8.6965,8.7199,8.7824,8.8685,8.9583,9.05,9.1445,9.2344,9.2617,9.2577,9.248,9.2421,9.2354,9.2201,9.2067,9.1967,9.1967,9.2349,9.2741,9.2703,9.2548,9.221,9.159,9.1618,9.1683,9.1437,9.2777,9.3921,9.4153,9.5274,9.6241,9.6744,9.659,9.6435,9.6435,9.5081,9.4114,9.3882,9.1948,9.0749,9.0749,9.0749,9.0516,8.9898,9.0439,9.0478,8.9898,9.0478,9.0749,9.0749,9.0168,8.9627,8.9124,8.6764,8.4482,0.0,0.0,0.0,0.0,0.0,0.0,7.1998,7.3925,7.5932,7.8966,8.0976,8.2559,8.3585,8.5337,8.6642,8.6679,8.6122,8.6289,8.7923,8.6978,8.611,8.6143,8.6191,8.6277,8.644,8.648,8.6594,8.6749,8.688,8.6617,8.5903,8.5615,8.4648,8.289,8.3359,8.2929,8.1562,8.2031,8.2304,8.2304,8.2304,8.2304,8.2304,8.2304,8.2304,8.2304,8.2304,8.2578,8.3125,8.3984,8.4804,8.5586,8.6953,8.75,8.75,8.75,8.7418,8.7323,8.7225,8.7528,8.8107,8.8895,8.9813,9.0742,9.1643,9.215,9.2375,9.2286,9.2234,9.2158,9.1986,9.2144,9.2339,9.2339,9.2961,9.3418,9.307,9.2992,9.2837,9.2335,9.1948,9.1716,9.1716,9.2799,9.3804,9.4153,9.5352,9.6241,9.6241,9.659,9.6667,9.628,9.5004,9.4191,9.4191,9.218,9.0787,9.04,9.04,9.0168,8.9704,8.982,8.982,8.9704,9.0168,9.0246,8.9898,9.013,8.9704,8.8582,8.6339,8.4598,0.0,0.0,0.0,0.0,0.0,0.0,7.1614,7.2929,7.3552,7.4657,7.7952,8.0258,7.9111,8.1879,8.4302,8.4281,8.5205,8.6268,8.7281,8.6704,8.6143,8.6223,8.6254,8.6277,8.6447,8.6606,8.6747,8.6778,8.6965,8.679,8.6207,8.6088,8.5273,8.3515,8.3359,8.289,8.2031,8.1992,8.2109,8.2304,8.2187,8.2226,8.2304,8.2304,8.2304,8.2304,8.2304,8.2304,8.2383,8.3242,8.4492,8.6015,8.6992,8.7344,8.7383,8.7578,8.7578,8.7458,8.7342,8.7319,8.7421,8.8053,8.8871,8.9781,9.0638,9.1378,9.1963,9.2058,9.1965,9.1866,9.1862,9.2412,9.3031,9.3108,9.3766,9.4153,9.3418,9.3302,9.3302,9.3302,9.2412,9.1716,9.1716,9.2489,9.334,9.3959,9.4965,9.5623,9.5506,9.6164,9.6358,9.5584,9.4617,9.4075,9.4075,9.2605,9.1329,9.0478,9.04,9.0323,9.013,8.9433,8.9356,8.9975,9.0052,8.982,8.9201,9.0594,9.0014,8.7577,8.6107,8.5024,0.0,0.0,0.0,0.0,0.0,0.0,6.7374,6.805,6.934,7.2218,7.3744,7.5221,7.7262,7.9354,8.0554,7.9892,8.2201,8.4943,8.7249,8.6879,8.6339,8.6354,8.6414,8.6533,8.6777,8.6778,8.6927,8.7314,8.7371,8.7337,8.7224,8.5898,8.4336,8.2617,8.1875,8.1094,8.0234,8.0195,8.0898,8.2304,8.1601,8.1601,8.2304,8.2304,8.2304,8.2304,8.2304,8.2304,8.2383,8.3242,8.3789,8.4258,8.5859,8.6445,8.6601,8.7969,8.7962,8.7342,8.7877,8.8104,8.8079,8.8123,8.8787,8.9781,9.0638,9.0995,9.124,9.1791,9.1855,9.1901,9.2581,9.2876,9.3147,9.3804,9.4617,9.5197,9.5042,9.5004,9.5004,9.5004,9.3224,9.1716,9.1716,9.2953,9.3804,9.3302,9.512,9.628,9.5584,9.5661,9.57,9.5506,9.4153,9.3224,9.3224,9.2296,9.1329,9.0478,9.04,8.9782,8.8428,8.8234,8.7886,8.7345,8.8041,8.866,8.9201,8.8814,8.7654,8.5836,8.6184,8.5875,0.0,0.0,0.0,6.4916,0.0,0.0,0.0,6.6861,6.809,6.9967,7.2028,7.3762,7.4625,7.6823,7.8415,7.8036,8.0106,8.2453,8.4267,8.552,8.6354,8.6428,8.6532,8.6677,8.6843,8.6568,8.6336,8.621,8.6211,8.6211,8.6211,8.5351,8.4101,8.2344,8.1875,8.1211,8.0351,7.9922,8.0781,8.2929,8.207,8.2109,8.2969,8.2969,8.2695,8.2304,8.2304,8.2304,8.2344,8.3157,8.3503,8.37,8.5507,8.6211,8.6406,8.7999,8.8072,8.7436,8.7981,8.7962,8.7634,8.7435,8.8296,8.9468,8.9906,9.0633,9.1467,9.2235,9.2096,9.1986,9.3263,9.3611,9.3804,9.4655,9.5506,9.6009,9.5584,9.5158,9.4849,9.4849,9.3495,9.2489,9.2876,9.365,9.4191,9.423,9.5313,9.5971,9.5545,9.5893,9.5816,9.4926,9.4114,9.3456,9.3031,9.2218,9.1329,9.0478,9.04,8.982,8.8582,8.8118,8.7693,8.7267,8.7693,8.8118,8.8544,8.7693,8.7035,8.661,8.661,8.6377,0.0,0.0,0.0,0.0,0.0,6.5188,0.0,0.0,0.0,6.7842,7.0493,0.0,0.0,0.0,0.0,0.0,0.0,0.0,0.0,8.2824,0.0,8.55,8.5506,8.5641,8.6113,8.5776,8.5372,8.4922,8.4726,8.4726,8.4883,8.457,8.3672,8.2109,8.1758,8.1289,8.0742,7.9726,8.0625,8.3359,8.2265,8.2303,8.3318,8.3475,8.3084,8.2264,8.2461,8.2539,8.2575,8.313,8.349,8.3795,8.545,8.6085,8.6316,8.7873,8.8006,8.7479,8.7931,8.7707,8.7152,8.6723,8.777,8.924,8.9395,9.0478,9.187,9.2567,9.2373,9.2296,9.3804,9.4307,9.4655,9.5545,9.628,9.659,9.5893,9.5197,9.4694,9.4694,9.4191,9.3843,9.4153,9.4346,9.4617,9.5158,9.5545,9.57,9.5506,9.6125,9.5932,9.4346,9.4037,9.365,9.2837,9.2102,9.1406,9.0671,9.0478,9.0052,8.924,8.835,8.7925,8.7925,8.8079,8.8079,8.7925,8.719,8.7151,8.7654,8.6919,8.661,0.0,0.0,0.0,0.0,6.8007,0.0,0.0,0.0,6.6887,6.5872,0.0,0.0,0.0,0.0,0.0,0.0,0.0,0.0,7.5617,7.7974,8.0368,8.2047,8.1582,8.1812,8.3614,8.3851,8.4179,8.4844,8.4179,8.4062,8.4844,8.3437,8.2148,8.1172,7.9726,7.9219,7.9844,7.8281,7.914,8.2422,8.0645,8.0663,8.2302,8.3086,8.2969,8.2188,8.3083,8.3392,8.3278,8.3386,8.3805,8.4455,8.5409,8.5765,8.596,8.7708,8.7786,8.715,8.7854,8.805,8.7826,8.6894,8.777,8.9317,9.0052,9.0942,9.1716,9.1832,9.2335,9.307,9.3959,9.4772,9.5584,9.6435,9.6744,9.6783,9.6667,9.6551,9.6512,9.6512,9.6435,9.5893,9.4462,9.4849,9.512,9.4462,9.5661,9.6358,9.5584,9.5584,9.5274,9.4307,9.3572,9.2799,9.1909,9.1754,9.1677,9.1561,9.0826,9.0052,8.924,8.835,8.7925,8.7925,8.866,8.866,8.7925,8.7809,8.7422,8.6764,8.6648,8.661,0.0,0.0,0.0,0.0,0.0,0.0,0.0,0.0,6.6383,0.0,0.0,0.0,0.0,0.0,0.0,0.0,7.2212,0.0,0.0,0.0,7.5495,0.0,0.0,0.0,8.1158,8.1756,8.2031,8.1875,8.1992,8.2265,8.2617,8.2422,8.1679,8.0273,7.957,7.914,7.8984,7.8234,7.9551,8.2912,8.2066,8.2523,8.42,8.4551,8.401,8.2762,8.3194,8.3033,8.2601,8.3539,8.4085,8.4509,8.5729,8.6017,8.5903,8.7572,8.7674,8.7096,8.7763,8.7692,8.7407,8.7939,8.8931,9.0052,9.0903,9.1406,9.1909,9.2876,9.307,9.3418,9.5236,9.5584,9.57,9.659,9.6783,9.6783,9.6783,9.6396,9.6203,9.6706,9.6396,9.5971,9.5739,9.6009,9.6125,9.5739,9.6319,9.6474,9.5623,9.5506,9.5004,9.365,9.3186,9.2644,9.1754,9.1716,9.1716,9.1716,9.0439,8.9743,8.9898,8.9085,8.8428,8.7925,8.9201,8.9472,8.866,8.866,8.8196,8.7345,8.6842,8.661,7.0476,0.0,0.0,0.0,0.0,0.0,0.0,0.0,0.0,0.0,0.0,0.0,0.0,0.0,0.0,0.0,0.0,7.15,0.0,0.0,0.0,0.0,0.0,0.0,0.0,7.9375,7.9453,7.9023,7.9375,7.9805,8.0273,8.1133,8.0898,7.9414,7.9609,7.9296,7.8434,7.8369,7.9896,8.2999,8.2851,8.3672,8.5307,8.5548,8.4847,8.3523,8.376,8.3364,8.2659,8.4046,8.4611,8.4721,8.6055,8.6328,8.6074,8.7252,8.7341,8.6959,8.7396,8.7357,8.737,8.8997,8.9936,9.0555,9.1445,9.1716,9.1986,9.3456,9.3611,9.3804,9.5893,9.6164,9.6009,9.6667,9.6783,9.6783,9.6783,9.628,9.6048,9.6667,9.628,9.6048,9.6706,9.6783,9.6783,9.6783,9.6783,9.6551,9.5932,9.5855,9.5313,9.3843,9.3688,9.3224,9.2141,9.2257,9.2373,9.2373,9.0594,8.9898,9.071,8.9743,8.9008,8.8582,9.0014,9.0362,8.9511,8.9511,8.8969,8.7873,8.7267,8.6842,0.0,0.0,0.0,7.0421,0.0,0.0,0.0,0.0,6.8333,0.0,0.0,0.0,0.0,0.0,0.0,0.0,0.0,0.0,0.0,0.0,0.0,0.0,0.0,0.0,0.0,7.6523,7.6406,7.7226,7.6523,7.6797,7.8476,7.9336,7.9414,7.8555,7.9297,7.9253,7.8317,7.8308,7.9518,8.1954,8.1826,8.266,8.4388,8.5127,8.5049,8.432,8.5229,8.5089,8.4301,8.5107,8.5408,8.5346,8.6261,8.6584,8.6597,8.6623,8.6623,8.6636,8.661,8.719,8.8118,8.982,9.0362,9.0555,9.1445,9.1716,9.1909,9.2799,9.3572,9.4346,9.5313,9.6164,9.6783,9.6783,9.6783,9.6783,9.6783,9.6783,9.6783,9.6783,9.6783,9.6783,9.6783,9.6783,9.6783,9.6783,9.6783,9.6783,9.6744,9.6744,9.6396,9.5506,9.5429,9.4733,9.3108,9.365,9.4114,9.4114,9.1754,9.0749,9.1638,9.0091,8.9549,9.0323,9.1213,9.1213,9.0362,9.0362,8.9511,8.7925,8.7873,8.7422,0.0,0.0,7.298,7.1322,0.0,0.0,0.0,0.0,0.0,0.0,0.0,0.0,0.0,0.0,0.0,0.0,0.0,0.0,0.0,0.0,0.0,0.0,0.0,0.0,0.0,0.0,7.5156,7.5469,7.5742,7.6406,7.7578,7.8437,7.8789,7.8515,7.875,7.8705,7.8308,7.8217,7.9682,8.2634,8.2471,8.3599,8.5807,8.6091,8.5781,8.4967,8.5281,8.461,8.3417,8.48,8.5023,8.4637,8.6068,8.661,8.661,8.661,8.661,8.6687,8.7267,8.8389,8.9665,9.0207,9.0787,9.1329,9.16,9.2102,9.2721,9.3572,9.4423,9.5274,9.6125,9.659,9.6783,9.6783,9.6777,9.6746,9.6746,9.6661,9.6629,9.6731,9.6746,9.6761,9.6768,9.6783,9.6783,9.6783,9.6783,9.659,9.6009,9.5932,9.539,9.3998,9.3843,9.3379,9.2257,9.2915,9.3882,9.5004,9.3224,9.2257,9.2567,9.1176,9.0278,8.9992,9.0542,9.0684,9.0415,9.0124,8.9414,8.8297,8.8021,8.7422,7.1606,7.2389,0.0,7.1574,7.0705,0.0,6.7936,0.0,0.0,0.0,0.0,0.0,0.0,0.0,0.0,0.0,0.0,0.0,0.0,6.9546,0.0,0.0,0.0,0.0,0.0,0.0,7.3203,7.3203,7.3711,7.457,0.0,7.6914,7.7851,7.8476,7.8789,7.8861,7.8777,7.8651,8.0111,8.307,8.299,8.4245,8.6672,8.6362,8.5887,8.5294,8.4985,8.425,8.336,8.4753,8.4985,8.4675,8.6068,8.661,8.661,8.661,8.6803,8.7228,8.8389,8.9511,9.0439,9.0749,9.1251,9.1702,9.1687,9.2253,9.3026,9.3538,9.4543,9.5571,9.6112,9.646,9.6692,9.6692,9.6661,9.6613,9.6613,9.6564,9.6548,9.6613,9.6613,9.6645,9.6761,9.6738,9.6753,9.6822,9.6783,9.659,9.6009,9.57,9.5081,9.3998,9.3611,9.3302,9.307,9.3263,9.4153,9.5855,9.4385,9.3475,9.3624,9.2117,9.1433,9.174,9.0992,9.0967,9.1718,9.055,8.9645,8.8923,8.8382,8.7736]}]]